Wetterdaten: Sonntag, 27.08.2017
Datum Zeit Temp. A. Pool Temp. Feuchte A. Luftdruck Regen Wind Richtung Richtung Sonnenschein ET UV Solar Taupunkt Windchill Windben Empfang
27.08.2017 00:00 23,0 C 25,0 C 58 % 1014,3 hPa 0,0 l/m 9,7 km/h (2 Bft) SW 217 0 min 0,000 mm 0,0 UV-I 0 W/m 14,3 C 22,0 C 17,7 km/h (3 Bft) 100,00 %
27.08.2017 00:02 23,0 C 24,4 C 58 % 1014,3 hPa 0,0 l/m 12,5 km/h (3 Bft) S-SW 199 0 min 0,000 mm 0,0 UV-I 0 W/m 14,3 C 21,4 C 19,3 km/h (3 Bft) 13,33 %
27.08.2017 00:04 23,1 C 24,4 C 57 % 1014,3 hPa 0,0 l/m 10,8 km/h (2 Bft) S 182 0 min 0,000 mm 0,0 UV-I 0 W/m 14,1 C 21,9 C 17,7 km/h (3 Bft) 75,00 %
27.08.2017 00:06 23,1 C 24,4 C 57 % 1014,2 hPa 0,0 l/m 11,1 km/h (2 Bft) S-SW 209 0 min 0,000 mm 0,0 UV-I 0 W/m 14,1 C 21,8 C 19,3 km/h (3 Bft) 96,00 %
27.08.2017 00:08 23,1 C 24,4 C 57 % 1014,2 hPa 0,0 l/m 10,3 km/h (2 Bft) S-SW 212 0 min 0,000 mm 0,0 UV-I 0 W/m 14,1 C 22,0 C 19,3 km/h (3 Bft) 97,87 %
27.08.2017 00:10 23,1 C 24,4 C 57 % 1014,2 hPa 0,0 l/m 5,7 km/h (1 Bft) S 191 0 min 0,000 mm 0,0 UV-I 0 W/m 14,1 C 23,1 C 8,0 km/h (2 Bft) 93,62 %
27.08.2017 00:12 23,1 C 24,4 C 57 % 1014,3 hPa 0,0 l/m 6,1 km/h (2 Bft) SW 223 0 min 0,000 mm 0,0 UV-I 0 W/m 14,1 C 23,1 C 11,3 km/h (2 Bft) 93,62 %
27.08.2017 00:14 23,0 C 24,4 C 57 % 1014,3 hPa 0,0 l/m 8,2 km/h (2 Bft) SW 219 0 min 0,000 mm 0,0 UV-I 0 W/m 14,0 C 22,4 C 11,3 km/h (2 Bft) 95,74 %
27.08.2017 00:16 23,0 C 24,4 C 57 % 1014,3 hPa 0,0 l/m 6,7 km/h (2 Bft) W-SW 239 0 min 0,000 mm 0,0 UV-I 0 W/m 14,0 C 22,9 C 14,5 km/h (3 Bft) 95,74 %
27.08.2017 00:18 22,9 C 24,4 C 57 % 1014,3 hPa 0,0 l/m 7,8 km/h (2 Bft) SW 215 0 min 0,000 mm 0,0 UV-I 0 W/m 13,9 C 22,5 C 9,7 km/h (2 Bft) 92,31 %
27.08.2017 00:20 22,9 C 24,4 C 57 % 1014,2 hPa 0,0 l/m 7,5 km/h (2 Bft) SW 214 0 min 0,000 mm 0,0 UV-I 0 W/m 13,9 C 22,5 C 11,3 km/h (2 Bft) 96,92 %
27.08.2017 00:22 22,9 C 24,4 C 57 % 1014,2 hPa 0,0 l/m 6,9 km/h (2 Bft) S-SW 204 0 min 0,000 mm 0,0 UV-I 0 W/m 13,9 C 22,7 C 11,3 km/h (2 Bft) 98,00 %
27.08.2017 00:24 22,8 C 24,4 C 57 % 1014,2 hPa 0,0 l/m 4,9 km/h (1 Bft) S 173 0 min 0,000 mm 0,0 UV-I 0 W/m 13,8 C 22,8 C 9,7 km/h (2 Bft) 97,87 %
27.08.2017 00:26 22,8 C 24,4 C 58 % 1014,2 hPa 0,0 l/m 3,8 km/h (1 Bft) S-SW 195 0 min 0,000 mm 0,0 UV-I 0 W/m 14,1 C 22,8 C 6,4 km/h (2 Bft) 91,49 %
27.08.2017 00:28 22,7 C 24,4 C 58 % 1014,1 hPa 0,0 l/m 5,1 km/h (1 Bft) S 180 0 min 0,000 mm 0,0 UV-I 0 W/m 14,0 C 22,7 C 9,7 km/h (2 Bft) 97,87 %
27.08.2017 00:30 22,7 C 24,4 C 58 % 1014,1 hPa 0,0 l/m 7,1 km/h (2 Bft) S 184 0 min 0,000 mm 0,0 UV-I 0 W/m 14,0 C 22,5 C 12,9 km/h (3 Bft) 95,74 %
27.08.2017 00:32 22,7 C 24,4 C 58 % 1014,0 hPa 0,0 l/m 6,7 km/h (2 Bft) S-SW 209 0 min 0,000 mm 0,0 UV-I 0 W/m 14,0 C 22,6 C 9,7 km/h (2 Bft) 97,87 %
27.08.2017 00:34 22,7 C 24,4 C 58 % 1014,0 hPa 0,0 l/m 6,9 km/h (2 Bft) S-SW 209 0 min 0,000 mm 0,0 UV-I 0 W/m 14,0 C 22,5 C 11,3 km/h (2 Bft) 97,87 %
27.08.2017 00:36 22,6 C 24,4 C 58 % 1014,0 hPa 0,0 l/m 6,0 km/h (2 Bft) S 189 0 min 0,000 mm 0,0 UV-I 0 W/m 13,9 C 22,6 C 11,3 km/h (2 Bft) 95,74 %
27.08.2017 00:38 22,6 C 24,4 C 58 % 1014,0 hPa 0,0 l/m 6,2 km/h (2 Bft) SW 219 0 min 0,000 mm 0,0 UV-I 0 W/m 13,9 C 22,6 C 9,7 km/h (2 Bft) 95,74 %
27.08.2017 00:40 22,6 C 24,4 C 58 % 1014,0 hPa 0,0 l/m 6,7 km/h (2 Bft) S-SW 200 0 min 0,000 mm 0,0 UV-I 0 W/m 13,9 C 22,5 C 9,7 km/h (2 Bft) 94,87 %
27.08.2017 00:42 22,6 C 24,4 C 58 % 1013,9 hPa 0,0 l/m 7,3 km/h (2 Bft) S-SW 212 0 min 0,000 mm 0,0 UV-I 0 W/m 13,9 C 22,3 C 11,3 km/h (2 Bft) 93,62 %
27.08.2017 00:44 22,6 C 24,4 C 58 % 1013,9 hPa 0,0 l/m 4,2 km/h (1 Bft) S-SW 200 0 min 0,000 mm 0,0 UV-I 0 W/m 13,9 C 22,6 C 6,4 km/h (2 Bft) 93,62 %
27.08.2017 00:46 22,5 C 24,4 C 58 % 1013,9 hPa 0,0 l/m 3,5 km/h (1 Bft) S 190 0 min 0,000 mm 0,0 UV-I 0 W/m 13,8 C 22,5 C 8,0 km/h (2 Bft) 95,74 %
27.08.2017 00:48 22,5 C 24,4 C 58 % 1014,0 hPa 0,0 l/m 2,7 km/h (1 Bft) S 177 0 min 0,000 mm 0,0 UV-I 0 W/m 13,8 C 22,5 C 6,4 km/h (2 Bft) 94,00 %
27.08.2017 00:50 22,5 C 24,4 C 58 % 1014,0 hPa 0,0 l/m 2,3 km/h (1 Bft) S 184 0 min 0,000 mm 0,0 UV-I 0 W/m 13,8 C 22,5 C 6,4 km/h (2 Bft) 91,49 %
27.08.2017 00:52 22,4 C 24,4 C 59 % 1014,0 hPa 0,0 l/m 1,3 km/h (1 Bft) S 184 0 min 0,000 mm 0,0 UV-I 0 W/m 14,0 C 22,4 C 4,8 km/h (1 Bft) 95,74 %
27.08.2017 00:54 22,4 C 24,4 C 59 % 1014,0 hPa 0,0 l/m 0,4 km/h (0 Bft) S 184 0 min 0,000 mm 0,0 UV-I 0 W/m 14,0 C 22,4 C 1,6 km/h (1 Bft) 95,74 %
27.08.2017 00:56 22,4 C 24,4 C 59 % 1014,1 hPa 0,0 l/m 0,3 km/h (0 Bft) S 184 0 min 0,000 mm 0,0 UV-I 0 W/m 14,0 C 22,4 C 1,6 km/h (1 Bft) 91,49 %
27.08.2017 00:58 22,3 C 24,4 C 62 % 1014,1 hPa 0,0 l/m 0,1 km/h (0 Bft) S 184 0 min 0,000 mm 0,0 UV-I 0 W/m 14,7 C 22,3 C 1,6 km/h (1 Bft) 94,00 %
27.08.2017 01:00 22,1 C 24,4 C 64 % 1014,1 hPa 0,0 l/m 0,0 km/h (0 Bft) S 184 0 min 0,051 mm 0,0 UV-I 0 W/m 15,0 C 22,1 C 0,0 km/h (0 Bft) 94,00 %
27.08.2017 01:02 21,7 C 24,4 C 64 % 1014,1 hPa 0,0 l/m 0,2 km/h (0 Bft) S 184 0 min 0,000 mm 0,0 UV-I 0 W/m 14,6 C 21,7 C 1,6 km/h (1 Bft) 94,87 %
27.08.2017 01:04 21,5 C 24,4 C 64 % 1014,1 hPa 0,0 l/m 1,8 km/h (1 Bft) S 184 0 min 0,000 mm 0,0 UV-I 0 W/m 14,4 C 21,5 C 4,8 km/h (1 Bft) 94,00 %
27.08.2017 01:06 21,3 C 24,4 C 64 % 1014,1 hPa 0,0 l/m 1,7 km/h (1 Bft) S 184 0 min 0,000 mm 0,0 UV-I 0 W/m 14,2 C 21,3 C 4,8 km/h (1 Bft) 95,83 %
27.08.2017 01:08 21,3 C 24,4 C 64 % 1014,1 hPa 0,0 l/m 2,1 km/h (1 Bft) S 184 0 min 0,000 mm 0,0 UV-I 0 W/m 14,2 C 21,3 C 4,8 km/h (1 Bft) 95,74 %
27.08.2017 01:10 21,3 C 24,4 C 64 % 1014,1 hPa 0,0 l/m 2,6 km/h (1 Bft) S 184 0 min 0,000 mm 0,0 UV-I 0 W/m 14,2 C 21,3 C 4,8 km/h (1 Bft) 95,83 %
27.08.2017 01:12 21,3 C 24,4 C 66 % 1014,1 hPa 0,0 l/m 0,9 km/h (0 Bft) S 184 0 min 0,000 mm 0,0 UV-I 0 W/m 14,7 C 21,3 C 3,2 km/h (1 Bft) 100,00 %
27.08.2017 01:14 21,2 C 24,4 C 67 % 1014,1 hPa 0,0 l/m 0,2 km/h (0 Bft) S 184 0 min 0,000 mm 0,0 UV-I 0 W/m 14,8 C 21,2 C 1,6 km/h (1 Bft) 97,87 %
27.08.2017 01:16 21,1 C 24,4 C 66 % 1014,1 hPa 0,0 l/m 1,2 km/h (1 Bft) S 184 0 min 0,000 mm 0,0 UV-I 0 W/m 14,5 C 21,1 C 3,2 km/h (1 Bft) 100,00 %
27.08.2017 01:18 21,0 C 24,4 C 66 % 1014,0 hPa 0,0 l/m 1,6 km/h (1 Bft) SW 236 0 min 0,000 mm 0,0 UV-I 0 W/m 14,4 C 21,0 C 4,8 km/h (1 Bft) 100,00 %
27.08.2017 01:20 20,9 C 24,4 C 67 % 1014,0 hPa 0,0 l/m 1,3 km/h (1 Bft) SW 236 0 min 0,000 mm 0,0 UV-I 0 W/m 14,5 C 20,9 C 4,8 km/h (1 Bft) 100,00 %
27.08.2017 01:22 20,9 C 24,4 C 67 % 1014,0 hPa 0,0 l/m 1,5 km/h (1 Bft) W 261 0 min 0,000 mm 0,0 UV-I 0 W/m 14,5 C 20,9 C 3,2 km/h (1 Bft) 97,87 %
27.08.2017 01:24 20,9 C 24,4 C 66 % 1014,1 hPa 0,0 l/m 2,2 km/h (1 Bft) W 261 0 min 0,000 mm 0,0 UV-I 0 W/m 14,3 C 20,9 C 3,2 km/h (1 Bft) 97,87 %
27.08.2017 01:26 20,9 C 24,4 C 67 % 1014,0 hPa 0,0 l/m 0,9 km/h (0 Bft) W 261 0 min 0,000 mm 0,0 UV-I 0 W/m 14,5 C 20,9 C 3,2 km/h (1 Bft) 100,00 %
27.08.2017 01:28 20,9 C 24,4 C 67 % 1014,1 hPa 0,0 l/m 2,9 km/h (1 Bft) W 261 0 min 0,000 mm 0,0 UV-I 0 W/m 14,5 C 20,9 C 4,8 km/h (1 Bft) 97,87 %
27.08.2017 01:30 20,8 C 24,4 C 67 % 1014,2 hPa 0,0 l/m 1,8 km/h (1 Bft) W 261 0 min 0,000 mm 0,0 UV-I 0 W/m 14,4 C 20,8 C 3,2 km/h (1 Bft) 100,00 %
27.08.2017 01:32 20,8 C 24,4 C 67 % 1014,1 hPa 0,0 l/m 0,7 km/h (0 Bft) W 261 0 min 0,000 mm 0,0 UV-I 0 W/m 14,4 C 20,8 C 3,2 km/h (1 Bft) 97,37 %
27.08.2017 01:34 20,7 C 24,4 C 67 % 1014,1 hPa 0,0 l/m 0,9 km/h (0 Bft) W 261 0 min 0,000 mm 0,0 UV-I 0 W/m 14,3 C 20,7 C 3,2 km/h (1 Bft) 95,74 %
27.08.2017 01:36 20,7 C 24,4 C 68 % 1014,1 hPa 0,0 l/m 1,7 km/h (1 Bft) W 261 0 min 0,000 mm 0,0 UV-I 0 W/m 14,6 C 20,7 C 3,2 km/h (1 Bft) 100,00 %
27.08.2017 01:38 20,7 C 24,4 C 68 % 1014,1 hPa 0,0 l/m 3,1 km/h (1 Bft) W 262 0 min 0,000 mm 0,0 UV-I 0 W/m 14,6 C 20,7 C 4,8 km/h (1 Bft) 97,87 %
27.08.2017 01:40 20,6 C 24,4 C 68 % 1014,1 hPa 0,0 l/m 2,0 km/h (1 Bft) W 264 0 min 0,000 mm 0,0 UV-I 0 W/m 14,5 C 20,6 C 3,2 km/h (1 Bft) 97,87 %
27.08.2017 01:42 20,6 C 24,4 C 68 % 1014,1 hPa 0,0 l/m 1,1 km/h (1 Bft) W 264 0 min 0,000 mm 0,0 UV-I 0 W/m 14,5 C 20,6 C 3,2 km/h (1 Bft) 97,87 %
27.08.2017 01:44 20,6 C 24,4 C 68 % 1014,0 hPa 0,0 l/m 1,8 km/h (1 Bft) W 264 0 min 0,000 mm 0,0 UV-I 0 W/m 14,5 C 20,6 C 3,2 km/h (1 Bft) 100,00 %
27.08.2017 01:46 20,5 C 24,4 C 68 % 1014,1 hPa 0,0 l/m 0,4 km/h (0 Bft) W 264 0 min 0,000 mm 0,0 UV-I 0 W/m 14,4 C 20,5 C 3,2 km/h (1 Bft) 97,87 %
27.08.2017 01:48 20,5 C 24,4 C 68 % 1014,1 hPa 0,0 l/m 1,9 km/h (1 Bft) W 264 0 min 0,000 mm 0,0 UV-I 0 W/m 14,4 C 20,5 C 3,2 km/h (1 Bft) 100,00 %
27.08.2017 01:50 20,5 C 24,4 C 68 % 1014,2 hPa 0,0 l/m 0,8 km/h (0 Bft) W 264 0 min 0,000 mm 0,0 UV-I 0 W/m 14,4 C 20,5 C 3,2 km/h (1 Bft) 100,00 %
27.08.2017 01:52 20,4 C 24,4 C 69 % 1014,2 hPa 0,0 l/m 0,7 km/h (0 Bft) W-SW 254 0 min 0,000 mm 0,0 UV-I 0 W/m 14,5 C 20,4 C 3,2 km/h (1 Bft) 98,00 %
27.08.2017 01:54 20,4 C 24,4 C 70 % 1014,2 hPa 0,0 l/m 2,4 km/h (1 Bft) W-SW 240 0 min 0,000 mm 0,0 UV-I 0 W/m 14,7 C 20,4 C 3,2 km/h (1 Bft) 100,00 %
27.08.2017 01:56 20,3 C 24,4 C 71 % 1014,1 hPa 0,0 l/m 2,0 km/h (1 Bft) W-SW 240 0 min 0,000 mm 0,0 UV-I 0 W/m 14,9 C 20,3 C 4,8 km/h (1 Bft) 97,87 %
27.08.2017 01:58 20,2 C 24,4 C 71 % 1014,1 hPa 0,0 l/m 2,4 km/h (1 Bft) SW 233 0 min 0,000 mm 0,0 UV-I 0 W/m 14,8 C 20,2 C 3,2 km/h (1 Bft) 98,00 %
27.08.2017 02:00 20,1 C 24,4 C 73 % 1014,1 hPa 0,0 l/m 1,6 km/h (1 Bft) SW 233 0 min 0,000 mm 0,0 UV-I 0 W/m 15,1 C 20,1 C 3,2 km/h (1 Bft) 100,00 %
27.08.2017 02:02 19,9 C 24,4 C 72 % 1014,1 hPa 0,0 l/m 2,0 km/h (1 Bft) SW 233 0 min 0,025 mm 0,0 UV-I 0 W/m 14,7 C 19,9 C 3,2 km/h (1 Bft) 97,62 %
27.08.2017 02:04 19,8 C 24,4 C 73 % 1014,1 hPa 0,0 l/m 2,4 km/h (1 Bft) S-SO 150 0 min 0,000 mm 0,0 UV-I 0 W/m 14,8 C 19,8 C 4,8 km/h (1 Bft) 100,00 %
27.08.2017 02:06 19,7 C 24,4 C 74 % 1014,1 hPa 0,0 l/m 3,9 km/h (1 Bft) S-SO 150 0 min 0,000 mm 0,0 UV-I 0 W/m 14,9 C 19,7 C 4,8 km/h (1 Bft) 97,87 %
27.08.2017 02:08 19,6 C 24,4 C 74 % 1014,1 hPa 0,0 l/m 5,6 km/h (1 Bft) SO 146 0 min 0,000 mm 0,0 UV-I 0 W/m 14,8 C 19,6 C 6,4 km/h (2 Bft) 97,87 %
27.08.2017 02:10 19,4 C 24,4 C 75 % 1014,1 hPa 0,0 l/m 5,9 km/h (2 Bft) SO 137 0 min 0,000 mm 0,0 UV-I 0 W/m 14,8 C 19,4 C 6,4 km/h (2 Bft) 100,00 %
27.08.2017 02:12 19,3 C 24,4 C 74 % 1014,0 hPa 0,0 l/m 5,5 km/h (1 Bft) SO 143 0 min 0,000 mm 0,0 UV-I 0 W/m 14,5 C 19,3 C 6,4 km/h (2 Bft) 97,87 %
27.08.2017 02:14 19,2 C 24,4 C 75 % 1014,0 hPa 0,0 l/m 5,1 km/h (1 Bft) S-SO 150 0 min 0,000 mm 0,0 UV-I 0 W/m 14,7 C 19,2 C 6,4 km/h (2 Bft) 100,00 %
27.08.2017 02:16 19,2 C 24,4 C 75 % 1014,1 hPa 0,0 l/m 4,2 km/h (1 Bft) S-SO 156 0 min 0,000 mm 0,0 UV-I 0 W/m 14,7 C 19,2 C 8,0 km/h (2 Bft) 100,00 %
27.08.2017 02:18 19,1 C 24,4 C 75 % 1014,1 hPa 0,0 l/m 2,0 km/h (1 Bft) S-SO 157 0 min 0,000 mm 0,0 UV-I 0 W/m 14,6 C 19,1 C 4,8 km/h (1 Bft) 100,00 %
27.08.2017 02:20 19,2 C 24,4 C 74 % 1014,0 hPa 0,0 l/m 1,8 km/h (1 Bft) S-SO 157 0 min 0,000 mm 0,0 UV-I 0 W/m 14,4 C 19,2 C 4,8 km/h (1 Bft) 100,00 %
27.08.2017 02:22 19,3 C 24,4 C 75 % 1014,0 hPa 0,0 l/m 0,8 km/h (0 Bft) S-SO 157 0 min 0,000 mm 0,0 UV-I 0 W/m 14,8 C 19,3 C 1,6 km/h (1 Bft) 97,87 %
27.08.2017 02:24 19,2 C 24,4 C 75 % 1014,0 hPa 0,0 l/m 0,1 km/h (0 Bft) S-SO 156 0 min 0,000 mm 0,0 UV-I 0 W/m 14,7 C 19,2 C 1,6 km/h (1 Bft) 98,00 %
27.08.2017 02:26 19,2 C 24,4 C 75 % 1014,0 hPa 0,0 l/m 0,0 km/h (0 Bft) S-SO 157 0 min 0,000 mm 0,0 UV-I 0 W/m 14,7 C 19,2 C 0,0 km/h (0 Bft) 97,87 %
27.08.2017 02:28 19,1 C 24,4 C 75 % 1014,0 hPa 0,0 l/m 0,0 km/h (0 Bft) S-SO 156 0 min 0,000 mm 0,0 UV-I 0 W/m 14,6 C 19,1 C 0,0 km/h (0 Bft) 98,11 %
27.08.2017 02:30 19,1 C 24,4 C 76 % 1014,0 hPa 0,0 l/m 0,0 km/h (0 Bft) S-SO 157 0 min 0,000 mm 0,0 UV-I 0 W/m 14,8 C 19,1 C 0,0 km/h (0 Bft) 100,00 %
27.08.2017 02:32 19,0 C 24,4 C 76 % 1014,0 hPa 0,0 l/m 0,0 km/h (0 Bft) S-SO 156 0 min 0,000 mm 0,0 UV-I 0 W/m 14,7 C 19,0 C 0,0 km/h (0 Bft) 100,00 %
27.08.2017 02:34 18,9 C 24,4 C 76 % 1014,0 hPa 0,0 l/m 0,0 km/h (0 Bft) S-SO 156 0 min 0,000 mm 0,0 UV-I 0 W/m 14,6 C 18,9 C 0,0 km/h (0 Bft) 100,00 %
27.08.2017 02:36 18,9 C 24,4 C 77 % 1014,0 hPa 0,0 l/m 0,0 km/h (0 Bft) S-SO 156 0 min 0,000 mm 0,0 UV-I 0 W/m 14,8 C 18,9 C 0,0 km/h (0 Bft) 97,87 %
27.08.2017 02:38 18,8 C 24,4 C 77 % 1014,0 hPa 0,0 l/m 0,0 km/h (0 Bft) S-SO 156 0 min 0,000 mm 0,0 UV-I 0 W/m 14,7 C 18,8 C 1,6 km/h (1 Bft) 97,87 %
27.08.2017 02:40 18,8 C 24,4 C 78 % 1014,0 hPa 0,0 l/m 0,0 km/h (0 Bft) S-SO 156 0 min 0,000 mm 0,0 UV-I 0 W/m 14,9 C 18,8 C 0,0 km/h (0 Bft) 97,87 %
27.08.2017 02:42 18,7 C 24,4 C 78 % 1014,0 hPa 0,0 l/m 2,4 km/h (1 Bft) S-SO 157 0 min 0,000 mm 0,0 UV-I 0 W/m 14,8 C 18,7 C 3,2 km/h (1 Bft) 96,00 %
27.08.2017 02:44 18,7 C 24,4 C 78 % 1014,0 hPa 0,0 l/m 2,6 km/h (1 Bft) S-SO 157 0 min 0,000 mm 0,0 UV-I 0 W/m 14,8 C 18,7 C 3,2 km/h (1 Bft) 97,87 %
27.08.2017 02:46 18,6 C 24,4 C 78 % 1014,0 hPa 0,0 l/m 1,6 km/h (1 Bft) S-SO 157 0 min 0,000 mm 0,0 UV-I 0 W/m 14,7 C 18,6 C 3,2 km/h (1 Bft) 95,74 %
27.08.2017 02:48 18,6 C 24,4 C 79 % 1014,0 hPa 0,0 l/m 1,9 km/h (1 Bft) S-SO 157 0 min 0,000 mm 0,0 UV-I 0 W/m 14,9 C 18,6 C 3,2 km/h (1 Bft) 95,74 %
27.08.2017 02:50 18,5 C 24,4 C 79 % 1014,0 hPa 0,0 l/m 1,7 km/h (1 Bft) S-SO 157 0 min 0,000 mm 0,0 UV-I 0 W/m 14,8 C 18,5 C 3,2 km/h (1 Bft) 93,62 %
27.08.2017 02:52 18,4 C 24,4 C 79 % 1014,0 hPa 0,0 l/m 1,7 km/h (1 Bft) S-SO 157 0 min 0,000 mm 0,0 UV-I 0 W/m 14,7 C 18,4 C 3,2 km/h (1 Bft) 97,87 %
27.08.2017 02:54 18,4 C 24,4 C 79 % 1014,0 hPa 0,0 l/m 2,2 km/h (1 Bft) S-SO 159 0 min 0,000 mm 0,0 UV-I 0 W/m 14,7 C 18,4 C 6,4 km/h (2 Bft) 97,87 %
27.08.2017 02:56 18,3 C 24,4 C 80 % 1014,0 hPa 0,0 l/m 2,9 km/h (1 Bft) S-SO 159 0 min 0,000 mm 0,0 UV-I 0 W/m 14,8 C 18,3 C 3,2 km/h (1 Bft) 93,62 %
27.08.2017 02:58 18,3 C 24,4 C 80 % 1014,1 hPa 0,0 l/m 2,6 km/h (1 Bft) S-SO 168 0 min 0,000 mm 0,0 UV-I 0 W/m 14,8 C 18,3 C 6,4 km/h (2 Bft) 93,62 %
27.08.2017 03:00 18,2 C 24,4 C 80 % 1014,0 hPa 0,0 l/m 3,8 km/h (1 Bft) S 171 0 min 0,026 mm 0,0 UV-I 0 W/m 14,7 C 18,2 C 6,4 km/h (2 Bft) 95,74 %
27.08.2017 03:02 18,2 C 24,4 C 80 % 1014,0 hPa 0,0 l/m 2,9 km/h (1 Bft) S 171 0 min 0,000 mm 0,0 UV-I 0 W/m 14,7 C 18,2 C 6,4 km/h (2 Bft) 97,87 %
27.08.2017 03:04 18,3 C 24,4 C 79 % 1014,0 hPa 0,0 l/m 4,0 km/h (1 Bft) S-SW 199 0 min 0,000 mm 0,0 UV-I 0 W/m 14,6 C 18,3 C 6,4 km/h (2 Bft) 97,87 %
27.08.2017 03:06 18,3 C 24,4 C 79 % 1014,0 hPa 0,0 l/m 4,4 km/h (1 Bft) S-SW 207 0 min 0,000 mm 0,0 UV-I 0 W/m 14,6 C 18,3 C 6,4 km/h (2 Bft) 98,00 %
27.08.2017 03:08 18,4 C 24,4 C 79 % 1014,0 hPa 0,0 l/m 3,0 km/h (1 Bft) S-SW 207 0 min 0,000 mm 0,0 UV-I 0 W/m 14,7 C 18,4 C 4,8 km/h (1 Bft) 95,74 %
27.08.2017 03:10 18,4 C 24,4 C 79 % 1014,0 hPa 0,0 l/m 2,9 km/h (1 Bft) S-SW 207 0 min 0,000 mm 0,0 UV-I 0 W/m 14,7 C 18,4 C 4,8 km/h (1 Bft) 97,87 %
27.08.2017 03:12 18,4 C 24,4 C 79 % 1014,0 hPa 0,0 l/m 1,1 km/h (1 Bft) S-SW 207 0 min 0,000 mm 0,0 UV-I 0 W/m 14,7 C 18,4 C 3,2 km/h (1 Bft) 97,22 %
27.08.2017 03:14 18,3 C 24,4 C 80 % 1014,0 hPa 0,0 l/m 3,1 km/h (1 Bft) S-SW 207 0 min 0,000 mm 0,0 UV-I 0 W/m 14,8 C 18,3 C 4,8 km/h (1 Bft) 98,00 %
27.08.2017 03:16 18,3 C 24,4 C 80 % 1014,0 hPa 0,0 l/m 4,7 km/h (1 Bft) SW 224 0 min 0,000 mm 0,0 UV-I 0 W/m 14,8 C 18,3 C 8,0 km/h (2 Bft) 97,87 %
27.08.2017 03:18 18,3 C 24,4 C 79 % 1014,0 hPa 0,0 l/m 2,8 km/h (1 Bft) SW 223 0 min 0,000 mm 0,0 UV-I 0 W/m 14,6 C 18,3 C 6,4 km/h (2 Bft) 97,87 %
27.08.2017 03:20 18,3 C 24,4 C 80 % 1014,0 hPa 0,0 l/m 1,7 km/h (1 Bft) SW 223 0 min 0,000 mm 0,0 UV-I 0 W/m 14,8 C 18,3 C 4,8 km/h (1 Bft) 100,00 %
27.08.2017 03:22 18,2 C 24,4 C 80 % 1014,0 hPa 0,0 l/m 3,9 km/h (1 Bft) SW 223 0 min 0,000 mm 0,0 UV-I 0 W/m 14,7 C 18,2 C 6,4 km/h (2 Bft) 95,74 %
27.08.2017 03:24 18,3 C 24,4 C 80 % 1014,0 hPa 0,0 l/m 5,0 km/h (1 Bft) SW 224 0 min 0,000 mm 0,0 UV-I 0 W/m 14,8 C 18,3 C 6,4 km/h (2 Bft) 100,00 %
27.08.2017 03:26 18,3 C 24,4 C 79 % 1014,0 hPa 0,0 l/m 3,6 km/h (1 Bft) SW 224 0 min 0,000 mm 0,0 UV-I 0 W/m 14,6 C 18,3 C 6,4 km/h (2 Bft) 96,00 %
27.08.2017 03:28 18,3 C 24,4 C 79 % 1014,0 hPa 0,0 l/m 2,7 km/h (1 Bft) SW 224 0 min 0,000 mm 0,0 UV-I 0 W/m 14,6 C 18,3 C 4,8 km/h (1 Bft) 96,00 %
27.08.2017 03:30 18,3 C 24,4 C 79 % 1014,0 hPa 0,0 l/m 4,2 km/h (1 Bft) SW 224 0 min 0,000 mm 0,0 UV-I 0 W/m 14,6 C 18,3 C 6,4 km/h (2 Bft) 97,87 %
27.08.2017 03:32 18,4 C 24,4 C 79 % 1014,1 hPa 0,0 l/m 3,1 km/h (1 Bft) SW 224 0 min 0,000 mm 0,0 UV-I 0 W/m 14,7 C 18,4 C 4,8 km/h (1 Bft) 100,00 %
27.08.2017 03:34 18,4 C 24,4 C 79 % 1014,1 hPa 0,0 l/m 4,2 km/h (1 Bft) SW 224 0 min 0,000 mm 0,0 UV-I 0 W/m 14,7 C 18,4 C 4,8 km/h (1 Bft) 100,00 %
27.08.2017 03:36 18,4 C 24,4 C 79 % 1014,1 hPa 0,0 l/m 4,4 km/h (1 Bft) SW 224 0 min 0,000 mm 0,0 UV-I 0 W/m 14,7 C 18,4 C 6,4 km/h (2 Bft) 100,00 %
27.08.2017 03:38 18,4 C 24,4 C 79 % 1014,1 hPa 0,0 l/m 3,8 km/h (1 Bft) SW 223 0 min 0,000 mm 0,0 UV-I 0 W/m 14,7 C 18,4 C 6,4 km/h (2 Bft) 100,00 %
27.08.2017 03:40 18,3 C 24,4 C 79 % 1014,1 hPa 0,0 l/m 4,2 km/h (1 Bft) SW 222 0 min 0,000 mm 0,0 UV-I 0 W/m 14,6 C 18,3 C 8,0 km/h (2 Bft) 100,00 %
27.08.2017 03:42 18,3 C 24,4 C 79 % 1014,1 hPa 0,0 l/m 4,6 km/h (1 Bft) SW 216 0 min 0,000 mm 0,0 UV-I 0 W/m 14,6 C 18,3 C 6,4 km/h (2 Bft) 100,00 %
27.08.2017 03:44 18,3 C 24,4 C 80 % 1014,1 hPa 0,0 l/m 4,2 km/h (1 Bft) SW 216 0 min 0,000 mm 0,0 UV-I 0 W/m 14,8 C 18,3 C 6,4 km/h (2 Bft) 97,87 %
27.08.2017 03:46 18,2 C 24,4 C 80 % 1014,1 hPa 0,0 l/m 3,7 km/h (1 Bft) S-SW 206 0 min 0,000 mm 0,0 UV-I 0 W/m 14,7 C 18,2 C 6,4 km/h (2 Bft) 100,00 %
27.08.2017 03:48 18,2 C 24,4 C 80 % 1014,1 hPa 0,0 l/m 3,3 km/h (1 Bft) S-SW 206 0 min 0,000 mm 0,0 UV-I 0 W/m 14,7 C 18,2 C 6,4 km/h (2 Bft) 98,00 %
27.08.2017 03:50 18,2 C 24,4 C 80 % 1014,1 hPa 0,0 l/m 1,6 km/h (1 Bft) S-SW 206 0 min 0,000 mm 0,0 UV-I 0 W/m 14,7 C 18,2 C 3,2 km/h (1 Bft) 95,74 %
27.08.2017 03:52 18,2 C 24,4 C 80 % 1014,0 hPa 0,0 l/m 2,0 km/h (1 Bft) S-SW 206 0 min 0,000 mm 0,0 UV-I 0 W/m 14,7 C 18,2 C 3,2 km/h (1 Bft) 97,87 %
27.08.2017 03:54 18,1 C 24,4 C 80 % 1014,0 hPa 0,0 l/m 1,5 km/h (1 Bft) S-SW 205 0 min 0,000 mm 0,0 UV-I 0 W/m 14,6 C 18,1 C 4,8 km/h (1 Bft) 97,87 %
27.08.2017 03:56 18,0 C 24,4 C 81 % 1014,0 hPa 0,0 l/m 4,3 km/h (1 Bft) S 182 0 min 0,000 mm 0,0 UV-I 0 W/m 14,7 C 18,0 C 8,0 km/h (2 Bft) 91,67 %
27.08.2017 03:58 18,0 C 24,4 C 80 % 1014,0 hPa 0,0 l/m 3,1 km/h (1 Bft) S 185 0 min 0,000 mm 0,0 UV-I 0 W/m 14,5 C 18,0 C 6,4 km/h (2 Bft) 96,92 %
27.08.2017 04:00 18,0 C 24,4 C 81 % 1014,0 hPa 0,0 l/m 3,9 km/h (1 Bft) S 182 0 min 0,025 mm 0,0 UV-I 0 W/m 14,7 C 18,0 C 6,4 km/h (2 Bft) 97,87 %
27.08.2017 04:02 18,0 C 24,4 C 80 % 1014,0 hPa 0,0 l/m 4,3 km/h (1 Bft) S 177 0 min 0,000 mm 0,0 UV-I 0 W/m 14,5 C 18,0 C 8,0 km/h (2 Bft) 95,00 %
27.08.2017 04:04 18,0 C 24,4 C 80 % 1014,0 hPa 0,0 l/m 4,1 km/h (1 Bft) S 182 0 min 0,000 mm 0,0 UV-I 0 W/m 14,5 C 18,0 C 6,4 km/h (2 Bft) 97,56 %
27.08.2017 04:06 18,0 C 24,4 C 81 % 1014,1 hPa 0,0 l/m 4,2 km/h (1 Bft) S 184 0 min 0,000 mm 0,0 UV-I 0 W/m 14,7 C 18,0 C 8,0 km/h (2 Bft) 95,83 %
27.08.2017 04:08 17,9 C 24,4 C 81 % 1014,1 hPa 0,0 l/m 4,5 km/h (1 Bft) S-SW 199 0 min 0,000 mm 0,0 UV-I 0 W/m 14,6 C 17,9 C 6,4 km/h (2 Bft) 97,87 %
27.08.2017 04:10 17,9 C 24,4 C 81 % 1014,1 hPa 0,0 l/m 4,3 km/h (1 Bft) S-SW 200 0 min 0,000 mm 0,0 UV-I 0 W/m 14,6 C 17,9 C 6,4 km/h (2 Bft) 93,62 %
27.08.2017 04:12 17,8 C 24,4 C 81 % 1014,1 hPa 0,0 l/m 4,4 km/h (1 Bft) S 191 0 min 0,000 mm 0,0 UV-I 0 W/m 14,5 C 17,8 C 6,4 km/h (2 Bft) 97,87 %
27.08.2017 04:14 17,8 C 23,9 C 82 % 1014,1 hPa 0,0 l/m 3,2 km/h (1 Bft) S 188 0 min 0,000 mm 0,0 UV-I 0 W/m 14,7 C 17,8 C 6,4 km/h (2 Bft) 97,87 %
27.08.2017 04:16 17,8 C 23,9 C 82 % 1014,1 hPa 0,0 l/m 2,9 km/h (1 Bft) S 186 0 min 0,000 mm 0,0 UV-I 0 W/m 14,7 C 17,8 C 4,8 km/h (1 Bft) 98,00 %
27.08.2017 04:18 17,8 C 23,9 C 82 % 1014,1 hPa 0,0 l/m 3,0 km/h (1 Bft) S 184 0 min 0,000 mm 0,0 UV-I 0 W/m 14,7 C 17,8 C 4,8 km/h (1 Bft) 97,87 %
27.08.2017 04:20 17,7 C 23,9 C 82 % 1014,1 hPa 0,0 l/m 3,2 km/h (1 Bft) S 184 0 min 0,000 mm 0,0 UV-I 0 W/m 14,6 C 17,7 C 4,8 km/h (1 Bft) 97,87 %
27.08.2017 04:22 17,7 C 23,9 C 82 % 1014,1 hPa 0,0 l/m 4,9 km/h (1 Bft) S 184 0 min 0,000 mm 0,0 UV-I 0 W/m 14,6 C 17,7 C 6,4 km/h (2 Bft) 97,87 %
27.08.2017 04:24 17,8 C 23,9 C 82 % 1014,1 hPa 0,0 l/m 5,8 km/h (2 Bft) S-SW 199 0 min 0,000 mm 0,0 UV-I 0 W/m 14,7 C 17,8 C 8,0 km/h (2 Bft) 95,74 %
27.08.2017 04:26 17,8 C 23,9 C 82 % 1014,1 hPa 0,0 l/m 4,0 km/h (1 Bft) S-SW 198 0 min 0,000 mm 0,0 UV-I 0 W/m 14,7 C 17,8 C 8,0 km/h (2 Bft) 95,74 %
27.08.2017 04:28 17,7 C 23,9 C 82 % 1014,0 hPa 0,0 l/m 3,0 km/h (1 Bft) S-SW 198 0 min 0,000 mm 0,0 UV-I 0 W/m 14,6 C 17,7 C 4,8 km/h (1 Bft) 97,87 %
27.08.2017 04:30 17,7 C 23,9 C 82 % 1014,0 hPa 0,0 l/m 5,3 km/h (1 Bft) S-SW 198 0 min 0,000 mm 0,0 UV-I 0 W/m 14,6 C 17,7 C 8,0 km/h (2 Bft) 93,62 %
27.08.2017 04:32 17,7 C 23,9 C 82 % 1014,1 hPa 0,0 l/m 4,2 km/h (1 Bft) S 190 0 min 0,000 mm 0,0 UV-I 0 W/m 14,6 C 17,7 C 6,4 km/h (2 Bft) 97,87 %
27.08.2017 04:34 17,7 C 23,9 C 82 % 1014,0 hPa 0,0 l/m 4,5 km/h (1 Bft) S 173 0 min 0,000 mm 0,0 UV-I 0 W/m 14,6 C 17,7 C 8,0 km/h (2 Bft) 97,92 %
27.08.2017 04:36 17,6 C 23,9 C 83 % 1014,1 hPa 0,0 l/m 3,9 km/h (1 Bft) S 173 0 min 0,000 mm 0,0 UV-I 0 W/m 14,7 C 17,6 C 8,0 km/h (2 Bft) 97,92 %
27.08.2017 04:38 17,6 C 23,9 C 83 % 1014,1 hPa 0,0 l/m 3,2 km/h (1 Bft) S 174 0 min 0,000 mm 0,0 UV-I 0 W/m 14,7 C 17,6 C 8,0 km/h (2 Bft) 93,62 %
27.08.2017 04:40 17,6 C 23,9 C 83 % 1014,1 hPa 0,0 l/m 3,1 km/h (1 Bft) S 174 0 min 0,000 mm 0,0 UV-I 0 W/m 14,7 C 17,6 C 4,8 km/h (1 Bft) 94,00 %
27.08.2017 04:42 17,6 C 23,9 C 83 % 1014,1 hPa 0,0 l/m 5,7 km/h (1 Bft) S 191 0 min 0,000 mm 0,0 UV-I 0 W/m 14,7 C 17,6 C 8,0 km/h (2 Bft) 97,14 %
27.08.2017 04:44 17,6 C 23,9 C 83 % 1014,1 hPa 0,0 l/m 4,3 km/h (1 Bft) S 188 0 min 0,000 mm 0,0 UV-I 0 W/m 14,7 C 17,6 C 6,4 km/h (2 Bft) 93,75 %
27.08.2017 04:46 17,6 C 23,9 C 83 % 1014,0 hPa 0,0 l/m 2,7 km/h (1 Bft) S 179 0 min 0,000 mm 0,0 UV-I 0 W/m 14,7 C 17,6 C 4,8 km/h (1 Bft) 91,67 %
27.08.2017 04:48 17,6 C 23,9 C 83 % 1014,0 hPa 0,0 l/m 1,5 km/h (1 Bft) S 179 0 min 0,000 mm 0,0 UV-I 0 W/m 14,7 C 17,6 C 3,2 km/h (1 Bft) 91,49 %
27.08.2017 04:50 17,6 C 23,9 C 83 % 1014,1 hPa 0,0 l/m 2,8 km/h (1 Bft) S 178 0 min 0,000 mm 0,0 UV-I 0 W/m 14,7 C 17,6 C 4,8 km/h (1 Bft) 95,74 %
27.08.2017 04:52 17,6 C 23,9 C 83 % 1014,1 hPa 0,0 l/m 2,5 km/h (1 Bft) S 178 0 min 0,000 mm 0,0 UV-I 0 W/m 14,7 C 17,6 C 6,4 km/h (2 Bft) 97,87 %
27.08.2017 04:54 17,6 C 23,9 C 83 % 1014,1 hPa 0,0 l/m 3,7 km/h (1 Bft) S 178 0 min 0,000 mm 0,0 UV-I 0 W/m 14,7 C 17,6 C 4,8 km/h (1 Bft) 96,00 %
27.08.2017 04:56 17,6 C 23,9 C 83 % 1014,1 hPa 0,0 l/m 4,5 km/h (1 Bft) S 180 0 min 0,000 mm 0,0 UV-I 0 W/m 14,7 C 17,6 C 6,4 km/h (2 Bft) 97,87 %
27.08.2017 04:58 17,4 C 23,9 C 83 % 1014,1 hPa 0,0 l/m 3,0 km/h (1 Bft) S 180 0 min 0,000 mm 0,0 UV-I 0 W/m 14,5 C 17,4 C 4,8 km/h (1 Bft) 96,00 %
27.08.2017 05:00 17,3 C 23,9 C 83 % 1014,0 hPa 0,0 l/m 2,9 km/h (1 Bft) S 180 0 min 0,025 mm 0,0 UV-I 0 W/m 14,4 C 17,3 C 4,8 km/h (1 Bft) 89,36 %
27.08.2017 05:02 17,3 C 23,9 C 84 % 1014,0 hPa 0,0 l/m 4,2 km/h (1 Bft) S 181 0 min 0,000 mm 0,0 UV-I 0 W/m 14,6 C 17,3 C 6,4 km/h (2 Bft) 93,62 %
27.08.2017 05:04 17,2 C 23,9 C 84 % 1014,0 hPa 0,0 l/m 3,7 km/h (1 Bft) S 179 0 min 0,000 mm 0,0 UV-I 0 W/m 14,5 C 17,2 C 4,8 km/h (1 Bft) 97,87 %
27.08.2017 05:06 17,2 C 23,9 C 84 % 1014,0 hPa 0,0 l/m 4,0 km/h (1 Bft) S 180 0 min 0,000 mm 0,0 UV-I 0 W/m 14,5 C 17,2 C 8,0 km/h (2 Bft) 95,74 %
27.08.2017 05:08 17,2 C 23,9 C 84 % 1014,0 hPa 0,0 l/m 2,9 km/h (1 Bft) S 180 0 min 0,000 mm 0,0 UV-I 0 W/m 14,5 C 17,2 C 6,4 km/h (2 Bft) 97,87 %
27.08.2017 05:10 17,2 C 23,9 C 84 % 1014,0 hPa 0,0 l/m 2,9 km/h (1 Bft) S 180 0 min 0,000 mm 0,0 UV-I 0 W/m 14,5 C 17,2 C 4,8 km/h (1 Bft) 97,87 %
27.08.2017 05:12 17,2 C 23,9 C 84 % 1013,9 hPa 0,0 l/m 3,0 km/h (1 Bft) S 179 0 min 0,000 mm 0,0 UV-I 0 W/m 14,5 C 17,2 C 4,8 km/h (1 Bft) 97,87 %
27.08.2017 05:14 17,2 C 23,9 C 84 % 1013,9 hPa 0,0 l/m 2,9 km/h (1 Bft) S 179 0 min 0,000 mm 0,0 UV-I 0 W/m 14,5 C 17,2 C 4,8 km/h (1 Bft) 91,49 %
27.08.2017 05:16 17,3 C 23,9 C 84 % 1013,9 hPa 0,0 l/m 2,9 km/h (1 Bft) S 179 0 min 0,000 mm 0,0 UV-I 0 W/m 14,6 C 17,3 C 4,8 km/h (1 Bft) 97,92 %
27.08.2017 05:18 17,3 C 23,9 C 84 % 1013,9 hPa 0,0 l/m 2,6 km/h (1 Bft) S 179 0 min 0,000 mm 0,0 UV-I 0 W/m 14,6 C 17,3 C 4,8 km/h (1 Bft) 97,14 %
27.08.2017 05:20 17,3 C 23,9 C 83 % 1013,8 hPa 0,0 l/m 2,6 km/h (1 Bft) S 178 0 min 0,000 mm 0,0 UV-I 0 W/m 14,4 C 17,3 C 4,8 km/h (1 Bft) 100,00 %
27.08.2017 05:22 17,3 C 23,9 C 83 % 1013,9 hPa 0,0 l/m 4,0 km/h (1 Bft) S 175 0 min 0,000 mm 0,0 UV-I 0 W/m 14,4 C 17,3 C 8,0 km/h (2 Bft) 100,00 %
27.08.2017 05:24 17,4 C 23,9 C 83 % 1014,0 hPa 0,0 l/m 5,6 km/h (1 Bft) S 170 0 min 0,000 mm 0,0 UV-I 0 W/m 14,5 C 17,4 C 8,0 km/h (2 Bft) 97,92 %
27.08.2017 05:26 17,4 C 23,9 C 83 % 1014,0 hPa 0,0 l/m 5,6 km/h (1 Bft) S-SW 206 0 min 0,000 mm 0,0 UV-I 0 W/m 14,5 C 17,4 C 9,7 km/h (2 Bft) 100,00 %
27.08.2017 05:28 17,4 C 23,9 C 83 % 1014,0 hPa 0,0 l/m 5,1 km/h (1 Bft) S-SW 204 0 min 0,000 mm 0,0 UV-I 0 W/m 14,5 C 17,4 C 6,4 km/h (2 Bft) 100,00 %
27.08.2017 05:30 17,4 C 23,9 C 83 % 1014,1 hPa 0,0 l/m 4,2 km/h (1 Bft) S-SW 203 0 min 0,000 mm 0,0 UV-I 0 W/m 14,5 C 17,4 C 6,4 km/h (2 Bft) 100,00 %
27.08.2017 05:32 17,4 C 23,9 C 83 % 1014,1 hPa 0,0 l/m 4,3 km/h (1 Bft) S-SW 201 0 min 0,000 mm 0,0 UV-I 0 W/m 14,5 C 17,4 C 6,4 km/h (2 Bft) 97,87 %
27.08.2017 05:34 17,3 C 23,9 C 83 % 1014,1 hPa 0,0 l/m 5,1 km/h (1 Bft) S-SW 203 0 min 0,000 mm 0,0 UV-I 0 W/m 14,4 C 17,3 C 8,0 km/h (2 Bft) 97,87 %
27.08.2017 05:36 17,3 C 23,9 C 83 % 1014,1 hPa 0,0 l/m 4,1 km/h (1 Bft) S-SW 202 0 min 0,000 mm 0,0 UV-I 0 W/m 14,4 C 17,3 C 6,4 km/h (2 Bft) 97,87 %
27.08.2017 05:38 17,3 C 23,9 C 83 % 1014,1 hPa 0,0 l/m 4,4 km/h (1 Bft) S-SW 205 0 min 0,000 mm 0,0 UV-I 0 W/m 14,4 C 17,3 C 6,4 km/h (2 Bft) 100,00 %
27.08.2017 05:40 17,3 C 23,9 C 83 % 1014,0 hPa 0,0 l/m 4,3 km/h (1 Bft) S 175 0 min 0,000 mm 0,0 UV-I 0 W/m 14,4 C 17,3 C 9,7 km/h (2 Bft) 100,00 %
27.08.2017 05:42 17,4 C 23,9 C 83 % 1014,1 hPa 0,0 l/m 4,4 km/h (1 Bft) S 184 0 min 0,000 mm 0,0 UV-I 0 W/m 14,5 C 17,4 C 6,4 km/h (2 Bft) 100,00 %
27.08.2017 05:44 17,4 C 23,9 C 83 % 1014,1 hPa 0,0 l/m 3,5 km/h (1 Bft) S 186 0 min 0,000 mm 0,0 UV-I 0 W/m 14,5 C 17,4 C 6,4 km/h (2 Bft) 100,00 %
27.08.2017 05:46 17,5 C 23,9 C 83 % 1014,2 hPa 0,0 l/m 5,4 km/h (1 Bft) S-SW 201 0 min 0,000 mm 0,0 UV-I 0 W/m 14,6 C 17,5 C 8,0 km/h (2 Bft) 97,56 %
27.08.2017 05:48 17,5 C 23,9 C 83 % 1014,2 hPa 0,0 l/m 5,9 km/h (2 Bft) S-SW 206 0 min 0,000 mm 0,0 UV-I 0 W/m 14,6 C 17,5 C 8,0 km/h (2 Bft) 97,87 %
27.08.2017 05:50 17,5 C 23,9 C 83 % 1014,2 hPa 0,0 l/m 5,6 km/h (1 Bft) S-SW 194 0 min 0,000 mm 0,0 UV-I 0 W/m 14,6 C 17,5 C 8,0 km/h (2 Bft) 97,92 %
27.08.2017 05:52 17,5 C 23,9 C 83 % 1014,2 hPa 0,0 l/m 4,2 km/h (1 Bft) S 185 0 min 0,000 mm 0,0 UV-I 0 W/m 14,6 C 17,5 C 8,0 km/h (2 Bft) 100,00 %
27.08.2017 05:54 17,5 C 23,9 C 83 % 1014,2 hPa 0,0 l/m 4,5 km/h (1 Bft) S-SW 196 0 min 0,000 mm 0,0 UV-I 0 W/m 14,6 C 17,5 C 6,4 km/h (2 Bft) 100,00 %
27.08.2017 05:56 17,4 C 23,9 C 83 % 1014,2 hPa 0,0 l/m 4,9 km/h (1 Bft) S-SW 198 0 min 0,000 mm 0,0 UV-I 0 W/m 14,5 C 17,4 C 8,0 km/h (2 Bft) 100,00 %
27.08.2017 05:58 17,4 C 23,9 C 83 % 1014,3 hPa 0,0 l/m 5,9 km/h (2 Bft) S-SW 211 0 min 0,000 mm 0,0 UV-I 1 W/m 14,5 C 17,4 C 9,7 km/h (2 Bft) 100,00 %
27.08.2017 06:00 17,4 C 23,9 C 83 % 1014,3 hPa 0,0 l/m 5,0 km/h (1 Bft) S-SW 199 0 min 0,026 mm 0,0 UV-I 5 W/m 14,5 C 17,4 C 8,0 km/h (2 Bft) 100,00 %
27.08.2017 06:02 17,4 C 23,9 C 83 % 1014,3 hPa 0,0 l/m 5,4 km/h (1 Bft) S-SW 205 0 min 0,000 mm 0,0 UV-I 5 W/m 14,5 C 17,4 C 8,0 km/h (2 Bft) 100,00 %
27.08.2017 06:04 17,4 C 23,9 C 83 % 1014,3 hPa 0,0 l/m 4,2 km/h (1 Bft) SW 218 0 min 0,000 mm 0,0 UV-I 5 W/m 14,5 C 17,4 C 6,4 km/h (2 Bft) 100,00 %
27.08.2017 06:06 17,4 C 23,9 C 83 % 1014,2 hPa 0,0 l/m 3,7 km/h (1 Bft) SW 218 0 min 0,000 mm 0,0 UV-I 5 W/m 14,5 C 17,4 C 6,4 km/h (2 Bft) 98,00 %
27.08.2017 06:08 17,4 C 23,9 C 84 % 1014,2 hPa 0,0 l/m 4,0 km/h (1 Bft) SW 218 0 min 0,000 mm 0,0 UV-I 5 W/m 14,7 C 17,4 C 4,8 km/h (1 Bft) 100,00 %
27.08.2017 06:10 17,4 C 23,9 C 84 % 1014,2 hPa 0,0 l/m 4,2 km/h (1 Bft) SW 221 0 min 0,000 mm 0,0 UV-I 5 W/m 14,7 C 17,4 C 6,4 km/h (2 Bft) 100,00 %
27.08.2017 06:12 17,4 C 23,9 C 84 % 1014,2 hPa 0,0 l/m 3,7 km/h (1 Bft) SW 221 0 min 0,000 mm 0,0 UV-I 5 W/m 14,7 C 17,4 C 4,8 km/h (1 Bft) 97,87 %
27.08.2017 06:14 17,3 C 23,9 C 84 % 1014,2 hPa 0,0 l/m 3,9 km/h (1 Bft) SW 221 0 min 0,000 mm 0,0 UV-I 5 W/m 14,6 C 17,3 C 6,4 km/h (2 Bft) 97,87 %
27.08.2017 06:16 17,3 C 23,9 C 84 % 1014,3 hPa 0,0 l/m 4,2 km/h (1 Bft) SW 221 0 min 0,000 mm 0,0 UV-I 5 W/m 14,6 C 17,3 C 6,4 km/h (2 Bft) 95,74 %
27.08.2017 06:18 17,3 C 23,9 C 84 % 1014,3 hPa 0,0 l/m 4,2 km/h (1 Bft) SW 221 0 min 0,000 mm 0,0 UV-I 6 W/m 14,6 C 17,3 C 6,4 km/h (2 Bft) 100,00 %
27.08.2017 06:20 17,3 C 23,9 C 84 % 1014,2 hPa 0,0 l/m 4,9 km/h (1 Bft) SW 221 0 min 0,000 mm 0,0 UV-I 8 W/m 14,6 C 17,3 C 6,4 km/h (2 Bft) 97,87 %
27.08.2017 06:22 17,3 C 23,9 C 84 % 1014,2 hPa 0,0 l/m 4,1 km/h (1 Bft) SW 221 0 min 0,000 mm 0,0 UV-I 9 W/m 14,6 C 17,3 C 6,4 km/h (2 Bft) 98,00 %
27.08.2017 06:24 17,3 C 23,9 C 84 % 1014,2 hPa 0,0 l/m 3,4 km/h (1 Bft) SW 221 0 min 0,000 mm 0,0 UV-I 11 W/m 14,6 C 17,3 C 4,8 km/h (1 Bft) 100,00 %
27.08.2017 06:26 17,3 C 23,9 C 84 % 1014,3 hPa 0,0 l/m 3,3 km/h (1 Bft) SW 221 2 min 0,000 mm 0,0 UV-I 13 W/m 14,6 C 17,3 C 4,8 km/h (1 Bft) 100,00 %
27.08.2017 06:28 17,3 C 23,9 C 84 % 1014,3 hPa 0,0 l/m 3,7 km/h (1 Bft) SW 221 2 min 0,000 mm 0,0 UV-I 15 W/m 14,6 C 17,3 C 4,8 km/h (1 Bft) 100,00 %
27.08.2017 06:30 17,3 C 23,9 C 84 % 1014,3 hPa 0,0 l/m 3,7 km/h (1 Bft) SW 221 2 min 0,000 mm 0,0 UV-I 18 W/m 14,6 C 17,3 C 6,4 km/h (2 Bft) 100,00 %
27.08.2017 06:32 17,3 C 23,9 C 84 % 1014,3 hPa 0,0 l/m 1,3 km/h (1 Bft) SW 221 2 min 0,000 mm 0,0 UV-I 20 W/m 14,6 C 17,3 C 4,8 km/h (1 Bft) 100,00 %
27.08.2017 06:34 17,3 C 23,9 C 84 % 1014,4 hPa 0,0 l/m 1,7 km/h (1 Bft) SW 221 2 min 0,000 mm 0,0 UV-I 24 W/m 14,6 C 17,3 C 3,2 km/h (1 Bft) 100,00 %
27.08.2017 06:36 17,3 C 23,9 C 84 % 1014,4 hPa 0,0 l/m 1,2 km/h (1 Bft) SW 221 2 min 0,000 mm 0,0 UV-I 26 W/m 14,6 C 17,3 C 4,8 km/h (1 Bft) 100,00 %
27.08.2017 06:38 17,3 C 23,9 C 84 % 1014,5 hPa 0,0 l/m 0,9 km/h (0 Bft) SW 221 2 min 0,000 mm 0,0 UV-I 29 W/m 14,6 C 17,3 C 1,6 km/h (1 Bft) 97,87 %
27.08.2017 06:40 17,3 C 23,9 C 85 % 1014,5 hPa 0,0 l/m 0,5 km/h (0 Bft) SW 221 2 min 0,000 mm 0,0 UV-I 33 W/m 14,8 C 17,3 C 1,6 km/h (1 Bft) 97,87 %
27.08.2017 06:42 17,3 C 23,9 C 85 % 1014,5 hPa 0,0 l/m 1,4 km/h (1 Bft) SW 221 2 min 0,000 mm 0,0 UV-I 37 W/m 14,8 C 17,3 C 3,2 km/h (1 Bft) 100,00 %
27.08.2017 06:44 17,2 C 23,9 C 85 % 1014,4 hPa 0,0 l/m 0,6 km/h (0 Bft) SW 221 0 min 0,000 mm 0,0 UV-I 36 W/m 14,7 C 17,2 C 1,6 km/h (1 Bft) 96,00 %
27.08.2017 06:46 17,2 C 23,9 C 85 % 1014,4 hPa 0,0 l/m 1,5 km/h (1 Bft) SW 221 0 min 0,000 mm 0,0 UV-I 38 W/m 14,7 C 17,2 C 3,2 km/h (1 Bft) 97,87 %
27.08.2017 06:48 17,2 C 23,9 C 85 % 1014,5 hPa 0,0 l/m 2,2 km/h (1 Bft) SW 221 0 min 0,000 mm 0,0 UV-I 41 W/m 14,7 C 17,2 C 4,8 km/h (1 Bft) 97,87 %
27.08.2017 06:50 17,2 C 23,9 C 85 % 1014,5 hPa 0,0 l/m 4,3 km/h (1 Bft) SW 221 0 min 0,000 mm 0,0 UV-I 44 W/m 14,7 C 17,2 C 6,4 km/h (2 Bft) 97,87 %
27.08.2017 06:52 17,2 C 23,9 C 85 % 1014,6 hPa 0,0 l/m 4,7 km/h (1 Bft) SW 220 0 min 0,000 mm 0,0 UV-I 46 W/m 14,7 C 17,2 C 8,0 km/h (2 Bft) 97,37 %
27.08.2017 06:54 17,2 C 23,9 C 85 % 1014,5 hPa 0,0 l/m 4,7 km/h (1 Bft) SW 220 0 min 0,000 mm 0,0 UV-I 47 W/m 14,7 C 17,2 C 6,4 km/h (2 Bft) 97,87 %
27.08.2017 06:56 17,2 C 23,9 C 85 % 1014,5 hPa 0,0 l/m 3,1 km/h (1 Bft) SW 220 0 min 0,000 mm 0,0 UV-I 50 W/m 14,7 C 17,2 C 4,8 km/h (1 Bft) 98,00 %
27.08.2017 06:58 17,2 C 23,9 C 85 % 1014,5 hPa 0,0 l/m 3,1 km/h (1 Bft) SW 219 0 min 0,000 mm 0,0 UV-I 53 W/m 14,7 C 17,2 C 4,8 km/h (1 Bft) 95,74 %
27.08.2017 07:00 17,2 C 23,9 C 85 % 1014,5 hPa 0,0 l/m 2,7 km/h (1 Bft) SW 219 0 min 0,025 mm 0,0 UV-I 57 W/m 14,7 C 17,2 C 4,8 km/h (1 Bft) 97,87 %
27.08.2017 07:02 17,2 C 23,9 C 85 % 1014,5 hPa 0,0 l/m 3,1 km/h (1 Bft) SW 219 0 min 0,000 mm 0,0 UV-I 61 W/m 14,7 C 17,2 C 6,4 km/h (2 Bft) 93,62 %
27.08.2017 07:04 17,2 C 23,9 C 85 % 1014,5 hPa 0,0 l/m 4,4 km/h (1 Bft) SW 215 0 min 0,000 mm 0,0 UV-I 65 W/m 14,7 C 17,2 C 6,4 km/h (2 Bft) 95,74 %
27.08.2017 07:06 17,3 C 23,9 C 85 % 1014,5 hPa 0,0 l/m 3,9 km/h (1 Bft) S-SW 212 2 min 0,000 mm 0,0 UV-I 78 W/m 14,8 C 17,3 C 6,4 km/h (2 Bft) 96,00 %
27.08.2017 07:08 17,3 C 23,9 C 85 % 1014,5 hPa 0,0 l/m 4,7 km/h (1 Bft) S-SW 213 2 min 0,000 mm 0,0 UV-I 87 W/m 14,8 C 17,3 C 6,4 km/h (2 Bft) 97,87 %
27.08.2017 07:10 17,4 C 23,9 C 85 % 1014,5 hPa 0,0 l/m 4,3 km/h (1 Bft) S-SW 203 2 min 0,000 mm 0,0 UV-I 92 W/m 14,8 C 17,4 C 8,0 km/h (2 Bft) 95,74 %
27.08.2017 07:12 17,4 C 23,9 C 84 % 1014,6 hPa 0,0 l/m 3,8 km/h (1 Bft) S-SW 203 2 min 0,000 mm 0,0 UV-I 96 W/m 14,7 C 17,4 C 6,4 km/h (2 Bft) 93,75 %
27.08.2017 07:14 17,4 C 23,9 C 84 % 1014,6 hPa 0,0 l/m 4,7 km/h (1 Bft) S-SW 203 2 min 0,000 mm 0,0 UV-I 102 W/m 14,7 C 17,4 C 6,4 km/h (2 Bft) 97,87 %
27.08.2017 07:16 17,5 C 23,9 C 84 % 1014,6 hPa 0,0 l/m 4,0 km/h (1 Bft) SW 217 2 min 0,000 mm 0,0 UV-I 109 W/m 14,8 C 17,5 C 8,0 km/h (2 Bft) 93,62 %
27.08.2017 07:18 17,6 C 23,9 C 84 % 1014,5 hPa 0,0 l/m 3,9 km/h (1 Bft) S-SW 205 2 min 0,000 mm 0,0 UV-I 114 W/m 14,9 C 17,6 C 8,0 km/h (2 Bft) 100,00 %
27.08.2017 07:20 17,6 C 23,9 C 84 % 1014,5 hPa 0,0 l/m 3,7 km/h (1 Bft) S-SW 213 2 min 0,000 mm 0,0 UV-I 118 W/m 14,9 C 17,6 C 6,4 km/h (2 Bft) 98,00 %
27.08.2017 07:22 17,7 C 23,9 C 83 % 1014,5 hPa 0,0 l/m 1,8 km/h (1 Bft) S-SW 192 2 min 0,000 mm 0,0 UV-I 120 W/m 14,8 C 17,7 C 4,8 km/h (1 Bft) 100,00 %
27.08.2017 07:24 17,8 C 23,9 C 83 % 1014,6 hPa 0,0 l/m 3,3 km/h (1 Bft) S-SW 192 2 min 0,000 mm 0,0 UV-I 122 W/m 14,9 C 17,8 C 8,0 km/h (2 Bft) 100,00 %
27.08.2017 07:26 17,8 C 23,9 C 83 % 1014,6 hPa 0,0 l/m 3,9 km/h (1 Bft) S-SW 192 2 min 0,000 mm 0,0 UV-I 123 W/m 14,9 C 17,8 C 4,8 km/h (1 Bft) 97,87 %
27.08.2017 07:28 17,9 C 23,9 C 83 % 1014,6 hPa 0,0 l/m 4,1 km/h (1 Bft) S-SW 192 2 min 0,000 mm 0,0 UV-I 109 W/m 15,0 C 17,9 C 6,4 km/h (2 Bft) 88,57 %
27.08.2017 07:30 17,9 C 23,9 C 83 % 1014,6 hPa 0,0 l/m 4,6 km/h (1 Bft) S-SW 211 0 min 0,000 mm 0,0 UV-I 94 W/m 15,0 C 17,9 C 6,4 km/h (2 Bft) 95,74 %
27.08.2017 07:32 18,0 C 23,9 C 83 % 1014,7 hPa 0,0 l/m 5,0 km/h (1 Bft) SW 217 0 min 0,000 mm 0,0 UV-I 89 W/m 15,1 C 18,0 C 8,0 km/h (2 Bft) 95,74 %
27.08.2017 07:34 18,0 C 23,9 C 83 % 1014,7 hPa 0,0 l/m 5,4 km/h (1 Bft) SW 215 0 min 0,000 mm 0,0 UV-I 87 W/m 15,1 C 18,0 C 8,0 km/h (2 Bft) 97,87 %
27.08.2017 07:36 18,0 C 23,9 C 82 % 1014,7 hPa 0,0 l/m 5,3 km/h (1 Bft) S-SW 213 0 min 0,000 mm 0,0 UV-I 110 W/m 14,9 C 18,0 C 8,0 km/h (2 Bft) 97,87 %
27.08.2017 07:38 18,0 C 23,9 C 82 % 1014,7 hPa 0,0 l/m 5,8 km/h (2 Bft) S-SW 211 0 min 0,000 mm 0,0 UV-I 89 W/m 14,9 C 18,0 C 8,0 km/h (2 Bft) 93,62 %
27.08.2017 07:40 18,1 C 23,9 C 82 % 1014,7 hPa 0,0 l/m 5,6 km/h (1 Bft) S-SW 211 0 min 0,000 mm 0,0 UV-I 116 W/m 15,0 C 18,1 C 8,0 km/h (2 Bft) 97,87 %
27.08.2017 07:42 18,1 C 23,9 C 82 % 1014,6 hPa 0,0 l/m 2,6 km/h (1 Bft) S 182 0 min 0,000 mm 0,0 UV-I 108 W/m 15,0 C 18,1 C 8,0 km/h (2 Bft) 95,74 %
27.08.2017 07:44 18,1 C 23,9 C 82 % 1014,5 hPa 0,0 l/m 3,3 km/h (1 Bft) S 178 2 min 0,000 mm 0,0 UV-I 142 W/m 15,0 C 18,1 C 6,4 km/h (2 Bft) 95,74 %
27.08.2017 07:46 18,1 C 23,9 C 82 % 1014,5 hPa 0,0 l/m 4,2 km/h (1 Bft) S-SW 199 2 min 0,000 mm 0,0 UV-I 148 W/m 15,0 C 18,1 C 8,0 km/h (2 Bft) 97,92 %
27.08.2017 07:48 18,2 C 23,9 C 82 % 1014,5 hPa 0,0 l/m 4,4 km/h (1 Bft) S-SW 199 0 min 0,000 mm 0,0 UV-I 129 W/m 15,1 C 18,2 C 6,4 km/h (2 Bft) 95,74 %
27.08.2017 07:50 18,3 C 23,9 C 82 % 1014,6 hPa 0,0 l/m 5,2 km/h (1 Bft) S-SW 203 0 min 0,000 mm 0,0 UV-I 92 W/m 15,2 C 18,3 C 8,0 km/h (2 Bft) 95,74 %
27.08.2017 07:52 18,3 C 23,9 C 82 % 1014,6 hPa 0,0 l/m 6,2 km/h (2 Bft) S-SW 209 0 min 0,000 mm 0,0 UV-I 127 W/m 15,2 C 18,3 C 8,0 km/h (2 Bft) 96,00 %
27.08.2017 07:54 18,3 C 23,9 C 81 % 1014,6 hPa 0,0 l/m 5,2 km/h (1 Bft) S-SW 208 2 min 0,000 mm 0,0 UV-I 168 W/m 15,0 C 18,3 C 8,0 km/h (2 Bft) 97,87 %
27.08.2017 07:56 18,4 C 23,9 C 82 % 1014,6 hPa 0,0 l/m 3,6 km/h (1 Bft) S-SW 208 2 min 0,000 mm 0,0 UV-I 187 W/m 15,3 C 18,4 C 4,8 km/h (1 Bft) 97,87 %
27.08.2017 07:58 18,5 C 23,9 C 82 % 1014,6 hPa 0,0 l/m 3,0 km/h (1 Bft) S-SW 208 2 min 0,000 mm 0,0 UV-I 199 W/m 15,4 C 18,5 C 6,4 km/h (2 Bft) 93,62 %
27.08.2017 08:00 18,6 C 23,9 C 81 % 1014,6 hPa 0,0 l/m 2,6 km/h (1 Bft) S-SW 208 2 min 0,076 mm 0,0 UV-I 203 W/m 15,3 C 18,6 C 4,8 km/h (1 Bft) 96,00 %
27.08.2017 08:02 18,7 C 23,9 C 81 % 1014,7 hPa 0,0 l/m 3,1 km/h (1 Bft) S-SW 208 2 min 0,000 mm 0,0 UV-I 209 W/m 15,4 C 18,7 C 4,8 km/h (1 Bft) 95,74 %
27.08.2017 08:04 18,8 C 23,9 C 81 % 1014,8 hPa 0,0 l/m 5,1 km/h (1 Bft) S-SW 208 2 min 0,000 mm 0,0 UV-I 218 W/m 15,5 C 18,8 C 6,4 km/h (2 Bft) 97,37 %
27.08.2017 08:06 18,9 C 23,9 C 81 % 1014,8 hPa 0,0 l/m 4,0 km/h (1 Bft) S-SW 208 2 min 0,000 mm 0,4 UV-I 227 W/m 15,6 C 18,9 C 6,4 km/h (2 Bft) 97,87 %
27.08.2017 08:08 19,0 C 23,9 C 81 % 1014,7 hPa 0,0 l/m 2,7 km/h (1 Bft) S-SW 208 2 min 0,000 mm 0,5 UV-I 234 W/m 15,7 C 19,0 C 4,8 km/h (1 Bft) 97,87 %
27.08.2017 08:10 19,2 C 23,9 C 81 % 1014,7 hPa 0,0 l/m 2,7 km/h (1 Bft) S-SW 208 2 min 0,000 mm 0,5 UV-I 240 W/m 15,9 C 19,2 C 6,4 km/h (2 Bft) 98,00 %
27.08.2017 08:12 19,2 C 23,9 C 79 % 1014,7 hPa 0,0 l/m 2,6 km/h (1 Bft) S 187 2 min 0,000 mm 0,5 UV-I 247 W/m 15,5 C 19,2 C 8,0 km/h (2 Bft) 95,74 %
27.08.2017 08:14 19,2 C 23,9 C 78 % 1014,7 hPa 0,0 l/m 5,4 km/h (1 Bft) S-SW 194 2 min 0,000 mm 0,5 UV-I 255 W/m 15,3 C 19,2 C 8,0 km/h (2 Bft) 95,74 %
27.08.2017 08:16 19,4 C 23,9 C 79 % 1014,7 hPa 0,0 l/m 3,7 km/h (1 Bft) S-SW 194 2 min 0,000 mm 0,6 UV-I 264 W/m 15,7 C 19,4 C 8,0 km/h (2 Bft) 95,74 %
27.08.2017 08:18 19,6 C 23,9 C 79 % 1014,6 hPa 0,0 l/m 5,9 km/h (2 Bft) S-SW 210 2 min 0,000 mm 0,6 UV-I 270 W/m 15,9 C 19,6 C 9,7 km/h (2 Bft) 95,74 %
27.08.2017 08:20 19,7 C 23,9 C 77 % 1014,6 hPa 0,0 l/m 7,2 km/h (2 Bft) S-SW 192 2 min 0,000 mm 0,6 UV-I 276 W/m 15,5 C 19,4 C 11,3 km/h (2 Bft) 95,74 %
27.08.2017 08:22 19,7 C 23,9 C 78 % 1014,6 hPa 0,0 l/m 3,7 km/h (1 Bft) SW 221 2 min 0,000 mm 0,6 UV-I 281 W/m 15,8 C 19,7 C 6,4 km/h (2 Bft) 97,87 %
27.08.2017 08:24 19,8 C 23,9 C 78 % 1014,7 hPa 0,0 l/m 4,8 km/h (1 Bft) SW 225 2 min 0,000 mm 0,6 UV-I 288 W/m 15,8 C 19,8 C 8,0 km/h (2 Bft) 93,62 %
27.08.2017 08:26 19,9 C 23,9 C 77 % 1014,7 hPa 0,0 l/m 7,9 km/h (2 Bft) S-SW 208 2 min 0,000 mm 0,7 UV-I 294 W/m 15,7 C 19,3 C 11,3 km/h (2 Bft) 95,83 %
27.08.2017 08:28 20,1 C 23,9 C 77 % 1014,7 hPa 0,0 l/m 4,3 km/h (1 Bft) SW 217 2 min 0,000 mm 0,7 UV-I 300 W/m 15,9 C 20,1 C 8,0 km/h (2 Bft) 97,87 %
27.08.2017 08:30 20,1 C 23,9 C 76 % 1014,7 hPa 0,0 l/m 5,8 km/h (2 Bft) S-SW 212 2 min 0,000 mm 0,7 UV-I 307 W/m 15,7 C 20,1 C 8,0 km/h (2 Bft) 100,00 %
27.08.2017 08:32 20,2 C 23,9 C 77 % 1014,7 hPa 0,0 l/m 5,4 km/h (1 Bft) SW 223 2 min 0,000 mm 0,8 UV-I 310 W/m 16,0 C 20,2 C 8,0 km/h (2 Bft) 97,92 %
27.08.2017 08:34 20,3 C 23,9 C 75 % 1014,7 hPa 0,0 l/m 4,3 km/h (1 Bft) W-SW 243 2 min 0,000 mm 0,8 UV-I 316 W/m 15,7 C 20,3 C 6,4 km/h (2 Bft) 100,00 %
27.08.2017 08:36 20,3 C 23,9 C 75 % 1014,7 hPa 0,0 l/m 4,0 km/h (1 Bft) SW 232 2 min 0,000 mm 0,8 UV-I 320 W/m 15,7 C 20,3 C 6,4 km/h (2 Bft) 100,00 %
27.08.2017 08:38 20,3 C 23,9 C 75 % 1014,7 hPa 0,0 l/m 6,1 km/h (2 Bft) W-SW 238 2 min 0,000 mm 0,8 UV-I 325 W/m 15,7 C 20,3 C 8,0 km/h (2 Bft) 97,87 %
27.08.2017 08:40 20,4 C 23,9 C 75 % 1014,8 hPa 0,0 l/m 4,3 km/h (1 Bft) W-SW 239 2 min 0,000 mm 0,8 UV-I 329 W/m 15,8 C 20,4 C 6,4 km/h (2 Bft) 97,87 %
27.08.2017 08:42 20,5 C 23,9 C 75 % 1014,7 hPa 0,0 l/m 3,3 km/h (1 Bft) SW 220 2 min 0,000 mm 0,9 UV-I 335 W/m 15,9 C 20,5 C 4,8 km/h (1 Bft) 97,87 %
27.08.2017 08:44 20,7 C 23,9 C 75 % 1014,8 hPa 0,0 l/m 4,5 km/h (1 Bft) SW 229 2 min 0,000 mm 0,9 UV-I 340 W/m 16,1 C 20,7 C 8,0 km/h (2 Bft) 97,87 %
27.08.2017 08:46 20,8 C 23,9 C 75 % 1014,7 hPa 0,0 l/m 4,8 km/h (1 Bft) SW 218 2 min 0,000 mm 0,9 UV-I 344 W/m 16,2 C 20,8 C 8,0 km/h (2 Bft) 97,87 %
27.08.2017 08:48 20,8 C 23,9 C 74 % 1014,8 hPa 0,0 l/m 5,9 km/h (2 Bft) SW 215 2 min 0,000 mm 1,0 UV-I 347 W/m 16,0 C 20,8 C 8,0 km/h (2 Bft) 93,75 %
27.08.2017 08:50 20,9 C 23,9 C 74 % 1014,8 hPa 0,0 l/m 6,0 km/h (2 Bft) W-SW 246 2 min 0,000 mm 1,0 UV-I 356 W/m 16,1 C 20,9 C 8,0 km/h (2 Bft) 97,87 %
27.08.2017 08:52 21,1 C 23,9 C 73 % 1014,8 hPa 0,0 l/m 4,4 km/h (1 Bft) SW 216 2 min 0,000 mm 1,0 UV-I 361 W/m 16,1 C 21,1 C 6,4 km/h (2 Bft) 98,00 %
27.08.2017 08:54 21,1 C 23,9 C 73 % 1014,8 hPa 0,0 l/m 4,3 km/h (1 Bft) SW 236 2 min 0,000 mm 1,1 UV-I 368 W/m 16,1 C 21,1 C 6,4 km/h (2 Bft) 95,74 %
27.08.2017 08:56 21,1 C 23,9 C 72 % 1014,8 hPa 0,0 l/m 6,0 km/h (2 Bft) SW 215 2 min 0,000 mm 1,1 UV-I 375 W/m 15,8 C 21,1 C 8,0 km/h (2 Bft) 98,00 %
27.08.2017 08:58 21,2 C 23,9 C 72 % 1014,8 hPa 0,0 l/m 4,8 km/h (1 Bft) SW 229 2 min 0,000 mm 1,1 UV-I 380 W/m 15,9 C 21,2 C 8,0 km/h (2 Bft) 100,00 %
27.08.2017 09:00 21,3 C 23,9 C 72 % 1014,9 hPa 0,0 l/m 5,7 km/h (1 Bft) SW 217 2 min 0,204 mm 1,2 UV-I 380 W/m 16,0 C 21,3 C 8,0 km/h (2 Bft) 93,62 %
27.08.2017 09:02 21,4 C 23,9 C 72 % 1014,8 hPa 0,0 l/m 5,3 km/h (1 Bft) SW 225 2 min 0,000 mm 1,2 UV-I 386 W/m 16,1 C 21,4 C 8,0 km/h (2 Bft) 95,74 %
27.08.2017 09:04 21,5 C 23,9 C 73 % 1014,8 hPa 0,0 l/m 3,6 km/h (1 Bft) SW 225 2 min 0,000 mm 1,2 UV-I 389 W/m 16,4 C 21,5 C 6,4 km/h (2 Bft) 100,00 %
27.08.2017 09:06 21,6 C 23,9 C 71 % 1014,8 hPa 0,0 l/m 4,1 km/h (1 Bft) SW 217 2 min 0,000 mm 1,2 UV-I 394 W/m 16,1 C 21,6 C 6,4 km/h (2 Bft) 95,74 %
27.08.2017 09:08 21,6 C 23,9 C 71 % 1014,8 hPa 0,0 l/m 5,2 km/h (1 Bft) S-SW 213 2 min 0,000 mm 1,3 UV-I 395 W/m 16,1 C 21,6 C 8,0 km/h (2 Bft) 97,87 %
27.08.2017 09:10 21,6 C 23,9 C 70 % 1014,8 hPa 0,0 l/m 4,5 km/h (1 Bft) W-SW 240 2 min 0,000 mm 1,3 UV-I 405 W/m 15,9 C 21,6 C 6,4 km/h (2 Bft) 98,11 %
27.08.2017 09:12 21,6 C 23,9 C 70 % 1014,8 hPa 0,0 l/m 4,6 km/h (1 Bft) SW 217 2 min 0,000 mm 1,3 UV-I 411 W/m 15,9 C 21,6 C 6,4 km/h (2 Bft) 97,92 %
27.08.2017 09:14 21,7 C 23,9 C 71 % 1014,8 hPa 0,0 l/m 4,4 km/h (1 Bft) SW 215 2 min 0,000 mm 1,4 UV-I 417 W/m 16,2 C 21,7 C 6,4 km/h (2 Bft) 100,00 %
27.08.2017 09:16 21,8 C 23,9 C 69 % 1014,8 hPa 0,0 l/m 4,8 km/h (1 Bft) S-SW 211 2 min 0,000 mm 1,4 UV-I 421 W/m 15,9 C 21,8 C 6,4 km/h (2 Bft) 100,00 %
27.08.2017 09:18 21,9 C 23,9 C 70 % 1014,8 hPa 0,0 l/m 2,4 km/h (1 Bft) S-SW 211 2 min 0,000 mm 1,4 UV-I 425 W/m 16,2 C 21,9 C 4,8 km/h (1 Bft) 97,87 %
27.08.2017 09:20 22,1 C 23,9 C 69 % 1014,8 hPa 0,0 l/m 2,7 km/h (1 Bft) S-SW 211 2 min 0,000 mm 1,5 UV-I 429 W/m 16,1 C 22,1 C 6,4 km/h (2 Bft) 100,00 %
27.08.2017 09:22 22,2 C 23,9 C 69 % 1014,8 hPa 0,0 l/m 1,1 km/h (1 Bft) S-SW 211 2 min 0,000 mm 1,5 UV-I 434 W/m 16,2 C 22,2 C 3,2 km/h (1 Bft) 100,00 %
27.08.2017 09:24 22,2 C 23,9 C 66 % 1014,8 hPa 0,0 l/m 2,3 km/h (1 Bft) S-SW 211 2 min 0,000 mm 1,5 UV-I 441 W/m 15,5 C 22,2 C 4,8 km/h (1 Bft) 100,00 %
27.08.2017 09:26 22,2 C 23,9 C 68 % 1014,8 hPa 0,0 l/m 1,1 km/h (1 Bft) S-SW 211 2 min 0,000 mm 1,6 UV-I 450 W/m 16,0 C 22,2 C 3,2 km/h (1 Bft) 100,00 %
27.08.2017 09:28 22,2 C 23,9 C 68 % 1014,8 hPa 0,0 l/m 2,6 km/h (1 Bft) S-SW 211 2 min 0,000 mm 1,6 UV-I 455 W/m 16,0 C 22,2 C 4,8 km/h (1 Bft) 95,74 %
27.08.2017 09:30 22,3 C 23,9 C 68 % 1014,8 hPa 0,0 l/m 1,2 km/h (1 Bft) S-SW 211 2 min 0,000 mm 1,7 UV-I 458 W/m 16,1 C 22,3 C 3,2 km/h (1 Bft) 100,00 %
27.08.2017 09:32 22,4 C 23,9 C 66 % 1014,9 hPa 0,0 l/m 0,4 km/h (0 Bft) S-SW 211 2 min 0,000 mm 1,7 UV-I 461 W/m 15,7 C 22,4 C 1,6 km/h (1 Bft) 100,00 %
27.08.2017 09:34 22,4 C 23,9 C 66 % 1014,9 hPa 0,0 l/m 1,2 km/h (1 Bft) S-SW 213 2 min 0,000 mm 1,7 UV-I 464 W/m 15,7 C 22,4 C 3,2 km/h (1 Bft) 97,87 %
27.08.2017 09:36 22,4 C 23,9 C 66 % 1014,9 hPa 0,0 l/m 2,1 km/h (1 Bft) S-SW 213 2 min 0,000 mm 1,8 UV-I 466 W/m 15,7 C 22,4 C 4,8 km/h (1 Bft) 100,00 %
27.08.2017 09:38 22,5 C 23,9 C 66 % 1014,9 hPa 0,0 l/m 3,3 km/h (1 Bft) S-SW 213 2 min 0,000 mm 1,8 UV-I 469 W/m 15,8 C 22,5 C 4,8 km/h (1 Bft) 100,00 %
27.08.2017 09:40 22,6 C 23,9 C 66 % 1014,9 hPa 0,0 l/m 1,8 km/h (1 Bft) S-SW 213 2 min 0,000 mm 1,8 UV-I 472 W/m 15,9 C 22,6 C 4,8 km/h (1 Bft) 100,00 %
27.08.2017 09:42 22,7 C 23,9 C 66 % 1015,0 hPa 0,0 l/m 2,5 km/h (1 Bft) S-SW 213 2 min 0,000 mm 1,9 UV-I 480 W/m 16,0 C 22,7 C 6,4 km/h (2 Bft) 100,00 %
27.08.2017 09:44 22,8 C 23,9 C 65 % 1015,0 hPa 0,0 l/m 3,2 km/h (1 Bft) SW 215 2 min 0,000 mm 1,9 UV-I 485 W/m 15,9 C 22,8 C 4,8 km/h (1 Bft) 97,87 %
27.08.2017 09:46 22,9 C 23,9 C 64 % 1015,0 hPa 0,0 l/m 2,3 km/h (1 Bft) SW 215 2 min 0,000 mm 1,9 UV-I 491 W/m 15,7 C 22,9 C 4,8 km/h (1 Bft) 100,00 %
27.08.2017 09:48 22,9 C 23,9 C 64 % 1015,0 hPa 0,0 l/m 2,2 km/h (1 Bft) W-SW 241 2 min 0,000 mm 2,0 UV-I 491 W/m 15,7 C 22,9 C 6,4 km/h (2 Bft) 100,00 %
27.08.2017 09:50 23,0 C 23,9 C 65 % 1015,0 hPa 0,0 l/m 2,2 km/h (1 Bft) W-SW 248 2 min 0,000 mm 2,0 UV-I 494 W/m 16,1 C 23,0 C 6,4 km/h (2 Bft) 100,00 %
27.08.2017 09:52 23,0 C 23,9 C 64 % 1015,0 hPa 0,0 l/m 2,6 km/h (1 Bft) W-SW 242 2 min 0,000 mm 2,0 UV-I 498 W/m 15,8 C 23,0 C 6,4 km/h (2 Bft) 100,00 %
27.08.2017 09:54 23,1 C 23,9 C 65 % 1015,0 hPa 0,0 l/m 4,1 km/h (1 Bft) W-SW 242 2 min 0,000 mm 2,1 UV-I 504 W/m 16,2 C 23,1 C 6,4 km/h (2 Bft) 100,00 %
27.08.2017 09:56 23,3 C 23,9 C 65 % 1015,1 hPa 0,0 l/m 3,4 km/h (1 Bft) W-SW 242 2 min 0,000 mm 2,1 UV-I 511 W/m 16,3 C 23,3 C 4,8 km/h (1 Bft) 100,00 %
27.08.2017 09:58 23,3 C 23,9 C 63 % 1015,0 hPa 0,0 l/m 2,7 km/h (1 Bft) S-SW 194 2 min 0,000 mm 2,2 UV-I 517 W/m 15,9 C 23,3 C 4,8 km/h (1 Bft) 100,00 %
27.08.2017 10:00 23,3 C 23,9 C 66 % 1015,0 hPa 0,0 l/m 2,0 km/h (1 Bft) S-SW 194 2 min 0,279 mm 2,2 UV-I 521 W/m 16,6 C 23,3 C 3,2 km/h (1 Bft) 98,00 %
27.08.2017 10:02 23,3 C 23,9 C 65 % 1015,0 hPa 0,0 l/m 2,4 km/h (1 Bft) S-SW 194 2 min 0,000 mm 2,2 UV-I 526 W/m 16,3 C 23,3 C 4,8 km/h (1 Bft) 93,62 %
27.08.2017 10:04 23,3 C 23,9 C 64 % 1015,0 hPa 0,0 l/m 2,9 km/h (1 Bft) S-SW 209 2 min 0,000 mm 2,3 UV-I 530 W/m 16,1 C 23,3 C 4,8 km/h (1 Bft) 95,74 %
27.08.2017 10:06 23,2 C 23,9 C 64 % 1015,0 hPa 0,0 l/m 0,9 km/h (0 Bft) S-SW 209 2 min 0,000 mm 2,3 UV-I 532 W/m 16,0 C 23,2 C 4,8 km/h (1 Bft) 97,87 %
27.08.2017 10:08 23,2 C 23,9 C 62 % 1014,9 hPa 0,0 l/m 0,7 km/h (0 Bft) S-SW 209 2 min 0,000 mm 2,3 UV-I 537 W/m 15,5 C 23,2 C 3,2 km/h (1 Bft) 97,87 %
27.08.2017 10:10 23,2 C 23,9 C 63 % 1014,9 hPa 0,0 l/m 0,7 km/h (0 Bft) S-SW 209 2 min 0,000 mm 2,4 UV-I 537 W/m 15,8 C 23,2 C 1,6 km/h (1 Bft) 100,00 %
27.08.2017 10:12 23,3 C 23,9 C 64 % 1014,9 hPa 0,0 l/m 2,1 km/h (1 Bft) S-SW 198 2 min 0,000 mm 2,4 UV-I 539 W/m 16,1 C 23,3 C 4,8 km/h (1 Bft) 100,00 %
27.08.2017 10:14 23,3 C 23,9 C 62 % 1014,9 hPa 0,0 l/m 0,9 km/h (0 Bft) S-SW 198 2 min 0,000 mm 2,4 UV-I 543 W/m 15,6 C 23,3 C 3,2 km/h (1 Bft) 98,00 %
27.08.2017 10:16 23,4 C 23,9 C 64 % 1014,9 hPa 0,0 l/m 4,2 km/h (1 Bft) W-SW 255 2 min 0,000 mm 2,5 UV-I 543 W/m 16,2 C 23,4 C 6,4 km/h (2 Bft) 100,00 %
27.08.2017 10:18 23,5 C 23,9 C 62 % 1015,0 hPa 0,0 l/m 2,0 km/h (1 Bft) W-SW 245 2 min 0,000 mm 2,5 UV-I 542 W/m 15,8 C 23,5 C 4,8 km/h (1 Bft) 100,00 %
27.08.2017 10:20 23,4 C 23,9 C 61 % 1014,9 hPa 0,0 l/m 1,0 km/h (0 Bft) S 183 2 min 0,000 mm 2,5 UV-I 547 W/m 15,4 C 23,4 C 4,8 km/h (1 Bft) 97,87 %
27.08.2017 10:22 23,6 C 23,9 C 63 % 1014,9 hPa 0,0 l/m 4,0 km/h (1 Bft) S 183 2 min 0,000 mm 2,5 UV-I 550 W/m 16,1 C 23,6 C 6,4 km/h (2 Bft) 100,00 %
27.08.2017 10:24 23,7 C 23,9 C 63 % 1014,9 hPa 0,0 l/m 3,0 km/h (1 Bft) S 183 2 min 0,000 mm 2,6 UV-I 557 W/m 16,2 C 23,7 C 4,8 km/h (1 Bft) 100,00 %
27.08.2017 10:26 23,8 C 23,9 C 63 % 1015,0 hPa 0,0 l/m 5,2 km/h (1 Bft) W 262 2 min 0,000 mm 2,6 UV-I 565 W/m 16,3 C 23,8 C 8,0 km/h (2 Bft) 98,00 %
27.08.2017 10:28 23,8 C 23,9 C 64 % 1015,0 hPa 0,0 l/m 0,3 km/h (0 Bft) W 262 2 min 0,000 mm 2,7 UV-I 567 W/m 16,6 C 23,8 C 3,2 km/h (1 Bft) 97,22 %
27.08.2017 10:30 23,9 C 23,9 C 64 % 1015,0 hPa 0,0 l/m 2,9 km/h (1 Bft) SW 227 2 min 0,000 mm 2,7 UV-I 570 W/m 16,7 C 23,9 C 6,4 km/h (2 Bft) 100,00 %
27.08.2017 10:32 23,9 C 23,9 C 61 % 1015,0 hPa 0,0 l/m 0,9 km/h (0 Bft) S-SO 165 2 min 0,000 mm 2,7 UV-I 571 W/m 15,9 C 23,9 C 3,2 km/h (1 Bft) 97,87 %
27.08.2017 10:34 23,8 C 23,9 C 61 % 1015,0 hPa 0,0 l/m 0,4 km/h (0 Bft) S-SO 165 2 min 0,000 mm 2,8 UV-I 575 W/m 15,8 C 23,8 C 1,6 km/h (1 Bft) 100,00 %
27.08.2017 10:36 24,0 C 23,9 C 65 % 1015,0 hPa 0,0 l/m 2,9 km/h (1 Bft) S 187 2 min 0,000 mm 2,8 UV-I 578 W/m 17,0 C 24,0 C 8,0 km/h (2 Bft) 94,00 %
27.08.2017 10:38 24,2 C 23,9 C 62 % 1015,0 hPa 0,0 l/m 3,8 km/h (1 Bft) W-SW 258 2 min 0,000 mm 2,9 UV-I 580 W/m 16,4 C 24,2 C 6,4 km/h (2 Bft) 95,74 %
27.08.2017 10:40 24,3 C 23,9 C 60 % 1015,0 hPa 0,0 l/m 3,2 km/h (1 Bft) W-SW 253 2 min 0,000 mm 2,9 UV-I 585 W/m 16,0 C 24,3 C 6,4 km/h (2 Bft) 98,00 %
27.08.2017 10:42 24,2 C 23,9 C 60 % 1014,9 hPa 0,0 l/m 2,4 km/h (1 Bft) S 178 2 min 0,000 mm 2,9 UV-I 586 W/m 15,9 C 24,2 C 4,8 km/h (1 Bft) 97,14 %
27.08.2017 10:44 24,2 C 23,9 C 63 % 1014,8 hPa 0,0 l/m 2,2 km/h (1 Bft) S-SW 202 2 min 0,000 mm 3,0 UV-I 593 W/m 16,7 C 24,2 C 6,4 km/h (2 Bft) 98,00 %
27.08.2017 10:46 24,2 C 23,9 C 60 % 1014,9 hPa 0,0 l/m 4,0 km/h (1 Bft) S-SW 202 2 min 0,000 mm 3,1 UV-I 599 W/m 15,9 C 24,2 C 6,4 km/h (2 Bft) 97,87 %
27.08.2017 10:48 24,2 C 23,9 C 60 % 1015,0 hPa 0,0 l/m 1,7 km/h (1 Bft) S-SW 194 2 min 0,000 mm 3,1 UV-I 603 W/m 15,9 C 24,2 C 4,8 km/h (1 Bft) 96,00 %
27.08.2017 10:50 24,3 C 23,9 C 60 % 1015,0 hPa 0,0 l/m 1,4 km/h (1 Bft) S 184 2 min 0,000 mm 3,1 UV-I 606 W/m 16,0 C 24,3 C 3,2 km/h (1 Bft) 97,87 %
27.08.2017 10:52 24,2 C 23,9 C 61 % 1014,9 hPa 0,0 l/m 2,2 km/h (1 Bft) S 175 2 min 0,000 mm 3,1 UV-I 607 W/m 16,2 C 24,2 C 4,8 km/h (1 Bft) 97,87 %
27.08.2017 10:54 24,3 C 23,9 C 60 % 1014,9 hPa 0,0 l/m 2,5 km/h (1 Bft) S-SW 199 2 min 0,000 mm 3,2 UV-I 612 W/m 16,0 C 24,3 C 4,8 km/h (1 Bft) 98,00 %
27.08.2017 10:56 24,5 C 23,9 C 62 % 1014,8 hPa 0,0 l/m 3,8 km/h (1 Bft) S-SW 206 2 min 0,000 mm 3,2 UV-I 618 W/m 16,7 C 24,5 C 6,4 km/h (2 Bft) 97,87 %
27.08.2017 10:58 24,6 C 23,9 C 58 % 1014,8 hPa 0,0 l/m 2,5 km/h (1 Bft) W-NW 299 2 min 0,000 mm 3,2 UV-I 620 W/m 15,8 C 24,6 C 4,8 km/h (1 Bft) 95,74 %
27.08.2017 11:00 24,6 C 23,9 C 58 % 1014,8 hPa 0,0 l/m 1,7 km/h (1 Bft) W-NW 299 2 min 0,356 mm 3,3 UV-I 618 W/m 15,8 C 24,6 C 3,2 km/h (1 Bft) 98,00 %
27.08.2017 11:02 24,6 C 23,9 C 60 % 1014,8 hPa 0,0 l/m 2,5 km/h (1 Bft) W-SW 237 2 min 0,000 mm 3,3 UV-I 620 W/m 16,3 C 24,6 C 8,0 km/h (2 Bft) 97,22 %
27.08.2017 11:04 24,7 C 23,9 C 60 % 1014,8 hPa 0,0 l/m 4,2 km/h (1 Bft) W-SW 238 2 min 0,000 mm 3,4 UV-I 624 W/m 16,4 C 24,7 C 6,4 km/h (2 Bft) 93,62 %
27.08.2017 11:06 24,6 C 23,9 C 59 % 1014,8 hPa 0,0 l/m 1,4 km/h (1 Bft) W-SW 238 2 min 0,000 mm 3,4 UV-I 628 W/m 16,0 C 24,6 C 3,2 km/h (1 Bft) 93,62 %
27.08.2017 11:08 24,8 C 23,9 C 60 % 1014,8 hPa 0,0 l/m 2,6 km/h (1 Bft) SW 232 2 min 0,000 mm 3,4 UV-I 630 W/m 16,5 C 24,8 C 6,4 km/h (2 Bft) 100,00 %
27.08.2017 11:10 24,9 C 24,4 C 57 % 1014,8 hPa 0,0 l/m 4,6 km/h (1 Bft) SW 232 2 min 0,000 mm 3,5 UV-I 632 W/m 15,8 C 24,9 C 6,4 km/h (2 Bft) 100,00 %
27.08.2017 11:12 25,0 C 24,4 C 59 % 1014,8 hPa 0,0 l/m 3,3 km/h (1 Bft) SW 218 2 min 0,000 mm 3,5 UV-I 638 W/m 16,4 C 25,0 C 6,4 km/h (2 Bft) 100,00 %
27.08.2017 11:14 25,0 C 23,9 C 57 % 1014,9 hPa 0,0 l/m 3,9 km/h (1 Bft) SW 217 2 min 0,000 mm 3,5 UV-I 641 W/m 15,9 C 25,0 C 6,4 km/h (2 Bft) 97,87 %
27.08.2017 11:16 25,0 C 24,4 C 59 % 1014,8 hPa 0,0 l/m 3,4 km/h (1 Bft) S-SW 209 2 min 0,000 mm 3,6 UV-I 643 W/m 16,4 C 25,0 C 8,0 km/h (2 Bft) 95,74 %
27.08.2017 11:18 25,1 C 24,4 C 60 % 1014,8 hPa 0,0 l/m 5,5 km/h (1 Bft) SW 214 2 min 0,000 mm 3,6 UV-I 645 W/m 16,8 C 25,1 C 8,0 km/h (2 Bft) 97,87 %
27.08.2017 11:20 25,3 C 24,4 C 62 % 1014,8 hPa 0,0 l/m 2,7 km/h (1 Bft) W-SW 238 2 min 0,000 mm 3,6 UV-I 650 W/m 17,5 C 25,3 C 4,8 km/h (1 Bft) 95,74 %
27.08.2017 11:22 25,3 C 24,4 C 60 % 1014,8 hPa 0,0 l/m 2,7 km/h (1 Bft) W-SW 239 2 min 0,000 mm 3,7 UV-I 651 W/m 17,0 C 25,3 C 4,8 km/h (1 Bft) 95,74 %
27.08.2017 11:24 25,1 C 24,4 C 57 % 1014,7 hPa 0,0 l/m 1,5 km/h (1 Bft) SW 217 2 min 0,000 mm 3,7 UV-I 654 W/m 16,0 C 25,1 C 4,8 km/h (1 Bft) 95,74 %
27.08.2017 11:26 24,9 C 24,4 C 59 % 1014,7 hPa 0,0 l/m 2,8 km/h (1 Bft) S 188 2 min 0,000 mm 3,8 UV-I 660 W/m 16,3 C 24,9 C 6,4 km/h (2 Bft) 95,74 %
27.08.2017 11:28 25,1 C 24,4 C 58 % 1014,8 hPa 0,0 l/m 2,6 km/h (1 Bft) S-SW 192 2 min 0,000 mm 3,8 UV-I 666 W/m 16,2 C 25,1 C 8,0 km/h (2 Bft) 97,87 %
27.08.2017 11:30 25,1 C 24,4 C 57 % 1014,8 hPa 0,0 l/m 2,8 km/h (1 Bft) S-SW 200 2 min 0,000 mm 3,8 UV-I 669 W/m 16,0 C 25,1 C 6,4 km/h (2 Bft) 95,74 %
27.08.2017 11:32 25,2 C 24,4 C 58 % 1014,8 hPa 0,0 l/m 2,2 km/h (1 Bft) S-SW 207 2 min 0,000 mm 3,9 UV-I 671 W/m 16,3 C 25,2 C 6,4 km/h (2 Bft) 93,62 %
27.08.2017 11:34 25,3 C 24,4 C 57 % 1014,7 hPa 0,0 l/m 1,6 km/h (1 Bft) S 180 2 min 0,000 mm 3,9 UV-I 674 W/m 16,2 C 25,3 C 4,8 km/h (1 Bft) 97,87 %
27.08.2017 11:36 25,4 C 24,4 C 58 % 1014,7 hPa 0,0 l/m 3,7 km/h (1 Bft) SW 219 2 min 0,000 mm 3,9 UV-I 677 W/m 16,5 C 25,4 C 8,0 km/h (2 Bft) 97,87 %
27.08.2017 11:38 25,4 C 24,4 C 57 % 1014,7 hPa 0,0 l/m 3,6 km/h (1 Bft) S-SO 168 2 min 0,000 mm 4,0 UV-I 680 W/m 16,2 C 25,4 C 6,4 km/h (2 Bft) 93,62 %
27.08.2017 11:40 25,2 C 24,4 C 57 % 1014,7 hPa 0,0 l/m 3,5 km/h (1 Bft) S-SW 206 2 min 0,000 mm 4,0 UV-I 684 W/m 16,1 C 25,2 C 6,4 km/h (2 Bft) 95,74 %
27.08.2017 11:42 25,3 C 24,4 C 58 % 1014,7 hPa 0,0 l/m 2,5 km/h (1 Bft) S-SO 167 2 min 0,000 mm 4,0 UV-I 690 W/m 16,4 C 25,3 C 6,4 km/h (2 Bft) 97,87 %
27.08.2017 11:44 25,5 C 24,4 C 58 % 1014,6 hPa 0,0 l/m 4,9 km/h (1 Bft) S-SO 156 2 min 0,000 mm 4,1 UV-I 692 W/m 16,6 C 25,5 C 8,0 km/h (2 Bft) 97,92 %
27.08.2017 11:46 25,6 C 24,4 C 55 % 1014,6 hPa 0,0 l/m 3,4 km/h (1 Bft) S-SO 165 2 min 0,000 mm 4,1 UV-I 692 W/m 15,9 C 25,6 C 8,0 km/h (2 Bft) 97,87 %
27.08.2017 11:48 25,6 C 24,4 C 59 % 1014,6 hPa 0,0 l/m 4,4 km/h (1 Bft) W-SW 238 2 min 0,000 mm 4,1 UV-I 689 W/m 17,0 C 25,6 C 8,0 km/h (2 Bft) 97,87 %
27.08.2017 11:50 25,7 C 24,4 C 55 % 1014,7 hPa 0,0 l/m 5,9 km/h (2 Bft) SW 225 2 min 0,000 mm 4,2 UV-I 694 W/m 16,0 C 25,7 C 9,7 km/h (2 Bft) 97,87 %
27.08.2017 11:52 25,7 C 24,4 C 56 % 1014,6 hPa 0,0 l/m 4,5 km/h (1 Bft) W 276 2 min 0,000 mm 4,2 UV-I 697 W/m 16,2 C 25,7 C 11,3 km/h (2 Bft) 97,56 %
27.08.2017 11:54 25,6 C 24,4 C 56 % 1014,6 hPa 0,0 l/m 0,0 km/h (0 Bft) W 276 2 min 0,000 mm 4,2 UV-I 697 W/m 16,2 C 25,6 C 1,6 km/h (1 Bft) 97,87 %
27.08.2017 11:56 25,7 C 24,4 C 59 % 1014,6 hPa 0,0 l/m 0,5 km/h (0 Bft) W 276 2 min 0,000 mm 4,2 UV-I 699 W/m 17,1 C 25,7 C 3,2 km/h (1 Bft) 96,00 %
27.08.2017 11:58 25,8 C 24,4 C 56 % 1014,6 hPa 0,0 l/m 0,6 km/h (0 Bft) W-SW 255 2 min 0,000 mm 4,3 UV-I 704 W/m 16,3 C 25,8 C 3,2 km/h (1 Bft) 98,00 %
27.08.2017 12:00 25,9 C 24,4 C 58 % 1014,6 hPa 0,0 l/m 5,6 km/h (1 Bft) SW 222 2 min 0,431 mm 4,3 UV-I 709 W/m 17,0 C 25,9 C 8,0 km/h (2 Bft) 95,74 %
27.08.2017 12:02 26,2 C 24,4 C 54 % 1014,6 hPa 0,0 l/m 4,4 km/h (1 Bft) SW 216 2 min 0,000 mm 4,3 UV-I 712 W/m 16,1 C 26,2 C 6,4 km/h (2 Bft) 95,74 %
27.08.2017 12:04 26,3 C 24,4 C 54 % 1014,6 hPa 0,0 l/m 4,2 km/h (1 Bft) W-SW 246 2 min 0,000 mm 4,4 UV-I 713 W/m 16,2 C 26,3 C 6,4 km/h (2 Bft) 97,87 %
27.08.2017 12:06 26,4 C 24,4 C 53 % 1014,6 hPa 0,0 l/m 3,3 km/h (1 Bft) SW 215 2 min 0,000 mm 4,4 UV-I 711 W/m 16,0 C 26,4 C 6,4 km/h (2 Bft) 100,00 %
27.08.2017 12:08 26,3 C 24,4 C 52 % 1014,6 hPa 0,0 l/m 1,3 km/h (1 Bft) SW 229 2 min 0,000 mm 4,4 UV-I 709 W/m 15,6 C 26,3 C 4,8 km/h (1 Bft) 97,87 %
27.08.2017 12:10 26,3 C 24,4 C 53 % 1014,6 hPa 0,0 l/m 4,1 km/h (1 Bft) SW 227 2 min 0,000 mm 4,4 UV-I 717 W/m 15,9 C 26,3 C 8,0 km/h (2 Bft) 95,74 %
27.08.2017 12:12 26,3 C 24,4 C 54 % 1014,6 hPa 0,0 l/m 5,2 km/h (1 Bft) SW 219 2 min 0,000 mm 4,4 UV-I 717 W/m 16,2 C 26,3 C 9,7 km/h (2 Bft) 97,87 %
27.08.2017 12:14 26,4 C 24,4 C 53 % 1014,6 hPa 0,0 l/m 6,7 km/h (2 Bft) S-SW 197 2 min 0,000 mm 4,4 UV-I 719 W/m 16,0 C 26,3 C 12,9 km/h (3 Bft) 97,14 %
27.08.2017 12:16 26,5 C 24,4 C 52 % 1014,6 hPa 0,0 l/m 4,3 km/h (1 Bft) W-SW 256 2 min 0,000 mm 4,5 UV-I 727 W/m 15,8 C 26,5 C 9,7 km/h (2 Bft) 98,00 %
27.08.2017 12:18 26,6 C 24,4 C 53 % 1014,6 hPa 0,0 l/m 5,2 km/h (1 Bft) W-NW 290 2 min 0,000 mm 4,4 UV-I 723 W/m 16,2 C 26,6 C 11,3 km/h (2 Bft) 95,83 %
27.08.2017 12:20 26,6 C 24,4 C 54 % 1014,6 hPa 0,0 l/m 3,9 km/h (1 Bft) S 183 2 min 0,000 mm 4,4 UV-I 723 W/m 16,5 C 26,6 C 8,0 km/h (2 Bft) 100,00 %
27.08.2017 12:22 26,7 C 24,4 C 54 % 1014,6 hPa 0,0 l/m 3,0 km/h (1 Bft) NW 323 2 min 0,000 mm 4,5 UV-I 731 W/m 16,6 C 26,7 C 6,4 km/h (2 Bft) 100,00 %
27.08.2017 12:24 26,7 C 24,4 C 53 % 1014,5 hPa 0,0 l/m 1,8 km/h (1 Bft) W-NW 297 2 min 0,000 mm 4,5 UV-I 734 W/m 16,3 C 26,7 C 4,8 km/h (1 Bft) 96,00 %
27.08.2017 12:26 26,6 C 24,4 C 53 % 1014,5 hPa 0,0 l/m 3,3 km/h (1 Bft) W-SW 250 2 min 0,000 mm 4,2 UV-I 734 W/m 16,2 C 26,6 C 6,4 km/h (2 Bft) 100,00 %
27.08.2017 12:28 26,7 C 24,4 C 56 % 1014,5 hPa 0,0 l/m 4,8 km/h (1 Bft) W 275 2 min 0,000 mm 4,1 UV-I 737 W/m 17,2 C 26,7 C 6,4 km/h (2 Bft) 97,87 %
27.08.2017 12:30 26,8 C 24,4 C 52 % 1014,5 hPa 0,0 l/m 3,5 km/h (1 Bft) S-SW 207 2 min 0,000 mm 4,5 UV-I 737 W/m 16,1 C 26,8 C 6,4 km/h (2 Bft) 95,74 %
27.08.2017 12:32 26,8 C 24,4 C 53 % 1014,5 hPa 0,0 l/m 2,2 km/h (1 Bft) W-SW 247 2 min 0,000 mm 4,5 UV-I 726 W/m 16,4 C 26,8 C 4,8 km/h (1 Bft) 95,74 %
27.08.2017 12:34 26,7 C 24,4 C 52 % 1014,5 hPa 0,0 l/m 1,4 km/h (1 Bft) S-SO 157 2 min 0,000 mm 4,6 UV-I 735 W/m 16,0 C 26,7 C 3,2 km/h (1 Bft) 97,30 %
27.08.2017 12:36 26,6 C 24,4 C 52 % 1014,5 hPa 0,0 l/m 2,3 km/h (1 Bft) S 175 2 min 0,000 mm 4,5 UV-I 739 W/m 15,9 C 26,6 C 6,4 km/h (2 Bft) 94,00 %
27.08.2017 12:38 26,6 C 24,4 C 53 % 1014,5 hPa 0,0 l/m 1,8 km/h (1 Bft) S 172 2 min 0,000 mm 4,1 UV-I 663 W/m 16,2 C 26,6 C 4,8 km/h (1 Bft) 97,87 %
27.08.2017 12:40 26,6 C 24,4 C 53 % 1014,4 hPa 0,0 l/m 3,5 km/h (1 Bft) O-SO 111 2 min 0,000 mm 4,1 UV-I 667 W/m 16,2 C 26,6 C 6,4 km/h (2 Bft) 95,74 %
27.08.2017 12:42 26,7 C 24,4 C 53 % 1014,5 hPa 0,0 l/m 4,8 km/h (1 Bft) W 277 2 min 0,000 mm 3,9 UV-I 688 W/m 16,3 C 26,7 C 11,3 km/h (2 Bft) 95,83 %
27.08.2017 12:44 26,7 C 24,4 C 53 % 1014,5 hPa 0,0 l/m 3,6 km/h (1 Bft) W-NW 299 2 min 0,000 mm 3,5 UV-I 722 W/m 16,3 C 26,7 C 9,7 km/h (2 Bft) 95,74 %
27.08.2017 12:46 26,8 C 24,4 C 52 % 1014,5 hPa 0,0 l/m 1,7 km/h (1 Bft) W-SW 251 2 min 0,000 mm 4,2 UV-I 670 W/m 16,1 C 26,8 C 4,8 km/h (1 Bft) 97,87 %
27.08.2017 12:48 26,8 C 24,4 C 52 % 1014,5 hPa 0,0 l/m 3,2 km/h (1 Bft) W-SW 246 2 min 0,000 mm 3,6 UV-I 565 W/m 16,1 C 26,8 C 11,3 km/h (2 Bft) 95,74 %
27.08.2017 12:50 26,8 C 24,4 C 54 % 1014,5 hPa 0,0 l/m 8,4 km/h (2 Bft) W-SW 243 2 min 0,000 mm 3,6 UV-I 448 W/m 16,7 C 26,4 C 12,9 km/h (3 Bft) 93,62 %
27.08.2017 12:52 26,9 C 24,4 C 52 % 1014,5 hPa 0,0 l/m 7,4 km/h (2 Bft) S-SO 155 2 min 0,000 mm 3,9 UV-I 612 W/m 16,2 C 26,7 C 12,9 km/h (3 Bft) 97,50 %
27.08.2017 12:54 27,0 C 24,4 C 55 % 1014,5 hPa 0,0 l/m 6,0 km/h (2 Bft) W-SW 242 2 min 0,000 mm 3,7 UV-I 750 W/m 17,2 C 27,0 C 14,5 km/h (3 Bft) 95,74 %
27.08.2017 12:56 27,1 C 24,4 C 53 % 1014,6 hPa 0,0 l/m 7,3 km/h (2 Bft) SW 224 2 min 0,000 mm 3,4 UV-I 816 W/m 16,7 C 26,9 C 11,3 km/h (2 Bft) 95,83 %
27.08.2017 12:58 27,2 C 24,4 C 51 % 1014,5 hPa 0,0 l/m 4,4 km/h (1 Bft) S-SW 208 2 min 0,000 mm 3,3 UV-I 790 W/m 16,2 C 27,2 C 8,0 km/h (2 Bft) 97,87 %
27.08.2017 13:00 27,2 C 24,4 C 52 % 1014,5 hPa 0,0 l/m 4,0 km/h (1 Bft) S-SW 202 2 min 0,483 mm 4,5 UV-I 761 W/m 16,5 C 27,2 C 8,0 km/h (2 Bft) 96,00 %
27.08.2017 13:02 27,3 C 24,4 C 54 % 1014,5 hPa 0,0 l/m 3,5 km/h (1 Bft) W-SW 246 2 min 0,000 mm 4,3 UV-I 680 W/m 17,2 C 27,3 C 8,0 km/h (2 Bft) 96,00 %
27.08.2017 13:04 27,4 C 25,0 C 54 % 1014,4 hPa 0,0 l/m 3,2 km/h (1 Bft) SW 233 2 min 0,000 mm 4,3 UV-I 645 W/m 17,3 C 27,4 C 8,0 km/h (2 Bft) 97,87 %
27.08.2017 13:06 27,4 C 25,0 C 54 % 1014,4 hPa 0,0 l/m 6,5 km/h (2 Bft) W-NW 290 2 min 0,000 mm 4,0 UV-I 591 W/m 17,3 C 27,4 C 12,9 km/h (3 Bft) 100,00 %
27.08.2017 13:08 27,4 C 25,0 C 55 % 1014,4 hPa 0,0 l/m 4,4 km/h (1 Bft) W 259 2 min 0,000 mm 4,3 UV-I 692 W/m 17,5 C 27,4 C 9,7 km/h (2 Bft) 100,00 %
27.08.2017 13:10 27,3 C 25,0 C 52 % 1014,4 hPa 0,0 l/m 5,3 km/h (1 Bft) W-NW 284 2 min 0,000 mm 4,4 UV-I 730 W/m 16,6 C 27,3 C 8,0 km/h (2 Bft) 97,87 %
27.08.2017 13:12 27,3 C 25,0 C 52 % 1014,4 hPa 0,0 l/m 3,5 km/h (1 Bft) W-NW 284 2 min 0,000 mm 4,6 UV-I 757 W/m 16,6 C 27,3 C 4,8 km/h (1 Bft) 100,00 %
27.08.2017 13:14 27,3 C 25,0 C 52 % 1014,4 hPa 0,0 l/m 3,8 km/h (1 Bft) NW 323 2 min 0,000 mm 3,8 UV-I 794 W/m 16,6 C 27,3 C 8,0 km/h (2 Bft) 100,00 %
27.08.2017 13:16 27,2 C 25,0 C 53 % 1014,4 hPa 0,0 l/m 0,8 km/h (0 Bft) NW 321 0 min 0,000 mm 3,2 UV-I 423 W/m 16,8 C 27,2 C 4,8 km/h (1 Bft) 100,00 %
27.08.2017 13:18 27,1 C 25,0 C 53 % 1014,4 hPa 0,0 l/m 6,9 km/h (2 Bft) W-SW 256 0 min 0,000 mm 2,9 UV-I 352 W/m 16,7 C 27,0 C 11,3 km/h (2 Bft) 100,00 %
27.08.2017 13:20 27,1 C 25,0 C 54 % 1014,3 hPa 0,0 l/m 6,6 km/h (2 Bft) SW 234 0 min 0,000 mm 2,8 UV-I 328 W/m 17,0 C 27,1 C 16,1 km/h (3 Bft) 100,00 %
27.08.2017 13:22 27,0 C 25,0 C 53 % 1014,3 hPa 0,0 l/m 8,2 km/h (2 Bft) W-SW 245 0 min 0,000 mm 2,8 UV-I 334 W/m 16,6 C 26,7 C 14,5 km/h (3 Bft) 98,00 %
27.08.2017 13:24 26,9 C 25,0 C 53 % 1014,3 hPa 0,0 l/m 5,3 km/h (1 Bft) W-SW 256 0 min 0,000 mm 2,8 UV-I 365 W/m 16,5 C 26,9 C 8,0 km/h (2 Bft) 100,00 %
27.08.2017 13:26 26,9 C 25,0 C 53 % 1014,3 hPa 0,0 l/m 6,5 km/h (2 Bft) W 261 0 min 0,000 mm 2,6 UV-I 359 W/m 16,5 C 26,9 C 9,7 km/h (2 Bft) 97,87 %
27.08.2017 13:28 26,9 C 25,0 C 53 % 1014,3 hPa 0,0 l/m 4,4 km/h (1 Bft) W 274 0 min 0,000 mm 2,8 UV-I 337 W/m 16,5 C 26,9 C 6,4 km/h (2 Bft) 100,00 %
27.08.2017 13:30 26,8 C 25,0 C 53 % 1014,3 hPa 0,0 l/m 3,1 km/h (1 Bft) W-SW 250 0 min 0,000 mm 3,1 UV-I 374 W/m 16,4 C 26,8 C 6,4 km/h (2 Bft) 100,00 %
27.08.2017 13:32 26,8 C 25,0 C 56 % 1014,3 hPa 0,0 l/m 1,9 km/h (1 Bft) W-SW 251 0 min 0,000 mm 3,0 UV-I 381 W/m 17,3 C 26,8 C 6,4 km/h (2 Bft) 95,74 %
27.08.2017 13:34 26,9 C 25,0 C 55 % 1014,2 hPa 0,0 l/m 2,8 km/h (1 Bft) W-SW 251 0 min 0,000 mm 3,2 UV-I 388 W/m 17,1 C 26,9 C 4,8 km/h (1 Bft) 100,00 %
27.08.2017 13:36 26,9 C 25,0 C 54 % 1014,3 hPa 0,0 l/m 2,6 km/h (1 Bft) NW 323 0 min 0,000 mm 2,9 UV-I 399 W/m 16,8 C 26,9 C 6,4 km/h (2 Bft) 100,00 %
27.08.2017 13:38 26,9 C 25,0 C 55 % 1014,2 hPa 0,0 l/m 2,2 km/h (1 Bft) SW 223 2 min 0,000 mm 3,9 UV-I 693 W/m 17,1 C 26,9 C 9,7 km/h (2 Bft) 97,87 %
27.08.2017 13:40 27,1 C 25,0 C 55 % 1014,2 hPa 0,0 l/m 5,5 km/h (1 Bft) NW 324 2 min 0,000 mm 3,6 UV-I 608 W/m 17,3 C 27,1 C 9,7 km/h (2 Bft) 100,00 %
27.08.2017 13:42 27,2 C 25,0 C 54 % 1014,1 hPa 0,0 l/m 3,0 km/h (1 Bft) W 273 2 min 0,000 mm 4,2 UV-I 635 W/m 17,1 C 27,2 C 6,4 km/h (2 Bft) 100,00 %
27.08.2017 13:44 27,3 C 25,0 C 56 % 1014,1 hPa 0,0 l/m 1,6 km/h (1 Bft) W 273 2 min 0,000 mm 4,2 UV-I 703 W/m 17,7 C 27,3 C 3,2 km/h (1 Bft) 100,00 %
27.08.2017 13:46 27,4 C 25,0 C 54 % 1014,1 hPa 0,0 l/m 5,1 km/h (1 Bft) W-SW 246 2 min 0,000 mm 4,3 UV-I 769 W/m 17,3 C 27,4 C 11,3 km/h (2 Bft) 95,74 %
27.08.2017 13:48 27,4 C 25,0 C 52 % 1014,1 hPa 0,0 l/m 7,2 km/h (2 Bft) SW 226 2 min 0,000 mm 4,1 UV-I 670 W/m 16,7 C 27,3 C 12,9 km/h (3 Bft) 100,00 %
27.08.2017 13:50 27,5 C 25,0 C 53 % 1014,1 hPa 0,0 l/m 2,8 km/h (1 Bft) SW 222 2 min 0,000 mm 4,1 UV-I 679 W/m 17,0 C 27,5 C 4,8 km/h (1 Bft) 100,00 %
27.08.2017 13:52 27,6 C 25,0 C 53 % 1014,1 hPa 0,0 l/m 7,6 km/h (2 Bft) SW 220 2 min 0,000 mm 4,2 UV-I 722 W/m 17,1 C 27,4 C 11,3 km/h (2 Bft) 100,00 %
27.08.2017 13:54 27,6 C 25,0 C 52 % 1014,0 hPa 0,0 l/m 4,4 km/h (1 Bft) S 181 2 min 0,000 mm 3,8 UV-I 745 W/m 16,8 C 27,6 C 9,7 km/h (2 Bft) 100,00 %
27.08.2017 13:56 27,8 C 25,0 C 53 % 1014,0 hPa 0,0 l/m 6,1 km/h (2 Bft) S-SW 200 2 min 0,000 mm 4,3 UV-I 746 W/m 17,3 C 27,8 C 9,7 km/h (2 Bft) 97,92 %
27.08.2017 13:58 28,0 C 25,0 C 53 % 1014,0 hPa 0,0 l/m 5,8 km/h (2 Bft) N-NW 337 2 min 0,000 mm 4,0 UV-I 711 W/m 17,5 C 28,0 C 12,9 km/h (3 Bft) 100,00 %
27.08.2017 14:00 28,0 C 25,0 C 51 % 1014,1 hPa 0,0 l/m 5,5 km/h (1 Bft) W 266 2 min 0,406 mm 3,4 UV-I 738 W/m 16,9 C 28,0 C 11,3 km/h (2 Bft) 97,87 %
27.08.2017 14:02 27,9 C 25,0 C 53 % 1014,0 hPa 0,0 l/m 5,5 km/h (1 Bft) W-SW 258 2 min 0,000 mm 4,2 UV-I 758 W/m 17,4 C 27,9 C 12,9 km/h (3 Bft) 100,00 %
27.08.2017 14:04 28,1 C 25,0 C 53 % 1014,0 hPa 0,0 l/m 6,9 km/h (2 Bft) W 262 2 min 0,000 mm 4,3 UV-I 797 W/m 17,6 C 28,0 C 11,3 km/h (2 Bft) 100,00 %
27.08.2017 14:06 27,9 C 25,0 C 51 % 1014,0 hPa 0,0 l/m 5,5 km/h (1 Bft) SW 226 2 min 0,000 mm 3,5 UV-I 674 W/m 16,8 C 27,9 C 8,0 km/h (2 Bft) 100,00 %
27.08.2017 14:08 27,9 C 25,0 C 54 % 1014,0 hPa 0,0 l/m 8,2 km/h (2 Bft) SW 219 0 min 0,000 mm 2,9 UV-I 380 W/m 17,7 C 27,6 C 14,5 km/h (3 Bft) 100,00 %
27.08.2017 14:10 27,8 C 25,0 C 54 % 1014,0 hPa 0,0 l/m 5,2 km/h (1 Bft) S-SW 197 0 min 0,000 mm 2,5 UV-I 386 W/m 17,6 C 27,8 C 9,7 km/h (2 Bft) 100,00 %
27.08.2017 14:12 27,8 C 25,0 C 55 % 1014,0 hPa 0,0 l/m 5,3 km/h (1 Bft) SW 220 2 min 0,000 mm 4,2 UV-I 520 W/m 17,9 C 27,8 C 9,7 km/h (2 Bft) 100,00 %
27.08.2017 14:14 28,0 C 25,0 C 56 % 1014,0 hPa 0,0 l/m 6,4 km/h (2 Bft) W-SW 248 2 min 0,000 mm 4,2 UV-I 721 W/m 18,4 C 28,0 C 14,5 km/h (3 Bft) 100,00 %
27.08.2017 14:16 28,2 C 25,0 C 54 % 1014,0 hPa 0,0 l/m 3,6 km/h (1 Bft) W-NW 284 2 min 0,000 mm 4,2 UV-I 747 W/m 18,0 C 28,2 C 8,0 km/h (2 Bft) 100,00 %
27.08.2017 14:18 28,3 C 25,0 C 55 % 1013,9 hPa 0,0 l/m 1,2 km/h (1 Bft) W 274 2 min 0,000 mm 4,2 UV-I 752 W/m 18,4 C 28,3 C 4,8 km/h (1 Bft) 98,08 %
27.08.2017 14:20 28,2 C 25,0 C 52 % 1013,9 hPa 0,0 l/m 0,9 km/h (0 Bft) N-NW 338 2 min 0,000 mm 4,2 UV-I 771 W/m 17,4 C 28,2 C 3,2 km/h (1 Bft) 97,92 %
27.08.2017 14:22 28,2 C 25,0 C 52 % 1013,9 hPa 0,0 l/m 3,1 km/h (1 Bft) N-NO 19 2 min 0,000 mm 4,2 UV-I 798 W/m 17,4 C 28,2 C 6,4 km/h (2 Bft) 100,00 %
27.08.2017 14:24 28,4 C 25,0 C 56 % 1013,9 hPa 0,0 l/m 1,3 km/h (1 Bft) N-NO 19 2 min 0,000 mm 4,1 UV-I 802 W/m 18,8 C 28,4 C 3,2 km/h (1 Bft) 100,00 %
27.08.2017 14:26 28,6 C 25,0 C 56 % 1013,9 hPa 0,0 l/m 1,2 km/h (1 Bft) S 184 2 min 0,000 mm 4,0 UV-I 788 W/m 18,9 C 28,6 C 4,8 km/h (1 Bft) 97,87 %
27.08.2017 14:28 28,6 C 25,0 C 56 % 1013,9 hPa 0,0 l/m 2,7 km/h (1 Bft) W-NW 302 2 min 0,000 mm 3,4 UV-I 594 W/m 18,9 C 28,6 C 6,4 km/h (2 Bft) 97,37 %
27.08.2017 14:30 28,4 C 25,0 C 53 % 1013,8 hPa 0,0 l/m 1,8 km/h (1 Bft) NW 322 2 min 0,000 mm 2,9 UV-I 447 W/m 17,9 C 28,4 C 4,8 km/h (1 Bft) 97,87 %
27.08.2017 14:32 28,2 C 25,0 C 52 % 1013,8 hPa 0,0 l/m 2,2 km/h (1 Bft) W-SW 237 2 min 0,000 mm 2,8 UV-I 418 W/m 17,4 C 28,2 C 4,8 km/h (1 Bft) 95,74 %
27.08.2017 14:34 28,1 C 25,0 C 55 % 1013,7 hPa 0,0 l/m 2,4 km/h (1 Bft) N 355 2 min 0,000 mm 2,6 UV-I 425 W/m 18,2 C 28,1 C 6,4 km/h (2 Bft) 95,74 %
27.08.2017 14:36 28,0 C 25,0 C 55 % 1013,8 hPa 0,0 l/m 1,4 km/h (1 Bft) NW 317 2 min 0,000 mm 3,2 UV-I 429 W/m 18,1 C 28,0 C 3,2 km/h (1 Bft) 96,00 %
27.08.2017 14:38 27,9 C 25,0 C 53 % 1013,7 hPa 0,0 l/m 2,3 km/h (1 Bft) W-NW 295 2 min 0,000 mm 4,1 UV-I 615 W/m 17,4 C 27,9 C 6,4 km/h (2 Bft) 93,62 %
27.08.2017 14:40 28,1 C 25,0 C 54 % 1013,8 hPa 0,0 l/m 1,3 km/h (1 Bft) W 271 2 min 0,000 mm 4,2 UV-I 760 W/m 17,9 C 28,1 C 4,8 km/h (1 Bft) 95,74 %
27.08.2017 14:42 28,2 C 25,0 C 54 % 1013,7 hPa 0,0 l/m 1,1 km/h (1 Bft) W 271 2 min 0,000 mm 4,1 UV-I 789 W/m 18,0 C 28,2 C 3,2 km/h (1 Bft) 93,62 %
27.08.2017 14:44 28,3 C 25,0 C 51 % 1013,7 hPa 0,0 l/m 1,7 km/h (1 Bft) W 271 2 min 0,000 mm 4,0 UV-I 765 W/m 17,2 C 28,3 C 4,8 km/h (1 Bft) 96,00 %
27.08.2017 14:46 28,4 C 25,0 C 52 % 1013,6 hPa 0,0 l/m 1,1 km/h (1 Bft) W-SW 251 2 min 0,000 mm 3,8 UV-I 758 W/m 17,6 C 28,4 C 3,2 km/h (1 Bft) 95,74 %
27.08.2017 14:48 28,7 C 25,0 C 51 % 1013,6 hPa 0,0 l/m 6,8 km/h (2 Bft) SW 223 2 min 0,000 mm 3,0 UV-I 758 W/m 17,5 C 28,6 C 11,3 km/h (2 Bft) 91,49 %
27.08.2017 14:50 28,8 C 25,0 C 51 % 1013,5 hPa 0,0 l/m 7,7 km/h (2 Bft) W-SW 252 2 min 0,000 mm 3,5 UV-I 758 W/m 17,6 C 28,6 C 12,9 km/h (3 Bft) 97,44 %
27.08.2017 14:52 28,8 C 25,0 C 52 % 1013,5 hPa 0,0 l/m 4,0 km/h (1 Bft) S 171 2 min 0,000 mm 3,0 UV-I 675 W/m 17,9 C 28,8 C 9,7 km/h (2 Bft) 94,29 %
27.08.2017 14:54 28,8 C 25,0 C 52 % 1013,5 hPa 0,0 l/m 8,3 km/h (2 Bft) W-SW 249 2 min 0,000 mm 2,7 UV-I 404 W/m 17,9 C 28,6 C 12,9 km/h (3 Bft) 95,16 %
27.08.2017 14:56 28,7 C 25,0 C 52 % 1013,5 hPa 0,0 l/m 6,1 km/h (2 Bft) SW 219 2 min 0,000 mm 3,1 UV-I 401 W/m 17,8 C 28,7 C 11,3 km/h (2 Bft) 97,87 %
27.08.2017 14:58 28,8 C 25,0 C 54 % 1013,5 hPa 0,0 l/m 8,8 km/h (2 Bft) SW 232 2 min 0,000 mm 3,6 UV-I 624 W/m 18,5 C 28,5 C 12,9 km/h (3 Bft) 96,00 %
27.08.2017 15:00 28,9 C 25,0 C 52 % 1013,5 hPa 0,0 l/m 8,3 km/h (2 Bft) SW 222 2 min 0,432 mm 2,9 UV-I 756 W/m 18,0 C 28,7 C 12,9 km/h (3 Bft) 96,00 %
27.08.2017 15:02 29,0 C 25,0 C 53 % 1013,5 hPa 0,0 l/m 5,0 km/h (1 Bft) W-SW 256 2 min 0,000 mm 3,1 UV-I 756 W/m 18,4 C 29,0 C 9,7 km/h (2 Bft) 97,50 %
27.08.2017 15:04 29,0 C 25,0 C 51 % 1013,4 hPa 0,0 l/m 7,8 km/h (2 Bft) W-NW 297 2 min 0,000 mm 2,5 UV-I 621 W/m 17,8 C 28,8 C 14,5 km/h (3 Bft) 96,00 %
27.08.2017 15:06 28,9 C 25,0 C 52 % 1013,4 hPa 0,0 l/m 6,4 km/h (2 Bft) SW 231 0 min 0,000 mm 1,9 UV-I 256 W/m 18,0 C 28,9 C 12,9 km/h (3 Bft) 95,74 %
27.08.2017 15:08 28,7 C 25,0 C 51 % 1013,4 hPa 0,0 l/m 7,2 km/h (2 Bft) W-SW 250 0 min 0,000 mm 1,6 UV-I 218 W/m 17,5 C 28,6 C 11,3 km/h (2 Bft) 97,87 %
27.08.2017 15:10 28,4 C 25,0 C 51 % 1013,4 hPa 0,0 l/m 7,3 km/h (2 Bft) SW 218 0 min 0,000 mm 1,3 UV-I 200 W/m 17,3 C 28,3 C 12,9 km/h (3 Bft) 97,87 %
27.08.2017 15:12 28,3 C 25,0 C 51 % 1013,4 hPa 0,0 l/m 5,8 km/h (2 Bft) S-SW 211 0 min 0,000 mm 1,2 UV-I 196 W/m 17,2 C 28,3 C 8,0 km/h (2 Bft) 98,00 %
27.08.2017 15:14 28,3 C 25,0 C 53 % 1013,4 hPa 0,0 l/m 5,6 km/h (1 Bft) W 263 0 min 0,000 mm 1,2 UV-I 213 W/m 17,8 C 28,3 C 9,7 km/h (2 Bft) 97,14 %
27.08.2017 15:16 28,2 C 25,0 C 54 % 1013,4 hPa 0,0 l/m 6,1 km/h (2 Bft) W 278 0 min 0,000 mm 1,4 UV-I 262 W/m 18,0 C 28,2 C 11,3 km/h (2 Bft) 98,11 %
27.08.2017 15:18 28,2 C 25,0 C 54 % 1013,4 hPa 0,0 l/m 7,4 km/h (2 Bft) W-SW 251 0 min 0,000 mm 1,8 UV-I 307 W/m 18,0 C 28,0 C 12,9 km/h (3 Bft) 98,11 %
27.08.2017 15:20 28,1 C 25,0 C 53 % 1013,4 hPa 0,0 l/m 6,9 km/h (2 Bft) SW 228 0 min 0,000 mm 2,1 UV-I 360 W/m 17,6 C 28,0 C 14,5 km/h (3 Bft) 97,87 %
27.08.2017 15:22 28,2 C 25,0 C 52 % 1013,4 hPa 0,0 l/m 7,1 km/h (2 Bft) W-SW 238 0 min 0,000 mm 2,0 UV-I 342 W/m 17,4 C 28,1 C 16,1 km/h (3 Bft) 88,57 %
27.08.2017 15:24 28,2 C 25,0 C 53 % 1013,4 hPa 0,0 l/m 3,9 km/h (1 Bft) W 261 2 min 0,000 mm 2,2 UV-I 378 W/m 17,7 C 28,2 C 9,7 km/h (2 Bft) 97,87 %
27.08.2017 15:26 28,2 C 25,0 C 54 % 1013,4 hPa 0,0 l/m 5,6 km/h (1 Bft) S-SO 164 2 min 0,000 mm 2,3 UV-I 405 W/m 18,0 C 28,2 C 9,7 km/h (2 Bft) 100,00 %
27.08.2017 15:28 28,3 C 25,0 C 54 % 1013,4 hPa 0,0 l/m 2,5 km/h (1 Bft) W-NW 296 2 min 0,000 mm 2,2 UV-I 371 W/m 18,1 C 28,3 C 6,4 km/h (2 Bft) 100,00 %
27.08.2017 15:30 28,3 C 25,0 C 56 % 1013,5 hPa 0,0 l/m 5,0 km/h (1 Bft) W-NW 302 2 min 0,000 mm 2,2 UV-I 364 W/m 18,7 C 28,3 C 14,5 km/h (3 Bft) 97,96 %
27.08.2017 15:32 28,2 C 25,0 C 54 % 1013,5 hPa 0,0 l/m 2,3 km/h (1 Bft) SW 221 0 min 0,000 mm 1,9 UV-I 293 W/m 18,0 C 28,2 C 4,8 km/h (1 Bft) 100,00 %
27.08.2017 15:34 28,1 C 25,0 C 55 % 1013,6 hPa 0,0 l/m 4,0 km/h (1 Bft) SW 235 0 min 0,000 mm 1,6 UV-I 217 W/m 18,2 C 28,1 C 6,4 km/h (2 Bft) 98,00 %
27.08.2017 15:36 28,1 C 25,0 C 55 % 1013,5 hPa 0,0 l/m 4,6 km/h (1 Bft) S-SW 196 0 min 0,000 mm 1,5 UV-I 204 W/m 18,2 C 28,1 C 9,7 km/h (2 Bft) 100,00 %
27.08.2017 15:38 27,9 C 25,0 C 54 % 1013,5 hPa 0,0 l/m 6,8 km/h (2 Bft) W-SW 252 0 min 0,000 mm 1,4 UV-I 203 W/m 17,7 C 27,8 C 14,5 km/h (3 Bft) 97,87 %
27.08.2017 15:40 27,7 C 25,0 C 55 % 1013,5 hPa 0,0 l/m 5,3 km/h (1 Bft) SO 140 0 min 0,000 mm 1,5 UV-I 238 W/m 17,8 C 27,7 C 16,1 km/h (3 Bft) 100,00 %
27.08.2017 15:42 27,7 C 25,0 C 57 % 1013,5 hPa 0,0 l/m 6,0 km/h (2 Bft) W-SW 247 0 min 0,000 mm 2,0 UV-I 328 W/m 18,4 C 27,7 C 11,3 km/h (2 Bft) 95,74 %
27.08.2017 15:44 27,7 C 25,0 C 56 % 1013,5 hPa 0,0 l/m 5,0 km/h (1 Bft) W 259 2 min 0,000 mm 2,2 UV-I 380 W/m 18,1 C 27,7 C 11,3 km/h (2 Bft) 100,00 %
27.08.2017 15:46 27,8 C 25,0 C 55 % 1013,6 hPa 0,0 l/m 7,9 km/h (2 Bft) SW 236 2 min 0,000 mm 2,5 UV-I 424 W/m 17,9 C 27,6 C 14,5 km/h (3 Bft) 100,00 %
27.08.2017 15:48 27,9 C 25,0 C 54 % 1013,6 hPa 0,0 l/m 7,5 km/h (2 Bft) W 275 2 min 0,000 mm 2,4 UV-I 544 W/m 17,7 C 27,7 C 14,5 km/h (3 Bft) 100,00 %
27.08.2017 15:50 27,9 C 25,0 C 55 % 1013,5 hPa 0,0 l/m 6,9 km/h (2 Bft) W-SW 257 2 min 0,000 mm 1,9 UV-I 396 W/m 18,0 C 27,8 C 12,9 km/h (3 Bft) 100,00 %
27.08.2017 15:52 27,8 C 25,0 C 55 % 1013,6 hPa 0,0 l/m 6,2 km/h (2 Bft) N-NW 337 0 min 0,000 mm 1,8 UV-I 288 W/m 17,9 C 27,8 C 17,7 km/h (3 Bft) 100,00 %
27.08.2017 15:54 27,7 C 25,0 C 55 % 1013,6 hPa 0,0 l/m 6,5 km/h (2 Bft) SW 227 0 min 0,000 mm 1,8 UV-I 276 W/m 17,8 C 27,7 C 12,9 km/h (3 Bft) 100,00 %
27.08.2017 15:56 27,7 C 25,0 C 55 % 1013,6 hPa 0,0 l/m 6,2 km/h (2 Bft) NW 315 0 min 0,000 mm 1,6 UV-I 245 W/m 17,8 C 27,7 C 9,7 km/h (2 Bft) 100,00 %
27.08.2017 15:58 27,5 C 25,0 C 57 % 1013,7 hPa 0,0 l/m 3,4 km/h (1 Bft) W-NW 298 0 min 0,000 mm 1,6 UV-I 250 W/m 18,2 C 27,5 C 14,5 km/h (3 Bft) 100,00 %
27.08.2017 16:00 27,3 C 25,0 C 56 % 1013,6 hPa 0,0 l/m 8,5 km/h (2 Bft) SW 222 0 min 0,254 mm 1,7 UV-I 292 W/m 17,7 C 26,9 C 20,9 km/h (4 Bft) 100,00 %
27.08.2017 16:02 27,3 C 25,0 C 56 % 1013,6 hPa 0,0 l/m 12,2 km/h (2 Bft) W 277 2 min 0,000 mm 1,9 UV-I 425 W/m 17,7 C 26,4 C 32,2 km/h (5 Bft) 95,74 %
27.08.2017 16:04 27,3 C 25,0 C 56 % 1013,7 hPa 0,0 l/m 11,0 km/h (2 Bft) W 280 2 min 0,000 mm 1,9 UV-I 503 W/m 17,7 C 26,6 C 22,5 km/h (4 Bft) 100,00 %
27.08.2017 16:06 27,2 C 25,0 C 57 % 1013,6 hPa 0,0 l/m 8,8 km/h (2 Bft) W-SW 252 2 min 0,000 mm 1,8 UV-I 420 W/m 17,9 C 26,8 C 16,1 km/h (3 Bft) 100,00 %
27.08.2017 16:08 27,2 C 25,0 C 56 % 1013,7 hPa 0,0 l/m 12,3 km/h (3 Bft) W 268 0 min 0,000 mm 1,5 UV-I 298 W/m 17,6 C 26,3 C 24,1 km/h (4 Bft) 97,87 %
27.08.2017 16:10 27,1 C 25,0 C 56 % 1013,8 hPa 0,0 l/m 10,2 km/h (2 Bft) W-SW 256 0 min 0,000 mm 1,3 UV-I 272 W/m 17,5 C 26,5 C 20,9 km/h (4 Bft) 100,00 %
27.08.2017 16:12 27,0 C 25,0 C 56 % 1013,7 hPa 0,0 l/m 6,2 km/h (2 Bft) W-SW 252 0 min 0,000 mm 1,3 UV-I 255 W/m 17,5 C 27,0 C 11,3 km/h (2 Bft) 100,00 %
27.08.2017 16:14 26,9 C 25,0 C 56 % 1013,7 hPa 0,0 l/m 7,6 km/h (2 Bft) W-SW 257 0 min 0,000 mm 1,2 UV-I 249 W/m 17,4 C 26,7 C 14,5 km/h (3 Bft) 100,00 %
27.08.2017 16:16 26,8 C 25,0 C 57 % 1013,6 hPa 0,0 l/m 6,9 km/h (2 Bft) W-SW 256 0 min 0,000 mm 1,2 UV-I 235 W/m 17,6 C 26,7 C 12,9 km/h (3 Bft) 96,23 %
27.08.2017 16:18 26,8 C 25,0 C 57 % 1013,7 hPa 0,0 l/m 7,9 km/h (2 Bft) N-NW 336 0 min 0,000 mm 1,2 UV-I 230 W/m 17,6 C 26,5 C 14,5 km/h (3 Bft) 97,87 %
27.08.2017 16:20 26,8 C 25,0 C 56 % 1013,8 hPa 0,0 l/m 9,1 km/h (2 Bft) NW 312 0 min 0,000 mm 1,2 UV-I 231 W/m 17,3 C 26,3 C 16,1 km/h (3 Bft) 97,87 %
27.08.2017 16:22 26,7 C 25,0 C 57 % 1013,8 hPa 0,0 l/m 5,7 km/h (1 Bft) NW 309 0 min 0,000 mm 1,2 UV-I 233 W/m 17,5 C 26,7 C 12,9 km/h (3 Bft) 97,87 %
27.08.2017 16:24 26,7 C 25,0 C 57 % 1013,7 hPa 0,0 l/m 7,1 km/h (2 Bft) N-NW 327 0 min 0,000 mm 1,2 UV-I 235 W/m 17,5 C 26,6 C 14,5 km/h (3 Bft) 97,87 %
27.08.2017 16:26 26,7 C 25,0 C 58 % 1013,7 hPa 0,0 l/m 4,8 km/h (1 Bft) W 279 0 min 0,000 mm 1,1 UV-I 233 W/m 17,7 C 26,7 C 11,3 km/h (2 Bft) 95,92 %
27.08.2017 16:28 26,6 C 25,0 C 58 % 1013,8 hPa 0,0 l/m 7,1 km/h (2 Bft) W 264 0 min 0,000 mm 1,1 UV-I 229 W/m 17,6 C 26,5 C 16,1 km/h (3 Bft) 97,37 %
27.08.2017 16:30 26,6 C 25,0 C 58 % 1013,7 hPa 0,0 l/m 5,7 km/h (1 Bft) W-NW 284 0 min 0,000 mm 1,1 UV-I 224 W/m 17,6 C 26,6 C 11,3 km/h (2 Bft) 98,00 %
27.08.2017 16:32 26,5 C 25,0 C 58 % 1013,8 hPa 0,0 l/m 10,9 km/h (2 Bft) W-NW 296 0 min 0,000 mm 1,0 UV-I 216 W/m 17,5 C 25,7 C 20,9 km/h (4 Bft) 97,87 %
27.08.2017 16:34 26,4 C 25,0 C 59 % 1013,8 hPa 0,0 l/m 5,8 km/h (2 Bft) W 261 0 min 0,000 mm 0,9 UV-I 206 W/m 17,7 C 26,4 C 12,9 km/h (3 Bft) 95,74 %
27.08.2017 16:36 26,3 C 25,0 C 59 % 1013,8 hPa 0,0 l/m 6,7 km/h (2 Bft) W-SW 238 0 min 0,000 mm 0,9 UV-I 193 W/m 17,6 C 26,2 C 17,7 km/h (3 Bft) 95,92 %
27.08.2017 16:38 26,3 C 25,0 C 59 % 1013,8 hPa 0,0 l/m 5,9 km/h (2 Bft) W-SW 245 0 min 0,000 mm 0,8 UV-I 183 W/m 17,6 C 26,3 C 11,3 km/h (2 Bft) 97,87 %
27.08.2017 16:40 26,2 C 25,0 C 60 % 1013,9 hPa 0,0 l/m 4,3 km/h (1 Bft) W-NW 296 0 min 0,000 mm 0,7 UV-I 175 W/m 17,8 C 26,2 C 6,4 km/h (2 Bft) 97,56 %
27.08.2017 16:42 26,2 C 25,0 C 61 % 1014,0 hPa 0,0 l/m 6,1 km/h (2 Bft) W-SW 244 0 min 0,000 mm 0,7 UV-I 170 W/m 18,1 C 26,2 C 14,5 km/h (3 Bft) 95,74 %
27.08.2017 16:44 26,1 C 25,0 C 61 % 1014,1 hPa 0,0 l/m 8,2 km/h (2 Bft) W 262 0 min 0,000 mm 0,6 UV-I 165 W/m 18,0 C 25,7 C 19,3 km/h (3 Bft) 98,00 %
27.08.2017 16:46 26,1 C 25,0 C 61 % 1014,1 hPa 0,0 l/m 5,4 km/h (1 Bft) W 265 0 min 0,000 mm 0,6 UV-I 161 W/m 18,0 C 26,1 C 11,3 km/h (2 Bft) 97,96 %
27.08.2017 16:48 25,9 C 25,0 C 61 % 1014,1 hPa 0,0 l/m 6,1 km/h (2 Bft) N-NW 333 0 min 0,000 mm 0,6 UV-I 160 W/m 17,8 C 25,9 C 11,3 km/h (2 Bft) 98,00 %
27.08.2017 16:50 25,9 C 25,0 C 61 % 1014,2 hPa 0,0 l/m 6,6 km/h (2 Bft) W 261 0 min 0,000 mm 0,6 UV-I 165 W/m 17,8 C 25,9 C 16,1 km/h (3 Bft) 100,00 %
27.08.2017 16:52 25,9 C 25,0 C 59 % 1014,2 hPa 0,0 l/m 8,4 km/h (2 Bft) S-SW 208 0 min 0,000 mm 0,7 UV-I 178 W/m 17,3 C 25,5 C 24,1 km/h (4 Bft) 100,00 %
27.08.2017 16:54 25,8 C 25,0 C 57 % 1014,3 hPa 0,0 l/m 10,3 km/h (2 Bft) W-SW 238 0 min 0,000 mm 0,7 UV-I 192 W/m 16,6 C 25,0 C 22,5 km/h (4 Bft) 100,00 %
27.08.2017 16:56 25,6 C 25,0 C 55 % 1014,1 hPa 0,0 l/m 10,0 km/h (2 Bft) NW 315 0 min 0,000 mm 0,7 UV-I 191 W/m 15,9 C 24,8 C 22,5 km/h (4 Bft) 100,00 %
27.08.2017 16:58 25,5 C 25,0 C 53 % 1014,1 hPa 0,0 l/m 10,1 km/h (2 Bft) W-NW 296 0 min 0,000 mm 0,7 UV-I 169 W/m 15,2 C 24,7 C 17,7 km/h (3 Bft) 97,87 %
27.08.2017 17:00 25,4 C 25,0 C 53 % 1014,1 hPa 0,0 l/m 8,6 km/h (2 Bft) W-NW 286 0 min 0,000 mm 0,5 UV-I 140 W/m 15,1 C 24,9 C 25,7 km/h (4 Bft) 97,87 %
27.08.2017 17:02 25,3 C 25,0 C 54 % 1014,1 hPa 0,0 l/m 5,9 km/h (2 Bft) W 259 0 min 0,203 mm 0,1 UV-I 120 W/m 15,3 C 25,3 C 12,9 km/h (3 Bft) 98,00 %
27.08.2017 17:04 25,2 C 25,0 C 53 % 1014,1 hPa 0,0 l/m 11,4 km/h (2 Bft) NW 304 0 min 0,000 mm 0,0 UV-I 108 W/m 14,9 C 24,1 C 29,0 km/h (5 Bft) 100,00 %
27.08.2017 17:06 25,1 C 25,0 C 53 % 1014,1 hPa 0,0 l/m 4,6 km/h (1 Bft) N-NW 331 0 min 0,000 mm 0,0 UV-I 105 W/m 14,8 C 25,1 C 9,7 km/h (2 Bft) 100,00 %
27.08.2017 17:08 25,1 C 25,0 C 54 % 1014,2 hPa 0,0 l/m 10,7 km/h (2 Bft) N 5 0 min 0,000 mm 0,0 UV-I 118 W/m 15,1 C 24,1 C 17,7 km/h (3 Bft) 100,00 %
27.08.2017 17:10 25,0 C 25,0 C 55 % 1014,1 hPa 0,0 l/m 8,7 km/h (2 Bft) W-NW 302 0 min 0,000 mm 0,4 UV-I 137 W/m 15,3 C 24,4 C 14,5 km/h (3 Bft) 100,00 %
27.08.2017 17:12 25,0 C 25,0 C 55 % 1014,2 hPa 0,0 l/m 6,5 km/h (2 Bft) N-NW 333 0 min 0,000 mm 0,5 UV-I 149 W/m 15,3 C 25,0 C 11,3 km/h (2 Bft) 95,74 %
27.08.2017 17:14 25,0 C 25,0 C 55 % 1014,2 hPa 0,0 l/m 10,5 km/h (2 Bft) W-SW 245 0 min 0,000 mm 0,5 UV-I 160 W/m 15,3 C 24,1 C 20,9 km/h (4 Bft) 97,87 %
27.08.2017 17:16 24,9 C 25,0 C 55 % 1014,2 hPa 0,0 l/m 8,6 km/h (2 Bft) W 275 0 min 0,000 mm 0,6 UV-I 163 W/m 15,2 C 24,4 C 16,1 km/h (3 Bft) 97,87 %
27.08.2017 17:18 24,9 C 25,0 C 55 % 1014,2 hPa 0,0 l/m 6,8 km/h (2 Bft) SW 234 0 min 0,000 mm 0,5 UV-I 163 W/m 15,2 C 24,8 C 12,9 km/h (3 Bft) 100,00 %
27.08.2017 17:20 24,9 C 25,0 C 55 % 1014,2 hPa 0,0 l/m 11,1 km/h (2 Bft) NW 311 0 min 0,000 mm 0,5 UV-I 165 W/m 15,2 C 23,8 C 19,3 km/h (3 Bft) 100,00 %
27.08.2017 17:22 24,9 C 25,0 C 54 % 1014,2 hPa 0,0 l/m 11,0 km/h (2 Bft) SW 235 0 min 0,000 mm 0,5 UV-I 171 W/m 14,9 C 23,9 C 17,7 km/h (3 Bft) 93,62 %
27.08.2017 17:24 24,9 C 25,0 C 54 % 1014,1 hPa 0,0 l/m 6,9 km/h (2 Bft) SW 216 0 min 0,000 mm 0,5 UV-I 171 W/m 14,9 C 24,8 C 12,9 km/h (3 Bft) 98,00 %
27.08.2017 17:26 24,9 C 25,0 C 55 % 1014,2 hPa 0,0 l/m 8,9 km/h (2 Bft) W 263 0 min 0,000 mm 0,5 UV-I 171 W/m 15,2 C 24,3 C 17,7 km/h (3 Bft) 100,00 %
27.08.2017 17:28 24,9 C 25,0 C 55 % 1014,1 hPa 0,0 l/m 9,2 km/h (2 Bft) SW 233 0 min 0,000 mm 0,5 UV-I 174 W/m 15,2 C 24,2 C 17,7 km/h (3 Bft) 100,00 %
27.08.2017 17:30 24,9 C 25,0 C 55 % 1014,1 hPa 0,0 l/m 10,4 km/h (2 Bft) SW 232 0 min 0,000 mm 0,6 UV-I 183 W/m 15,2 C 24,0 C 17,7 km/h (3 Bft) 100,00 %
27.08.2017 17:32 24,8 C 25,0 C 56 % 1014,2 hPa 0,0 l/m 9,4 km/h (2 Bft) W-SW 244 0 min 0,000 mm 0,6 UV-I 193 W/m 15,4 C 24,1 C 16,1 km/h (3 Bft) 100,00 %
27.08.2017 17:34 24,8 C 25,0 C 56 % 1014,2 hPa 0,0 l/m 9,6 km/h (2 Bft) W-SW 251 0 min 0,000 mm 0,6 UV-I 201 W/m 15,4 C 24,0 C 16,1 km/h (3 Bft) 100,00 %
27.08.2017 17:36 24,9 C 25,0 C 57 % 1014,2 hPa 0,0 l/m 8,6 km/h (2 Bft) W 265 0 min 0,000 mm 0,6 UV-I 196 W/m 15,8 C 24,4 C 14,5 km/h (3 Bft) 100,00 %
27.08.2017 17:38 24,8 C 25,0 C 55 % 1014,1 hPa 0,0 l/m 9,9 km/h (2 Bft) W-SW 255 0 min 0,000 mm 0,6 UV-I 196 W/m 15,1 C 24,0 C 17,7 km/h (3 Bft) 100,00 %
27.08.2017 17:40 24,9 C 25,0 C 56 % 1014,1 hPa 0,0 l/m 7,7 km/h (2 Bft) W-SW 253 2 min 0,000 mm 0,6 UV-I 217 W/m 15,5 C 24,6 C 12,9 km/h (3 Bft) 100,00 %
27.08.2017 17:42 24,9 C 25,0 C 57 % 1013,9 hPa 0,0 l/m 9,2 km/h (2 Bft) W-SW 246 2 min 0,000 mm 0,6 UV-I 238 W/m 15,8 C 24,2 C 20,9 km/h (4 Bft) 100,00 %
27.08.2017 17:44 24,9 C 25,0 C 57 % 1013,9 hPa 0,0 l/m 9,3 km/h (2 Bft) NW 313 2 min 0,000 mm 0,6 UV-I 217 W/m 15,8 C 24,2 C 12,9 km/h (3 Bft) 98,00 %
27.08.2017 17:46 24,9 C 25,0 C 57 % 1013,9 hPa 0,0 l/m 7,9 km/h (2 Bft) W 260 2 min 0,000 mm 0,6 UV-I 266 W/m 15,8 C 24,5 C 11,3 km/h (2 Bft) 97,87 %
27.08.2017 17:48 25,0 C 25,0 C 57 % 1014,0 hPa 0,0 l/m 6,8 km/h (2 Bft) SW 228 2 min 0,000 mm 0,6 UV-I 284 W/m 15,9 C 24,9 C 11,3 km/h (2 Bft) 97,87 %
27.08.2017 17:50 25,1 C 25,0 C 57 % 1014,0 hPa 0,0 l/m 10,9 km/h (2 Bft) SW 225 2 min 0,000 mm 0,6 UV-I 258 W/m 16,0 C 24,1 C 17,7 km/h (3 Bft) 96,00 %
27.08.2017 17:52 25,1 C 25,0 C 57 % 1014,0 hPa 0,0 l/m 11,8 km/h (2 Bft) W-SW 239 2 min 0,000 mm 0,6 UV-I 249 W/m 16,0 C 23,9 C 20,9 km/h (4 Bft) 98,00 %
27.08.2017 17:54 25,1 C 25,0 C 57 % 1014,1 hPa 0,0 l/m 12,1 km/h (2 Bft) W 263 2 min 0,000 mm 0,6 UV-I 242 W/m 16,0 C 23,9 C 19,3 km/h (3 Bft) 100,00 %
27.08.2017 17:56 25,1 C 25,0 C 58 % 1014,0 hPa 0,0 l/m 9,1 km/h (2 Bft) W-NW 286 2 min 0,000 mm 0,5 UV-I 212 W/m 16,2 C 24,5 C 14,5 km/h (3 Bft) 97,37 %
27.08.2017 17:58 25,1 C 25,0 C 58 % 1014,1 hPa 0,0 l/m 5,8 km/h (2 Bft) W-SW 256 2 min 0,000 mm 0,5 UV-I 191 W/m 16,2 C 25,1 C 9,7 km/h (2 Bft) 98,00 %
27.08.2017 18:00 25,1 C 25,0 C 58 % 1014,1 hPa 0,0 l/m 6,7 km/h (2 Bft) SW 225 2 min 0,000 mm 0,5 UV-I 179 W/m 16,2 C 25,0 C 11,3 km/h (2 Bft) 97,87 %
27.08.2017 18:02 25,0 C 25,0 C 58 % 1014,0 hPa 0,0 l/m 10,1 km/h (2 Bft) W-NW 289 0 min 0,178 mm 0,3 UV-I 163 W/m 16,1 C 24,1 C 19,3 km/h (3 Bft) 100,00 %
27.08.2017 18:04 24,9 C 25,0 C 58 % 1014,1 hPa 0,0 l/m 7,8 km/h (2 Bft) SW 228 2 min 0,000 mm 0,0 UV-I 168 W/m 16,1 C 24,5 C 12,9 km/h (3 Bft) 100,00 %
27.08.2017 18:06 24,9 C 25,0 C 59 % 1014,1 hPa 0,0 l/m 10,3 km/h (2 Bft) SW 234 0 min 0,000 mm 0,0 UV-I 160 W/m 16,3 C 24,0 C 16,1 km/h (3 Bft) 97,87 %
27.08.2017 18:08 24,9 C 25,0 C 59 % 1014,1 hPa 0,0 l/m 8,6 km/h (2 Bft) W 263 2 min 0,000 mm 0,0 UV-I 162 W/m 16,3 C 24,4 C 14,5 km/h (3 Bft) 95,74 %
27.08.2017 18:10 24,9 C 25,0 C 60 % 1014,1 hPa 0,0 l/m 9,7 km/h (2 Bft) W-SW 248 0 min 0,000 mm 0,0 UV-I 153 W/m 16,6 C 24,1 C 14,5 km/h (3 Bft) 95,74 %
27.08.2017 18:12 24,8 C 25,0 C 60 % 1014,1 hPa 0,0 l/m 7,7 km/h (2 Bft) W-SW 252 0 min 0,000 mm 0,0 UV-I 145 W/m 16,5 C 24,5 C 16,1 km/h (3 Bft) 95,74 %
27.08.2017 18:14 24,8 C 25,0 C 60 % 1014,1 hPa 0,0 l/m 7,3 km/h (2 Bft) W-SW 241 0 min 0,000 mm 0,0 UV-I 138 W/m 16,5 C 24,6 C 14,5 km/h (3 Bft) 91,67 %
27.08.2017 18:16 24,7 C 25,0 C 60 % 1014,1 hPa 0,0 l/m 7,7 km/h (2 Bft) W-SW 249 0 min 0,000 mm 0,0 UV-I 121 W/m 16,4 C 24,4 C 11,3 km/h (2 Bft) 93,62 %
27.08.2017 18:18 24,7 C 25,0 C 60 % 1014,1 hPa 0,0 l/m 8,0 km/h (2 Bft) SW 227 0 min 0,000 mm 0,0 UV-I 111 W/m 16,4 C 24,3 C 14,5 km/h (3 Bft) 95,74 %
27.08.2017 18:20 24,6 C 25,0 C 60 % 1014,1 hPa 0,0 l/m 9,4 km/h (2 Bft) W 269 0 min 0,000 mm 0,0 UV-I 102 W/m 16,3 C 23,9 C 12,9 km/h (3 Bft) 93,62 %
27.08.2017 18:22 24,5 C 25,0 C 60 % 1014,1 hPa 0,0 l/m 8,7 km/h (2 Bft) W-SW 252 0 min 0,000 mm 0,0 UV-I 97 W/m 16,2 C 23,9 C 12,9 km/h (3 Bft) 95,74 %
27.08.2017 18:24 24,5 C 25,0 C 61 % 1014,2 hPa 0,0 l/m 10,6 km/h (2 Bft) W-SW 244 0 min 0,000 mm 0,0 UV-I 93 W/m 16,5 C 23,5 C 14,5 km/h (3 Bft) 92,11 %
27.08.2017 18:26 24,4 C 25,0 C 60 % 1014,1 hPa 0,0 l/m 9,7 km/h (2 Bft) W-SW 244 0 min 0,000 mm 0,0 UV-I 90 W/m 16,1 C 23,6 C 16,1 km/h (3 Bft) 93,62 %
27.08.2017 18:28 24,4 C 25,0 C 60 % 1014,2 hPa 0,0 l/m 12,1 km/h (2 Bft) W-SW 252 0 min 0,000 mm 0,0 UV-I 86 W/m 16,1 C 23,1 C 19,3 km/h (3 Bft) 93,62 %
27.08.2017 18:30 24,3 C 25,0 C 60 % 1014,2 hPa 0,0 l/m 7,5 km/h (2 Bft) W-SW 242 0 min 0,000 mm 0,0 UV-I 83 W/m 16,0 C 24,0 C 11,3 km/h (2 Bft) 91,49 %
27.08.2017 18:32 24,3 C 25,0 C 60 % 1014,3 hPa 0,0 l/m 7,2 km/h (2 Bft) SW 219 0 min 0,000 mm 0,0 UV-I 79 W/m 16,0 C 24,1 C 11,3 km/h (2 Bft) 95,74 %
27.08.2017 18:34 24,2 C 25,0 C 60 % 1014,2 hPa 0,0 l/m 8,4 km/h (2 Bft) W-SW 240 0 min 0,000 mm 0,0 UV-I 75 W/m 15,9 C 23,7 C 12,9 km/h (3 Bft) 95,74 %
27.08.2017 18:36 24,1 C 25,0 C 61 % 1014,4 hPa 0,0 l/m 8,5 km/h (2 Bft) W-SW 242 0 min 0,000 mm 0,0 UV-I 72 W/m 16,1 C 23,5 C 14,5 km/h (3 Bft) 92,00 %
27.08.2017 18:38 24,1 C 25,0 C 61 % 1014,3 hPa 0,0 l/m 9,1 km/h (2 Bft) W-SW 254 0 min 0,000 mm 0,0 UV-I 72 W/m 16,1 C 23,4 C 14,5 km/h (3 Bft) 95,12 %
27.08.2017 18:40 24,1 C 25,0 C 60 % 1014,3 hPa 0,0 l/m 7,8 km/h (2 Bft) W-SW 253 0 min 0,000 mm 0,0 UV-I 72 W/m 15,8 C 23,7 C 14,5 km/h (3 Bft) 92,00 %
27.08.2017 18:42 24,0 C 25,0 C 61 % 1014,3 hPa 0,0 l/m 4,8 km/h (1 Bft) W-SW 246 0 min 0,000 mm 0,0 UV-I 70 W/m 16,0 C 24,0 C 8,0 km/h (2 Bft) 93,62 %
27.08.2017 18:44 23,9 C 25,0 C 61 % 1014,3 hPa 0,0 l/m 4,0 km/h (1 Bft) SW 236 0 min 0,000 mm 0,0 UV-I 68 W/m 15,9 C 23,9 C 6,4 km/h (2 Bft) 97,87 %
27.08.2017 18:46 23,9 C 25,0 C 60 % 1014,2 hPa 0,0 l/m 8,9 km/h (2 Bft) W-SW 244 0 min 0,000 mm 0,0 UV-I 65 W/m 15,7 C 23,2 C 14,5 km/h (3 Bft) 98,00 %
27.08.2017 18:48 23,9 C 25,0 C 61 % 1014,3 hPa 0,0 l/m 7,4 km/h (2 Bft) SW 228 0 min 0,000 mm 0,0 UV-I 63 W/m 15,9 C 23,6 C 12,9 km/h (3 Bft) 95,74 %
27.08.2017 18:50 23,8 C 25,0 C 61 % 1014,3 hPa 0,0 l/m 8,4 km/h (2 Bft) SW 223 0 min 0,000 mm 0,0 UV-I 63 W/m 15,8 C 23,2 C 12,9 km/h (3 Bft) 97,92 %
27.08.2017 18:52 23,8 C 25,0 C 61 % 1014,3 hPa 0,0 l/m 7,6 km/h (2 Bft) SW 227 0 min 0,000 mm 0,0 UV-I 64 W/m 15,8 C 23,5 C 11,3 km/h (2 Bft) 97,87 %
27.08.2017 18:54 23,8 C 25,0 C 61 % 1014,3 hPa 0,0 l/m 7,1 km/h (2 Bft) W-SW 240 0 min 0,000 mm 0,0 UV-I 66 W/m 15,8 C 23,6 C 11,3 km/h (2 Bft) 96,00 %
27.08.2017 18:56 23,8 C 25,0 C 61 % 1014,4 hPa 0,0 l/m 6,9 km/h (2 Bft) SW 234 0 min 0,000 mm 0,0 UV-I 68 W/m 15,8 C 23,7 C 12,9 km/h (3 Bft) 97,87 %
27.08.2017 18:58 23,7 C 25,0 C 61 % 1014,3 hPa 0,0 l/m 8,0 km/h (2 Bft) SW 223 0 min 0,000 mm 0,0 UV-I 69 W/m 15,7 C 23,2 C 14,5 km/h (3 Bft) 95,74 %
27.08.2017 19:00 23,7 C 25,0 C 61 % 1014,4 hPa 0,0 l/m 6,5 km/h (2 Bft) SW 219 0 min 0,127 mm 0,0 UV-I 68 W/m 15,7 C 23,7 C 11,3 km/h (2 Bft) 97,87 %
27.08.2017 19:02 23,7 C 25,0 C 61 % 1014,4 hPa 0,0 l/m 6,4 km/h (2 Bft) W-SW 257 0 min 0,000 mm 0,0 UV-I 66 W/m 15,7 C 23,7 C 9,7 km/h (2 Bft) 100,00 %
27.08.2017 19:04 23,7 C 25,0 C 61 % 1014,3 hPa 0,0 l/m 5,7 km/h (1 Bft) SW 218 0 min 0,000 mm 0,0 UV-I 64 W/m 15,7 C 23,7 C 11,3 km/h (2 Bft) 95,74 %
27.08.2017 19:06 23,6 C 25,0 C 61 % 1014,4 hPa 0,0 l/m 5,9 km/h (2 Bft) W-SW 248 0 min 0,000 mm 0,0 UV-I 61 W/m 15,6 C 23,6 C 11,3 km/h (2 Bft) 98,00 %
27.08.2017 19:08 23,6 C 25,0 C 61 % 1014,3 hPa 0,0 l/m 8,1 km/h (2 Bft) W-SW 242 0 min 0,000 mm 0,0 UV-I 57 W/m 15,6 C 23,1 C 12,9 km/h (3 Bft) 97,87 %
27.08.2017 19:10 23,6 C 25,0 C 61 % 1014,4 hPa 0,0 l/m 9,3 km/h (2 Bft) W-SW 255 0 min 0,000 mm 0,0 UV-I 51 W/m 15,6 C 22,8 C 16,1 km/h (3 Bft) 98,00 %
27.08.2017 19:12 23,6 C 25,0 C 61 % 1014,4 hPa 0,0 l/m 7,1 km/h (2 Bft) W-SW 257 0 min 0,000 mm 0,0 UV-I 47 W/m 15,6 C 23,4 C 14,5 km/h (3 Bft) 97,87 %
27.08.2017 19:14 23,5 C 25,0 C 62 % 1014,4 hPa 0,0 l/m 8,0 km/h (2 Bft) W-SW 248 0 min 0,000 mm 0,0 UV-I 44 W/m 15,8 C 23,0 C 12,9 km/h (3 Bft) 97,87 %
27.08.2017 19:16 23,4 C 25,0 C 62 % 1014,3 hPa 0,0 l/m 7,0 km/h (2 Bft) W-SW 257 0 min 0,000 mm 0,0 UV-I 41 W/m 15,7 C 23,2 C 11,3 km/h (2 Bft) 97,87 %
27.08.2017 19:18 23,4 C 25,0 C 62 % 1014,4 hPa 0,0 l/m 5,5 km/h (1 Bft) W-SW 246 0 min 0,000 mm 0,0 UV-I 40 W/m 15,7 C 23,4 C 8,0 km/h (2 Bft) 95,74 %
27.08.2017 19:20 23,3 C 25,0 C 62 % 1014,4 hPa 0,0 l/m 4,9 km/h (1 Bft) W-SW 238 0 min 0,000 mm 0,0 UV-I 38 W/m 15,6 C 23,3 C 8,0 km/h (2 Bft) 95,74 %
27.08.2017 19:22 23,3 C 25,0 C 63 % 1014,5 hPa 0,0 l/m 4,7 km/h (1 Bft) W 259 0 min 0,000 mm 0,0 UV-I 36 W/m 15,9 C 23,3 C 6,4 km/h (2 Bft) 100,00 %
27.08.2017 19:24 23,2 C 25,0 C 63 % 1014,4 hPa 0,0 l/m 4,3 km/h (1 Bft) W-SW 256 0 min 0,000 mm 0,0 UV-I 33 W/m 15,8 C 23,2 C 8,0 km/h (2 Bft) 100,00 %
27.08.2017 19:26 23,1 C 25,0 C 63 % 1014,5 hPa 0,0 l/m 3,7 km/h (1 Bft) W-SW 254 0 min 0,000 mm 0,0 UV-I 32 W/m 15,7 C 23,1 C 6,4 km/h (2 Bft) 100,00 %
27.08.2017 19:28 23,1 C 25,0 C 64 % 1014,5 hPa 0,0 l/m 5,1 km/h (1 Bft) W 270 0 min 0,000 mm 0,0 UV-I 29 W/m 15,9 C 23,1 C 6,4 km/h (2 Bft) 100,00 %
27.08.2017 19:30 23,0 C 25,0 C 63 % 1014,6 hPa 0,0 l/m 3,8 km/h (1 Bft) W-SW 248 0 min 0,000 mm 0,0 UV-I 27 W/m 15,6 C 23,0 C 4,8 km/h (1 Bft) 100,00 %
27.08.2017 19:32 22,9 C 25,0 C 64 % 1014,6 hPa 0,0 l/m 4,9 km/h (1 Bft) W-SW 244 0 min 0,000 mm 0,0 UV-I 25 W/m 15,7 C 22,9 C 8,0 km/h (2 Bft) 100,00 %
27.08.2017 19:34 22,8 C 25,0 C 64 % 1014,7 hPa 0,0 l/m 4,5 km/h (1 Bft) W-SW 248 0 min 0,000 mm 0,0 UV-I 22 W/m 15,6 C 22,8 C 6,4 km/h (2 Bft) 97,87 %
27.08.2017 19:36 22,7 C 25,0 C 65 % 1014,6 hPa 0,0 l/m 2,8 km/h (1 Bft) W-SW 248 0 min 0,000 mm 0,0 UV-I 20 W/m 15,8 C 22,7 C 4,8 km/h (1 Bft) 98,00 %
27.08.2017 19:38 22,7 C 25,0 C 65 % 1014,7 hPa 0,0 l/m 2,2 km/h (1 Bft) W-SW 248 2 min 0,000 mm 0,0 UV-I 18 W/m 15,8 C 22,7 C 4,8 km/h (1 Bft) 100,00 %
27.08.2017 19:40 22,6 C 25,0 C 65 % 1014,7 hPa 0,0 l/m 1,3 km/h (1 Bft) W-SW 248 2 min 0,000 mm 0,0 UV-I 16 W/m 15,7 C 22,6 C 4,8 km/h (1 Bft) 98,00 %
27.08.2017 19:42 22,4 C 25,0 C 65 % 1014,7 hPa 0,0 l/m 1,0 km/h (0 Bft) W-SW 248 2 min 0,000 mm 0,0 UV-I 14 W/m 15,5 C 22,4 C 3,2 km/h (1 Bft) 100,00 %
27.08.2017 19:44 22,4 C 25,0 C 66 % 1014,7 hPa 0,0 l/m 1,0 km/h (0 Bft) W-SW 248 2 min 0,000 mm 0,0 UV-I 12 W/m 15,7 C 22,4 C 3,2 km/h (1 Bft) 100,00 %
27.08.2017 19:46 22,3 C 25,0 C 66 % 1014,7 hPa 0,0 l/m 0,9 km/h (0 Bft) W-SW 248 0 min 0,000 mm 0,0 UV-I 11 W/m 15,6 C 22,3 C 3,2 km/h (1 Bft) 100,00 %
27.08.2017 19:48 22,3 C 25,0 C 66 % 1014,7 hPa 0,0 l/m 0,3 km/h (0 Bft) W-SW 248 0 min 0,000 mm 0,0 UV-I 9 W/m 15,6 C 22,3 C 1,6 km/h (1 Bft) 97,87 %
27.08.2017 19:50 22,2 C 25,0 C 66 % 1014,7 hPa 0,0 l/m 0,0 km/h (0 Bft) W-SW 248 0 min 0,000 mm 0,0 UV-I 8 W/m 15,5 C 22,2 C 0,0 km/h (0 Bft) 100,00 %
27.08.2017 19:52 22,2 C 25,0 C 66 % 1014,7 hPa 0,0 l/m 0,0 km/h (0 Bft) W-SW 248 0 min 0,000 mm 0,0 UV-I 6 W/m 15,5 C 22,2 C 0,0 km/h (0 Bft) 100,00 %
27.08.2017 19:54 22,1 C 25,0 C 67 % 1014,8 hPa 0,0 l/m 2,3 km/h (1 Bft) W-SW 248 0 min 0,000 mm 0,0 UV-I 5 W/m 15,7 C 22,1 C 4,8 km/h (1 Bft) 100,00 %
27.08.2017 19:56 22,1 C 25,0 C 69 % 1014,8 hPa 0,0 l/m 3,6 km/h (1 Bft) W-SW 248 0 min 0,000 mm 0,0 UV-I 5 W/m 16,1 C 22,1 C 4,8 km/h (1 Bft) 97,87 %
27.08.2017 19:58 21,9 C 25,0 C 69 % 1014,8 hPa 0,0 l/m 3,7 km/h (1 Bft) W-SW 248 0 min 0,000 mm 0,0 UV-I 5 W/m 15,9 C 21,9 C 4,8 km/h (1 Bft) 100,00 %
27.08.2017 20:00 21,8 C 25,0 C 69 % 1014,9 hPa 0,0 l/m 3,1 km/h (1 Bft) W-SW 248 0 min 0,051 mm 0,0 UV-I 3 W/m 15,9 C 21,8 C 4,8 km/h (1 Bft) 100,00 %
27.08.2017 20:03 21,7 C 25,0 C 69 % 1014,9 hPa 0,0 l/m 2,2 km/h (1 Bft) W-SW 248 0 min 0,000 mm 0,0 UV-I 0 W/m 15,8 C 21,7 C 4,8 km/h (1 Bft) 100,00 %
27.08.2017 20:04 21,7 C 25,0 C 70 % 1014,9 hPa 0,0 l/m 1,9 km/h (1 Bft) W-SW 248 0 min 0,000 mm 0,0 UV-I 0 W/m 16,0 C 21,7 C 3,2 km/h (1 Bft) 97,71 %
27.08.2017 20:06 21,6 C 25,0 C 72 % 1014,8 hPa 0,0 l/m 1,9 km/h (1 Bft) W-SW 248 0 min 0,000 mm 0,0 UV-I 0 W/m 16,3 C 21,6 C 3,2 km/h (1 Bft) 98,39 %
27.08.2017 20:08 21,4 C 25,0 C 71 % 1014,9 hPa 0,0 l/m 0,0 km/h (0 Bft) W-SW 248 0 min 0,000 mm 0,0 UV-I 0 W/m 15,9 C 21,4 C 0,0 km/h (0 Bft) 97,96 %
27.08.2017 20:10 21,3 C 25,0 C 71 % 1015,0 hPa 0,0 l/m 0,0 km/h (0 Bft) W-SW 248 0 min 0,000 mm 0,0 UV-I 0 W/m 15,8 C 21,3 C 0,0 km/h (0 Bft) 95,83 %
27.08.2017 20:12 21,3 C 25,0 C 71 % 1015,0 hPa 0,0 l/m 0,5 km/h (0 Bft) W-SW 248 0 min 0,000 mm 0,0 UV-I 0 W/m 15,8 C 21,3 C 1,6 km/h (1 Bft) 97,56 %
27.08.2017 20:14 21,3 C 25,0 C 71 % 1015,1 hPa 0,0 l/m 0,0 km/h (0 Bft) W-SW 248 0 min 0,000 mm 0,0 UV-I 0 W/m 15,8 C 21,3 C 1,6 km/h (1 Bft) 97,87 %
27.08.2017 20:16 21,3 C 25,0 C 71 % 1015,0 hPa 0,0 l/m 0,1 km/h (0 Bft) W-SW 248 0 min 0,000 mm 0,0 UV-I 0 W/m 15,8 C 21,3 C 1,6 km/h (1 Bft) 95,74 %
27.08.2017 20:18 21,3 C 25,0 C 71 % 1015,1 hPa 0,0 l/m 2,7 km/h (1 Bft) W-SW 248 0 min 0,000 mm 0,0 UV-I 0 W/m 15,8 C 21,3 C 4,8 km/h (1 Bft) 97,87 %
27.08.2017 20:20 21,3 C 25,0 C 72 % 1015,1 hPa 0,0 l/m 3,6 km/h (1 Bft) W-SW 248 0 min 0,000 mm 0,0 UV-I 0 W/m 16,0 C 21,3 C 6,4 km/h (2 Bft) 95,74 %
27.08.2017 20:22 21,3 C 25,0 C 71 % 1015,2 hPa 0,0 l/m 4,1 km/h (1 Bft) SW 233 0 min 0,000 mm 0,0 UV-I 0 W/m 15,8 C 21,3 C 6,4 km/h (2 Bft) 95,74 %
27.08.2017 20:24 21,3 C 25,0 C 71 % 1015,2 hPa 0,0 l/m 3,7 km/h (1 Bft) SW 233 0 min 0,000 mm 0,0 UV-I 0 W/m 15,8 C 21,3 C 4,8 km/h (1 Bft) 98,00 %
27.08.2017 20:26 21,3 C 25,0 C 71 % 1015,2 hPa 0,0 l/m 3,0 km/h (1 Bft) SW 233 0 min 0,000 mm 0,0 UV-I 0 W/m 15,8 C 21,3 C 4,8 km/h (1 Bft) 98,00 %
27.08.2017 20:28 21,3 C 25,0 C 70 % 1015,3 hPa 0,0 l/m 4,0 km/h (1 Bft) SW 233 0 min 0,000 mm 0,0 UV-I 0 W/m 15,6 C 21,3 C 6,4 km/h (2 Bft) 95,74 %
27.08.2017 20:30 21,3 C 25,0 C 70 % 1015,4 hPa 0,0 l/m 5,1 km/h (1 Bft) SW 227 0 min 0,000 mm 0,0 UV-I 0 W/m 15,6 C 21,3 C 6,4 km/h (2 Bft) 93,62 %
27.08.2017 20:32 21,3 C 25,0 C 71 % 1015,4 hPa 0,0 l/m 5,0 km/h (1 Bft) SW 229 0 min 0,000 mm 0,0 UV-I 0 W/m 15,8 C 21,3 C 8,0 km/h (2 Bft) 97,87 %
27.08.2017 20:34 21,3 C 25,0 C 71 % 1015,4 hPa 0,0 l/m 4,0 km/h (1 Bft) SW 229 0 min 0,000 mm 0,0 UV-I 0 W/m 15,8 C 21,3 C 6,4 km/h (2 Bft) 95,74 %
27.08.2017 20:36 21,3 C 25,0 C 71 % 1015,4 hPa 0,0 l/m 3,6 km/h (1 Bft) SW 229 0 min 0,000 mm 0,0 UV-I 0 W/m 15,8 C 21,3 C 4,8 km/h (1 Bft) 97,87 %
27.08.2017 20:38 21,2 C 25,0 C 71 % 1015,4 hPa 0,0 l/m 3,7 km/h (1 Bft) SW 229 0 min 0,000 mm 0,0 UV-I 0 W/m 15,7 C 21,2 C 4,8 km/h (1 Bft) 97,87 %
27.08.2017 20:40 21,2 C 25,0 C 71 % 1015,4 hPa 0,0 l/m 3,7 km/h (1 Bft) SW 229 0 min 0,000 mm 0,0 UV-I 0 W/m 15,7 C 21,2 C 6,4 km/h (2 Bft) 97,87 %
27.08.2017 20:42 21,2 C 25,0 C 71 % 1015,4 hPa 0,0 l/m 4,8 km/h (1 Bft) SW 223 0 min 0,000 mm 0,0 UV-I 0 W/m 15,7 C 21,2 C 6,4 km/h (2 Bft) 97,37 %
27.08.2017 20:44 21,2 C 25,0 C 72 % 1015,4 hPa 0,0 l/m 5,0 km/h (1 Bft) SW 223 0 min 0,000 mm 0,0 UV-I 0 W/m 15,9 C 21,2 C 6,4 km/h (2 Bft) 98,00 %
27.08.2017 20:46 21,1 C 25,0 C 72 % 1015,4 hPa 0,0 l/m 6,5 km/h (2 Bft) SW 228 0 min 0,000 mm 0,0 UV-I 0 W/m 15,8 C 21,1 C 9,7 km/h (2 Bft) 100,00 %
27.08.2017 20:48 21,1 C 25,0 C 72 % 1015,4 hPa 0,0 l/m 6,3 km/h (2 Bft) SW 220 0 min 0,000 mm 0,0 UV-I 0 W/m 15,8 C 21,1 C 8,0 km/h (2 Bft) 98,00 %
27.08.2017 20:50 21,1 C 25,0 C 72 % 1015,4 hPa 0,0 l/m 5,5 km/h (1 Bft) SW 215 0 min 0,000 mm 0,0 UV-I 0 W/m 15,8 C 21,1 C 8,0 km/h (2 Bft) 97,87 %
27.08.2017 20:52 21,1 C 25,0 C 72 % 1015,3 hPa 0,0 l/m 4,8 km/h (1 Bft) SW 224 0 min 0,000 mm 0,0 UV-I 0 W/m 15,8 C 21,1 C 6,4 km/h (2 Bft) 100,00 %
27.08.2017 20:54 21,1 C 25,0 C 72 % 1015,4 hPa 0,0 l/m 4,9 km/h (1 Bft) SW 227 0 min 0,000 mm 0,0 UV-I 0 W/m 15,8 C 21,1 C 8,0 km/h (2 Bft) 100,00 %
27.08.2017 20:56 21,1 C 25,0 C 72 % 1015,4 hPa 0,0 l/m 5,9 km/h (2 Bft) SW 232 0 min 0,000 mm 0,0 UV-I 0 W/m 15,8 C 21,1 C 8,0 km/h (2 Bft) 100,00 %
27.08.2017 20:58 21,1 C 25,0 C 73 % 1015,4 hPa 0,0 l/m 5,9 km/h (2 Bft) SW 218 0 min 0,000 mm 0,0 UV-I 0 W/m 16,1 C 21,1 C 8,0 km/h (2 Bft) 97,87 %
27.08.2017 21:00 21,0 C 25,0 C 73 % 1015,4 hPa 0,0 l/m 4,3 km/h (1 Bft) SW 215 0 min 0,025 mm 0,0 UV-I 0 W/m 16,0 C 21,0 C 6,4 km/h (2 Bft) 100,00 %
27.08.2017 21:02 20,9 C 25,0 C 74 % 1015,4 hPa 0,0 l/m 4,4 km/h (1 Bft) W-SW 246 0 min 0,000 mm 0,0 UV-I 0 W/m 16,1 C 20,9 C 6,4 km/h (2 Bft) 100,00 %
27.08.2017 21:04 20,8 C 25,0 C 74 % 1015,4 hPa 0,0 l/m 4,1 km/h (1 Bft) W-SW 242 0 min 0,000 mm 0,0 UV-I 0 W/m 16,0 C 20,8 C 8,0 km/h (2 Bft) 100,00 %
27.08.2017 21:06 20,8 C 25,0 C 74 % 1015,5 hPa 0,0 l/m 5,6 km/h (1 Bft) W 265 0 min 0,000 mm 0,0 UV-I 0 W/m 16,0 C 20,8 C 11,3 km/h (2 Bft) 100,00 %
27.08.2017 21:08 20,8 C 25,0 C 74 % 1015,5 hPa 0,0 l/m 6,2 km/h (2 Bft) W-SW 254 0 min 0,000 mm 0,0 UV-I 0 W/m 16,0 C 20,8 C 9,7 km/h (2 Bft) 100,00 %
27.08.2017 21:10 20,8 C 25,0 C 73 % 1015,4 hPa 0,0 l/m 5,9 km/h (2 Bft) W-SW 248 0 min 0,000 mm 0,0 UV-I 0 W/m 15,8 C 20,8 C 11,3 km/h (2 Bft) 100,00 %
27.08.2017 21:13 20,9 C 25,0 C 73 % 1015,5 hPa 0,0 l/m 5,2 km/h (1 Bft) W-SW 258 0 min 0,000 mm 0,0 UV-I 0 W/m 15,9 C 20,9 C 11,3 km/h (2 Bft) 100,00 %
27.08.2017 21:14 20,9 C 25,0 C 73 % 1015,5 hPa 0,0 l/m 5,3 km/h (1 Bft) SW 231 0 min 0,000 mm 0,0 UV-I 0 W/m 15,9 C 20,9 C 6,4 km/h (2 Bft) 100,00 %
27.08.2017 21:16 20,9 C 25,0 C 73 % 1015,4 hPa 0,0 l/m 5,3 km/h (1 Bft) W-SW 255 0 min 0,000 mm 0,0 UV-I 0 W/m 15,9 C 20,9 C 11,3 km/h (2 Bft) 100,00 %
27.08.2017 21:18 20,9 C 25,0 C 73 % 1015,5 hPa 0,0 l/m 4,2 km/h (1 Bft) W-SW 248 0 min 0,000 mm 0,0 UV-I 0 W/m 15,9 C 20,9 C 8,0 km/h (2 Bft) 100,00 %
27.08.2017 21:20 20,9 C 25,0 C 73 % 1015,5 hPa 0,0 l/m 5,6 km/h (1 Bft) W-SW 252 0 min 0,000 mm 0,0 UV-I 0 W/m 15,9 C 20,9 C 8,0 km/h (2 Bft) 100,00 %
27.08.2017 21:22 20,9 C 25,0 C 73 % 1015,6 hPa 0,0 l/m 6,2 km/h (2 Bft) W-SW 254 0 min 0,000 mm 0,0 UV-I 0 W/m 15,9 C 20,9 C 11,3 km/h (2 Bft) 97,44 %
27.08.2017 21:24 20,9 C 25,0 C 73 % 1015,6 hPa 0,0 l/m 4,2 km/h (1 Bft) W-SW 253 0 min 0,000 mm 0,0 UV-I 0 W/m 15,9 C 20,9 C 6,4 km/h (2 Bft) 100,00 %
27.08.2017 21:26 20,9 C 25,0 C 73 % 1015,6 hPa 0,0 l/m 5,8 km/h (2 Bft) SW 235 0 min 0,000 mm 0,0 UV-I 0 W/m 15,9 C 20,9 C 8,0 km/h (2 Bft) 97,87 %
27.08.2017 21:28 20,9 C 25,0 C 74 % 1015,6 hPa 0,0 l/m 5,2 km/h (1 Bft) SW 224 0 min 0,000 mm 0,0 UV-I 0 W/m 16,1 C 20,9 C 6,4 km/h (2 Bft) 100,00 %
27.08.2017 21:30 20,8 C 25,0 C 74 % 1015,5 hPa 0,0 l/m 5,1 km/h (1 Bft) SW 217 0 min 0,000 mm 0,0 UV-I 0 W/m 16,0 C 20,8 C 9,7 km/h (2 Bft) 97,87 %
27.08.2017 21:32 20,8 C 25,0 C 74 % 1015,5 hPa 0,0 l/m 5,3 km/h (1 Bft) SW 223 0 min 0,000 mm 0,0 UV-I 0 W/m 16,0 C 20,8 C 8,0 km/h (2 Bft) 100,00 %
27.08.2017 21:34 20,7 C 25,0 C 74 % 1015,4 hPa 0,0 l/m 5,4 km/h (1 Bft) SW 230 0 min 0,000 mm 0,0 UV-I 0 W/m 15,9 C 20,7 C 8,0 km/h (2 Bft) 100,00 %
27.08.2017 21:36 20,7 C 25,0 C 75 % 1015,4 hPa 0,0 l/m 4,8 km/h (1 Bft) SW 226 0 min 0,000 mm 0,0 UV-I 0 W/m 16,1 C 20,7 C 8,0 km/h (2 Bft) 100,00 %
27.08.2017 21:38 20,7 C 25,0 C 75 % 1015,4 hPa 0,0 l/m 4,9 km/h (1 Bft) SW 225 0 min 0,000 mm 0,0 UV-I 0 W/m 16,1 C 20,7 C 6,4 km/h (2 Bft) 100,00 %
27.08.2017 21:40 20,6 C 25,0 C 75 % 1015,4 hPa 0,0 l/m 5,4 km/h (1 Bft) SW 228 0 min 0,000 mm 0,0 UV-I 0 W/m 16,0 C 20,6 C 8,0 km/h (2 Bft) 100,00 %
27.08.2017 21:42 20,6 C 25,0 C 75 % 1015,4 hPa 0,0 l/m 5,0 km/h (1 Bft) SW 235 0 min 0,000 mm 0,0 UV-I 0 W/m 16,0 C 20,6 C 6,4 km/h (2 Bft) 97,87 %
27.08.2017 21:44 20,6 C 25,0 C 75 % 1015,4 hPa 0,0 l/m 4,6 km/h (1 Bft) SW 234 0 min 0,000 mm 0,0 UV-I 0 W/m 16,0 C 20,6 C 6,4 km/h (2 Bft) 100,00 %
27.08.2017 21:46 20,6 C 25,0 C 75 % 1015,4 hPa 0,0 l/m 4,4 km/h (1 Bft) SW 229 0 min 0,000 mm 0,0 UV-I 0 W/m 16,0 C 20,6 C 6,4 km/h (2 Bft) 97,87 %
27.08.2017 21:48 20,6 C 25,0 C 75 % 1015,4 hPa 0,0 l/m 3,6 km/h (1 Bft) SW 228 0 min 0,000 mm 0,0 UV-I 0 W/m 16,0 C 20,6 C 8,0 km/h (2 Bft) 100,00 %
27.08.2017 21:50 20,6 C 25,0 C 75 % 1015,5 hPa 0,0 l/m 6,2 km/h (2 Bft) SW 229 0 min 0,000 mm 0,0 UV-I 0 W/m 16,0 C 20,6 C 8,0 km/h (2 Bft) 100,00 %
27.08.2017 21:52 20,6 C 25,0 C 75 % 1015,5 hPa 0,0 l/m 6,7 km/h (2 Bft) SW 232 0 min 0,000 mm 0,0 UV-I 0 W/m 16,0 C 20,5 C 8,0 km/h (2 Bft) 97,87 %
27.08.2017 21:54 20,6 C 25,0 C 75 % 1015,5 hPa 0,0 l/m 6,8 km/h (2 Bft) SW 223 0 min 0,000 mm 0,0 UV-I 0 W/m 16,0 C 20,4 C 9,7 km/h (2 Bft) 100,00 %
27.08.2017 21:56 20,6 C 25,0 C 76 % 1015,5 hPa 0,0 l/m 5,0 km/h (1 Bft) SW 234 0 min 0,000 mm 0,0 UV-I 0 W/m 16,2 C 20,6 C 6,4 km/h (2 Bft) 100,00 %
27.08.2017 21:58 20,4 C 25,0 C 76 % 1015,5 hPa 0,0 l/m 4,4 km/h (1 Bft) SW 229 0 min 0,000 mm 0,0 UV-I 0 W/m 16,0 C 20,4 C 8,0 km/h (2 Bft) 97,87 %
27.08.2017 22:00 20,4 C 25,0 C 76 % 1015,5 hPa 0,0 l/m 4,7 km/h (1 Bft) W-SW 240 0 min 0,000 mm 0,0 UV-I 0 W/m 16,0 C 20,4 C 6,4 km/h (2 Bft) 100,00 %
27.08.2017 22:02 20,4 C 25,0 C 76 % 1015,5 hPa 0,0 l/m 5,0 km/h (1 Bft) SW 218 0 min 0,026 mm 0,0 UV-I 0 W/m 16,0 C 20,4 C 8,0 km/h (2 Bft) 100,00 %
27.08.2017 22:04 20,3 C 25,0 C 76 % 1015,4 hPa 0,0 l/m 5,5 km/h (1 Bft) SW 234 0 min 0,000 mm 0,0 UV-I 0 W/m 15,9 C 20,3 C 8,0 km/h (2 Bft) 100,00 %
27.08.2017 22:06 20,3 C 25,0 C 76 % 1015,5 hPa 0,0 l/m 4,6 km/h (1 Bft) W-SW 256 0 min 0,000 mm 0,0 UV-I 0 W/m 15,9 C 20,3 C 8,0 km/h (2 Bft) 100,00 %
27.08.2017 22:08 20,3 C 25,0 C 76 % 1015,5 hPa 0,0 l/m 4,1 km/h (1 Bft) W-SW 254 0 min 0,000 mm 0,0 UV-I 0 W/m 15,9 C 20,3 C 6,4 km/h (2 Bft) 97,87 %
27.08.2017 22:10 20,4 C 25,0 C 75 % 1015,5 hPa 0,0 l/m 3,2 km/h (1 Bft) W-SW 254 0 min 0,000 mm 0,0 UV-I 0 W/m 15,8 C 20,4 C 4,8 km/h (1 Bft) 93,62 %
27.08.2017 22:12 20,4 C 25,0 C 75 % 1015,5 hPa 0,0 l/m 2,9 km/h (1 Bft) W-SW 254 0 min 0,000 mm 0,0 UV-I 0 W/m 15,8 C 20,4 C 6,4 km/h (2 Bft) 93,62 %
27.08.2017 22:14 20,5 C 25,0 C 76 % 1015,5 hPa 0,0 l/m 3,6 km/h (1 Bft) W-SW 242 0 min 0,000 mm 0,0 UV-I 0 W/m 16,1 C 20,5 C 4,8 km/h (1 Bft) 95,74 %
27.08.2017 22:16 20,5 C 25,0 C 75 % 1015,4 hPa 0,0 l/m 4,0 km/h (1 Bft) W-SW 242 0 min 0,000 mm 0,0 UV-I 0 W/m 15,9 C 20,5 C 4,8 km/h (1 Bft) 95,74 %
27.08.2017 22:18 20,5 C 25,0 C 76 % 1015,4 hPa 0,0 l/m 3,6 km/h (1 Bft) SW 233 0 min 0,000 mm 0,0 UV-I 0 W/m 16,1 C 20,5 C 6,4 km/h (2 Bft) 95,74 %
27.08.2017 22:20 20,5 C 25,0 C 75 % 1015,5 hPa 0,0 l/m 3,9 km/h (1 Bft) SW 229 0 min 0,000 mm 0,0 UV-I 0 W/m 15,9 C 20,5 C 6,4 km/h (2 Bft) 93,62 %
27.08.2017 22:22 20,5 C 25,0 C 75 % 1015,4 hPa 0,0 l/m 5,8 km/h (2 Bft) SW 221 0 min 0,000 mm 0,0 UV-I 0 W/m 15,9 C 20,5 C 9,7 km/h (2 Bft) 95,74 %
27.08.2017 22:24 20,5 C 25,0 C 75 % 1015,4 hPa 0,0 l/m 5,0 km/h (1 Bft) SW 225 0 min 0,000 mm 0,0 UV-I 0 W/m 15,9 C 20,5 C 6,4 km/h (2 Bft) 96,00 %
27.08.2017 22:26 20,5 C 25,0 C 76 % 1015,5 hPa 0,0 l/m 3,9 km/h (1 Bft) SW 236 0 min 0,000 mm 0,0 UV-I 0 W/m 16,1 C 20,5 C 6,4 km/h (2 Bft) 95,74 %
27.08.2017 22:28 20,5 C 25,0 C 76 % 1015,5 hPa 0,0 l/m 5,2 km/h (1 Bft) W-SW 240 0 min 0,000 mm 0,0 UV-I 0 W/m 16,1 C 20,5 C 8,0 km/h (2 Bft) 91,43 %
27.08.2017 22:30 20,6 C 25,0 C 75 % 1015,6 hPa 0,0 l/m 3,3 km/h (1 Bft) W-SW 246 0 min 0,000 mm 0,0 UV-I 0 W/m 16,0 C 20,6 C 6,4 km/h (2 Bft) 95,74 %
27.08.2017 22:32 20,6 C 25,0 C 76 % 1015,7 hPa 0,0 l/m 2,6 km/h (1 Bft) W-SW 246 0 min 0,000 mm 0,0 UV-I 0 W/m 16,2 C 20,6 C 4,8 km/h (1 Bft) 95,74 %
27.08.2017 22:34 20,6 C 25,0 C 75 % 1015,9 hPa 0,0 l/m 3,7 km/h (1 Bft) W-SW 257 0 min 0,000 mm 0,0 UV-I 0 W/m 16,0 C 20,6 C 6,4 km/h (2 Bft) 95,74 %
27.08.2017 22:36 20,7 C 25,0 C 75 % 1015,8 hPa 0,0 l/m 4,5 km/h (1 Bft) W-SW 257 0 min 0,000 mm 0,0 UV-I 0 W/m 16,1 C 20,7 C 8,0 km/h (2 Bft) 95,74 %
27.08.2017 22:38 20,7 C 25,0 C 74 % 1015,8 hPa 0,0 l/m 6,9 km/h (2 Bft) W-SW 245 0 min 0,000 mm 0,0 UV-I 0 W/m 15,9 C 20,5 C 11,3 km/h (2 Bft) 94,44 %
27.08.2017 22:40 20,8 C 25,0 C 75 % 1015,8 hPa 0,0 l/m 6,6 km/h (2 Bft) W 261 0 min 0,000 mm 0,0 UV-I 0 W/m 16,2 C 20,7 C 11,3 km/h (2 Bft) 93,44 %
27.08.2017 22:42 20,8 C 25,0 C 75 % 1015,8 hPa 0,0 l/m 7,4 km/h (2 Bft) W-SW 248 0 min 0,000 mm 0,0 UV-I 0 W/m 16,2 C 20,4 C 12,9 km/h (3 Bft) 97,92 %
27.08.2017 22:44 20,8 C 25,0 C 76 % 1015,9 hPa 0,0 l/m 7,5 km/h (2 Bft) W 261 0 min 0,000 mm 0,0 UV-I 0 W/m 16,4 C 20,4 C 11,3 km/h (2 Bft) 95,74 %
27.08.2017 22:46 20,8 C 25,0 C 76 % 1015,9 hPa 0,0 l/m 8,5 km/h (2 Bft) W-SW 255 0 min 0,000 mm 0,0 UV-I 0 W/m 16,4 C 20,0 C 14,5 km/h (3 Bft) 97,87 %
27.08.2017 22:48 20,8 C 25,0 C 76 % 1016,0 hPa 0,0 l/m 9,3 km/h (2 Bft) W 269 0 min 0,000 mm 0,0 UV-I 0 W/m 16,4 C 19,7 C 14,5 km/h (3 Bft) 97,87 %
27.08.2017 22:50 20,7 C 25,0 C 76 % 1016,1 hPa 0,0 l/m 8,6 km/h (2 Bft) W 270 0 min 0,000 mm 0,0 UV-I 0 W/m 16,3 C 19,9 C 14,5 km/h (3 Bft) 95,74 %
27.08.2017 22:52 20,7 C 25,0 C 77 % 1016,1 hPa 0,0 l/m 6,5 km/h (2 Bft) W-SW 255 0 min 0,000 mm 0,0 UV-I 0 W/m 16,5 C 20,7 C 11,3 km/h (2 Bft) 97,87 %
27.08.2017 22:54 20,7 C 25,0 C 77 % 1016,2 hPa 0,0 l/m 6,0 km/h (2 Bft) W-SW 245 0 min 0,000 mm 0,0 UV-I 0 W/m 16,5 C 20,7 C 9,7 km/h (2 Bft) 95,74 %
27.08.2017 22:55 20,6 C 25,0 C 77 % 1016,3 hPa 0,0 l/m 6,4 km/h (2 Bft) W 270 0 min 0,000 mm 0,0 UV-I 0 W/m 16,4 C 20,6 C 11,3 km/h (2 Bft) 97,37 %
27.08.2017 22:58 20,6 C 25,0 C 78 % 1016,4 hPa 0,0 l/m 3,8 km/h (1 Bft) W-NW 297 0 min 0,000 mm 0,0 UV-I 0 W/m 16,6 C 20,6 C 6,4 km/h (2 Bft) 96,55 %
27.08.2017 23:00 20,4 C 25,0 C 79 % 1016,3 hPa 0,0 l/m 2,8 km/h (1 Bft) W-NW 284 0 min 0,025 mm 0,0 UV-I 0 W/m 16,6 C 20,4 C 8,0 km/h (2 Bft) 97,87 %
27.08.2017 23:02 20,3 C 25,0 C 79 % 1016,3 hPa 0,0 l/m 1,7 km/h (1 Bft) N-NO 26 0 min 0,000 mm 0,0 UV-I 0 W/m 16,5 C 20,3 C 6,4 km/h (2 Bft) 98,00 %
27.08.2017 23:04 20,3 C 25,0 C 80 % 1016,2 hPa 0,0 l/m 0,6 km/h (0 Bft) N-NO 26 0 min 0,000 mm 0,0 UV-I 0 W/m 16,7 C 20,3 C 1,6 km/h (1 Bft) 97,73 %
27.08.2017 23:06 20,2 C 25,0 C 81 % 1015,8 hPa 0,2 l/m 2,6 km/h (1 Bft) NO 37 0 min 0,000 mm 0,0 UV-I 0 W/m 16,8 C 20,2 C 6,4 km/h (2 Bft) 96,00 %
27.08.2017 23:08 20,1 C 25,0 C 81 % 1015,7 hPa 0,2 l/m 3,8 km/h (1 Bft) N-NO 32 0 min 0,000 mm 0,0 UV-I 0 W/m 16,7 C 20,1 C 6,4 km/h (2 Bft) 97,14 %
27.08.2017 23:10 19,9 C 24,4 C 81 % 1015,8 hPa 0,0 l/m 0,4 km/h (0 Bft) N 11 0 min 0,000 mm 0,0 UV-I 0 W/m 16,5 C 19,9 C 3,2 km/h (1 Bft) 100,00 %
27.08.2017 23:12 19,8 C 24,4 C 81 % 1015,8 hPa 0,2 l/m 0,0 km/h (0 Bft) N 11 0 min 0,000 mm 0,0 UV-I 0 W/m 16,4 C 19,8 C 0,0 km/h (0 Bft) 100,00 %
27.08.2017 23:14 19,8 C 24,4 C 82 % 1015,7 hPa 0,0 l/m 1,5 km/h (1 Bft) N-NO 26 0 min 0,000 mm 0,0 UV-I 0 W/m 16,6 C 19,8 C 3,2 km/h (1 Bft) 100,00 %
27.08.2017 23:16 19,7 C 24,4 C 83 % 1015,8 hPa 0,0 l/m 3,6 km/h (1 Bft) S-SW 211 0 min 0,000 mm 0,0 UV-I 0 W/m 16,7 C 19,7 C 6,4 km/h (2 Bft) 100,00 %
27.08.2017 23:18 19,6 C 24,4 C 84 % 1015,8 hPa 0,0 l/m 4,8 km/h (1 Bft) SW 224 0 min 0,000 mm 0,0 UV-I 0 W/m 16,8 C 19,6 C 6,4 km/h (2 Bft) 100,00 %
27.08.2017 23:20 19,4 C 24,4 C 84 % 1015,7 hPa 0,0 l/m 1,3 km/h (1 Bft) SW 223 0 min 0,000 mm 0,0 UV-I 0 W/m 16,6 C 19,4 C 4,8 km/h (1 Bft) 100,00 %
27.08.2017 23:22 19,4 C 24,4 C 84 % 1015,7 hPa 0,0 l/m 0,5 km/h (0 Bft) SW 223 0 min 0,000 mm 0,0 UV-I 0 W/m 16,6 C 19,4 C 3,2 km/h (1 Bft) 98,11 %
27.08.2017 23:24 19,4 C 24,4 C 85 % 1015,8 hPa 0,0 l/m 1,9 km/h (1 Bft) SW 223 0 min 0,000 mm 0,0 UV-I 0 W/m 16,8 C 19,4 C 4,8 km/h (1 Bft) 96,00 %
27.08.2017 23:26 19,3 C 24,4 C 85 % 1015,8 hPa 0,0 l/m 4,0 km/h (1 Bft) S 190 0 min 0,000 mm 0,0 UV-I 0 W/m 16,7 C 19,3 C 8,0 km/h (2 Bft) 100,00 %
27.08.2017 23:28 19,2 C 24,4 C 86 % 1015,7 hPa 0,0 l/m 2,0 km/h (1 Bft) S 175 0 min 0,000 mm 0,0 UV-I 0 W/m 16,8 C 19,2 C 4,8 km/h (1 Bft) 100,00 %
27.08.2017 23:30 19,2 C 24,4 C 87 % 1015,7 hPa 0,0 l/m 3,5 km/h (1 Bft) S 175 0 min 0,000 mm 0,0 UV-I 0 W/m 17,0 C 19,2 C 4,8 km/h (1 Bft) 100,00 %
27.08.2017 23:32 19,1 C 24,4 C 87 % 1015,8 hPa 0,0 l/m 4,1 km/h (1 Bft) S-SO 161 0 min 0,000 mm 0,0 UV-I 0 W/m 16,9 C 19,1 C 6,4 km/h (2 Bft) 100,00 %
27.08.2017 23:34 18,9 C 24,4 C 87 % 1015,8 hPa 0,0 l/m 4,2 km/h (1 Bft) S-SW 196 0 min 0,000 mm 0,0 UV-I 0 W/m 16,7 C 18,9 C 8,0 km/h (2 Bft) 98,00 %
27.08.2017 23:36 18,8 C 24,4 C 87 % 1015,8 hPa 0,0 l/m 4,2 km/h (1 Bft) S-SW 200 0 min 0,000 mm 0,0 UV-I 0 W/m 16,6 C 18,8 C 6,4 km/h (2 Bft) 100,00 %
27.08.2017 23:38 18,8 C 24,4 C 88 % 1015,9 hPa 0,0 l/m 4,1 km/h (1 Bft) S-SW 199 0 min 0,000 mm 0,0 UV-I 0 W/m 16,8 C 18,8 C 6,4 km/h (2 Bft) 100,00 %
27.08.2017 23:40 18,8 C 24,4 C 88 % 1015,8 hPa 0,0 l/m 3,0 km/h (1 Bft) S 178 0 min 0,000 mm 0,0 UV-I 0 W/m 16,8 C 18,8 C 4,8 km/h (1 Bft) 100,00 %
27.08.2017 23:42 18,8 C 24,4 C 88 % 1015,8 hPa 0,0 l/m 3,1 km/h (1 Bft) S 182 0 min 0,000 mm 0,0 UV-I 0 W/m 16,8 C 18,8 C 6,4 km/h (2 Bft) 100,00 %
27.08.2017 23:44 18,8 C 24,4 C 88 % 1015,8 hPa 0,0 l/m 2,7 km/h (1 Bft) S 182 0 min 0,000 mm 0,0 UV-I 0 W/m 16,8 C 18,8 C 4,8 km/h (1 Bft) 100,00 %
27.08.2017 23:46 18,8 C 24,4 C 88 % 1015,8 hPa 0,0 l/m 1,9 km/h (1 Bft) S 183 0 min 0,000 mm 0,0 UV-I 0 W/m 16,8 C 18,8 C 4,8 km/h (1 Bft) 100,00 %
27.08.2017 23:48 18,8 C 24,4 C 88 % 1015,9 hPa 0,0 l/m 0,7 km/h (0 Bft) S 183 0 min 0,000 mm 0,0 UV-I 0 W/m 16,8 C 18,8 C 3,2 km/h (1 Bft) 98,00 %
27.08.2017 23:50 18,8 C 24,4 C 88 % 1015,9 hPa 0,0 l/m 0,1 km/h (0 Bft) S 183 0 min 0,000 mm 0,0 UV-I 0 W/m 16,8 C 18,8 C 1,6 km/h (1 Bft) 100,00 %
27.08.2017 23:52 18,9 C 24,4 C 88 % 1016,0 hPa 0,0 l/m 1,5 km/h (1 Bft) S 183 0 min 0,000 mm 0,0 UV-I 0 W/m 16,9 C 18,9 C 3,2 km/h (1 Bft) 97,87 %
27.08.2017 23:54 18,9 C 24,4 C 88 % 1016,1 hPa 0,0 l/m 1,2 km/h (1 Bft) S 183 0 min 0,000 mm 0,0 UV-I 0 W/m 16,9 C 18,9 C 3,2 km/h (1 Bft) 100,00 %
27.08.2017 23:56 18,9 C 24,4 C 88 % 1016,1 hPa 0,0 l/m 2,7 km/h (1 Bft) S 183 0 min 0,000 mm 0,0 UV-I 0 W/m 16,9 C 18,9 C 4,8 km/h (1 Bft) 100,00 %
27.08.2017 23:58 18,9 C 24,4 C 88 % 1016,1 hPa 0,0 l/m 2,5 km/h (1 Bft) S 183 0 min 0,000 mm 0,0 UV-I 0 W/m 16,9 C 18,9 C 3,2 km/h (1 Bft) 98,00 %
_ Min-Zeit 05:04 04:14 12:58 15:04 - 01:00 - - - - - - 00:46 05:04 01:00 00:02
Minimum _ 17,2 C 23,9 C 51 % 1013,4 hPa - 0,0 km/h (0 Bft) - - - - - - 13,8 C 17,2 C 0,0 km/h (0 Bft) 13,33 %
_ Max-Zeit 15:04 00:00 23:38 22:58 23:06 00:02 - - 06:26 13:00 12:34 12:56 14:26 15:02 16:02 00:00
Maximum _ 29,1 C 25,0 C 88 % 1016,4 hPa 0,2 l/m 12,5 km/h
S-SW (3 Bft)
- - 2 min 0,483 mm 4,6 UV-I 816 W/m 18,9 C 29,0 C 32,2 km/h
W-NW (5 Bft)
100,00 %
Durchschnitt _ 22,2 C 24,5 C 68 % 1014,5 hPa #0,6 l/m 4,4 km/h (1 Bft) SW - #8:28 h #3,759 mm 2,4 UV-I 351 W/m 15,8 C 22,1 C 7,9 km/h (2 Bft) 97,56 %